<?xml version="1.0" encoding="UTF-8" standalone="no" ?><gpx xmlns="http://www.topografix.com/GPX/1/1" xmlns:gpxx="http://www.garmin.com/xmlschemas/GpxExtensions/v3" xmlns:gpxtrkx="http://www.garmin.com/xmlschemas/TrackStatsExtension/v1" xmlns:wptx1="http://www.garmin.com/xmlschemas/WaypointExtension/v1" xmlns:gpxtpx="http://www.garmin.com/xmlschemas/TrackPointExtension/v1" creator="GPSMAP 64st" version="1.1" xmlns:xsi="http://www.w3.org/2001/XMLSchema-instance" xsi:schemaLocation="http://www.topografix.com/GPX/1/1 http://www.topografix.com/GPX/1/1/gpx.xsd http://www.garmin.com/xmlschemas/GpxExtensions/v3 http://www8.garmin.com/xmlschemas/GpxExtensionsv3.xsd http://www.garmin.com/xmlschemas/TrackStatsExtension/v1 http://www8.garmin.com/xmlschemas/TrackStatsExtension.xsd http://www.garmin.com/xmlschemas/WaypointExtension/v1 http://www8.garmin.com/xmlschemas/WaypointExtensionv1.xsd http://www.garmin.com/xmlschemas/TrackPointExtension/v1 http://www.garmin.com/xmlschemas/TrackPointExtensionv1.xsd"><metadata><link href="http://www.garmin.com"><text>Garmin International</text></link><time>2026-04-20T17:55:59Z</time></metadata><trk><name>2026-04-20 21:55:55</name><extensions><gpxx:TrackExtension><gpxx:DisplayColor>Yellow</gpxx:DisplayColor></gpxx:TrackExtension><gpxtrkx:TrackStatsExtension><gpxtrkx:Distance>26686</gpxtrkx:Distance><gpxtrkx:TotalElapsedTime>39652</gpxtrkx:TotalElapsedTime><gpxtrkx:MovingTime>36587</gpxtrkx:MovingTime><gpxtrkx:StoppedTime>3049</gpxtrkx:StoppedTime><gpxtrkx:MovingSpeed>1</gpxtrkx:MovingSpeed><gpxtrkx:MaxSpeed>2</gpxtrkx:MaxSpeed><gpxtrkx:MaxElevation>78</gpxtrkx:MaxElevation><gpxtrkx:MinElevation>51</gpxtrkx:MinElevation><gpxtrkx:Ascent>297</gpxtrkx:Ascent><gpxtrkx:Descent>299</gpxtrkx:Descent><gpxtrkx:AvgAscentRate>0</gpxtrkx:AvgAscentRate><gpxtrkx:MaxAscentRate>0</gpxtrkx:MaxAscentRate><gpxtrkx:AvgDescentRate>0</gpxtrkx:AvgDescentRate><gpxtrkx:MaxDescentRate>-0</gpxtrkx:MaxDescentRate></gpxtrkx:TrackStatsExtension></extensions><trkseg><trkpt lat="59.0927430801" lon="29.9890832976"><ele>63.41</ele><time>2026-04-20T06:55:07Z</time></trkpt><trkpt lat="59.0927419066" lon="29.9890855607"><ele>63.41</ele><time>2026-04-20T06:55:08Z</time></trkpt><trkpt lat="59.0927362908" lon="29.9891130533"><ele>61.91</ele><time>2026-04-20T06:55:12Z</time></trkpt><trkpt lat="59.0927039366" lon="29.9891190883"><ele>62.58</ele><time>2026-04-20T06:55:40Z</time></trkpt><trkpt lat="59.0927179344" lon="29.9891294818"><ele>62.39</ele><time>2026-04-20T06:56:08Z</time></trkpt><trkpt lat="59.0927372966" lon="29.9892022368"><ele>61.72</ele><time>2026-04-20T06:56:27Z</time></trkpt><trkpt lat="59.0927865822" lon="29.9893858843"><ele>61.57</ele><time>2026-04-20T06:56:42Z</time></trkpt><trkpt lat="59.0928446688" lon="29.9895962700"><ele>62.18</ele><time>2026-04-20T06:56:55Z</time></trkpt><trkpt lat="59.0928791184" lon="29.9897577893"><ele>62.17</ele><time>2026-04-20T06:57:05Z</time></trkpt><trkpt lat="59.0929482691" lon="29.9902909622"><ele>62.13</ele><time>2026-04-20T06:57:30Z</time></trkpt><trkpt lat="59.0930113848" lon="29.9905567523"><ele>62.18</ele><time>2026-04-20T06:57:46Z</time></trkpt><trkpt lat="59.0930321719" lon="29.9906890187"><ele>61.31</ele><time>2026-04-20T06:58:00Z</time></trkpt><trkpt lat="59.0929807071" lon="29.9907708261"><ele>61.41</ele><time>2026-04-20T06:58:23Z</time></trkpt><trkpt lat="59.0930016618" lon="29.9910524581"><ele>61.68</ele><time>2026-04-20T06:58:51Z</time></trkpt><trkpt lat="59.0930739138" lon="29.9912651069"><ele>61.27</ele><time>2026-04-20T06:59:03Z</time></trkpt><trkpt lat="59.0931641031" lon="29.9915012252"><ele>62.07</ele><time>2026-04-20T06:59:19Z</time></trkpt><trkpt lat="59.0932570584" lon="29.9918740522"><ele>61.11</ele><time>2026-04-20T06:59:37Z</time></trkpt><trkpt lat="59.0932668652" lon="29.9919466395"><ele>61.08</ele><time>2026-04-20T06:59:40Z</time></trkpt><trkpt lat="59.0933130495" lon="29.9922162015"><ele>61.11</ele><time>2026-04-20T06:59:53Z</time></trkpt><trkpt lat="59.0933851339" lon="29.9925019406"><ele>60.98</ele><time>2026-04-20T07:00:09Z</time></trkpt><trkpt lat="59.0934045799" lon="29.9927447643"><ele>60.64</ele><time>2026-04-20T07:00:26Z</time></trkpt><trkpt lat="59.0934063401" lon="29.9928085506"><ele>61.71</ele><time>2026-04-20T07:00:56Z</time></trkpt><trkpt lat="59.0933588985" lon="29.9928094726"><ele>61.17</ele><time>2026-04-20T07:01:23Z</time></trkpt><trkpt lat="59.0933217667" lon="29.9927621987"><ele>60.47</ele><time>2026-04-20T07:01:40Z</time></trkpt><trkpt lat="59.0933195036" lon="29.9926332012"><ele>60.49</ele><time>2026-04-20T07:02:01Z</time></trkpt><trkpt lat="59.0932178311" lon="29.9925662298"><ele>60.20</ele><time>2026-04-20T07:02:21Z</time></trkpt><trkpt lat="59.0931328386" lon="29.9925698340"><ele>61.06</ele><time>2026-04-20T07:02:39Z</time></trkpt><trkpt lat="59.0930749197" lon="29.9925384019"><ele>61.01</ele><time>2026-04-20T07:02:54Z</time></trkpt><trkpt lat="59.0929739177" lon="29.9925674871"><ele>60.89</ele><time>2026-04-20T07:03:14Z</time></trkpt><trkpt lat="59.0928234626" lon="29.9926245678"><ele>60.97</ele><time>2026-04-20T07:03:32Z</time></trkpt><trkpt lat="59.0927088819" lon="29.9925552495"><ele>59.87</ele><time>2026-04-20T07:03:51Z</time></trkpt><trkpt lat="59.0926720854" lon="29.9925208837"><ele>60.56</ele><time>2026-04-20T07:03:58Z</time></trkpt><trkpt lat="59.0925638750" lon="29.9925021082"><ele>60.95</ele><time>2026-04-20T07:04:17Z</time></trkpt><trkpt lat="59.0923777130" lon="29.9925141782"><ele>60.42</ele><time>2026-04-20T07:04:37Z</time></trkpt><trkpt lat="59.0922679938" lon="29.9924785551"><ele>60.10</ele><time>2026-04-20T07:04:52Z</time></trkpt><trkpt lat="59.0921115037" lon="29.9924209714"><ele>60.00</ele><time>2026-04-20T07:05:10Z</time></trkpt><trkpt lat="59.0920264274" lon="29.9924153555"><ele>61.41</ele><time>2026-04-20T07:05:22Z</time></trkpt><trkpt lat="59.0919563547" lon="29.9924081471"><ele>60.39</ele><time>2026-04-20T07:05:41Z</time></trkpt><trkpt lat="59.0919076558" lon="29.9923374876"><ele>60.03</ele><time>2026-04-20T07:06:11Z</time></trkpt><trkpt lat="59.0918416902" lon="29.9922716897"><ele>60.16</ele><time>2026-04-20T07:06:31Z</time></trkpt><trkpt lat="59.0918421932" lon="29.9921830092"><ele>60.35</ele><time>2026-04-20T07:06:51Z</time></trkpt><trkpt lat="59.0918693505" lon="29.9922064785"><ele>60.16</ele><time>2026-04-20T07:07:13Z</time></trkpt><trkpt lat="59.0918168798" lon="29.9923900422"><ele>60.36</ele><time>2026-04-20T07:07:34Z</time></trkpt><trkpt lat="59.0917595476" lon="29.9923889525"><ele>60.91</ele><time>2026-04-20T07:07:51Z</time></trkpt><trkpt lat="59.0917247627" lon="29.9923593644"><ele>61.09</ele><time>2026-04-20T07:07:57Z</time></trkpt><trkpt lat="59.0916067455" lon="29.9922400899"><ele>60.21</ele><time>2026-04-20T07:08:19Z</time></trkpt><trkpt lat="59.0913593955" lon="29.9921226595"><ele>60.00</ele><time>2026-04-20T07:08:40Z</time></trkpt><trkpt lat="59.0913285501" lon="29.9920997769"><ele>61.35</ele><time>2026-04-20T07:08:43Z</time></trkpt><trkpt lat="59.0912314039" lon="29.9919725396"><ele>61.12</ele><time>2026-04-20T07:09:03Z</time></trkpt><trkpt lat="59.0910826251" lon="29.9919486511"><ele>60.65</ele><time>2026-04-20T07:09:21Z</time></trkpt><trkpt lat="59.0910319984" lon="29.9919165485"><ele>60.59</ele><time>2026-04-20T07:09:29Z</time></trkpt><trkpt lat="59.0909204353" lon="29.9918527622"><ele>59.86</ele><time>2026-04-20T07:09:46Z</time></trkpt><trkpt lat="59.0907576587" lon="29.9918686878"><ele>59.63</ele><time>2026-04-20T07:10:07Z</time></trkpt><trkpt lat="59.0906932857" lon="29.9918335676"><ele>58.46</ele><time>2026-04-20T07:10:19Z</time></trkpt><trkpt lat="59.0906724147" lon="29.9918375071"><ele>60.05</ele><time>2026-04-20T07:10:23Z</time></trkpt><trkpt lat="59.0905196127" lon="29.9917511735"><ele>60.00</ele><time>2026-04-20T07:10:44Z</time></trkpt><trkpt lat="59.0904341172" lon="29.9917032290"><ele>59.94</ele><time>2026-04-20T07:11:05Z</time></trkpt><trkpt lat="59.0904244781" lon="29.9916689470"><ele>59.91</ele><time>2026-04-20T07:11:33Z</time></trkpt><trkpt lat="59.0903715882" lon="29.9916230142"><ele>58.67</ele><time>2026-04-20T07:11:57Z</time></trkpt><trkpt lat="59.0902982466" lon="29.9916206673"><ele>58.20</ele><time>2026-04-20T07:12:17Z</time></trkpt><trkpt lat="59.0902586002" lon="29.9916311447"><ele>58.95</ele><time>2026-04-20T07:12:39Z</time></trkpt><trkpt lat="59.0902052075" lon="29.9916150514"><ele>58.83</ele><time>2026-04-20T07:13:07Z</time></trkpt><trkpt lat="59.0901379008" lon="29.9916511774"><ele>58.38</ele><time>2026-04-20T07:13:25Z</time></trkpt><trkpt lat="59.0900477953" lon="29.9916210864"><ele>59.14</ele><time>2026-04-20T07:13:44Z</time></trkpt><trkpt lat="59.0899091586" lon="29.9916060828"><ele>58.53</ele><time>2026-04-20T07:14:05Z</time></trkpt><trkpt lat="59.0898037981" lon="29.9915815238"><ele>57.88</ele><time>2026-04-20T07:14:26Z</time></trkpt><trkpt lat="59.0897767246" lon="29.9915723875"><ele>58.42</ele><time>2026-04-20T07:14:33Z</time></trkpt><trkpt lat="59.0896588750" lon="29.9914277159"><ele>58.00</ele><time>2026-04-20T07:14:57Z</time></trkpt><trkpt lat="59.0895932447" lon="29.9913099501"><ele>59.04</ele><time>2026-04-20T07:15:20Z</time></trkpt><trkpt lat="59.0895612258" lon="29.9912859779"><ele>56.41</ele><time>2026-04-20T07:15:22Z</time></trkpt><trkpt lat="59.0895194840" lon="29.9914002232"><ele>59.50</ele><time>2026-04-20T07:15:39Z</time></trkpt><trkpt lat="59.0893799253" lon="29.9913752452"><ele>59.22</ele><time>2026-04-20T07:16:00Z</time></trkpt><trkpt lat="59.0891357604" lon="29.9912639335"><ele>59.63</ele><time>2026-04-20T07:16:22Z</time></trkpt><trkpt lat="59.0889139753" lon="29.9911864847"><ele>60.53</ele><time>2026-04-20T07:16:46Z</time></trkpt><trkpt lat="59.0888216905" lon="29.9911486823"><ele>59.34</ele><time>2026-04-20T07:17:09Z</time></trkpt><trkpt lat="59.0887950361" lon="29.9911571480"><ele>58.96</ele><time>2026-04-20T07:17:25Z</time></trkpt><trkpt lat="59.0888063516" lon="29.9911801983"><ele>59.97</ele><time>2026-04-20T07:17:58Z</time></trkpt><trkpt lat="59.0886833891" lon="29.9911399651"><ele>59.36</ele><time>2026-04-20T07:18:19Z</time></trkpt><trkpt lat="59.0885248035" lon="29.9911227822"><ele>59.37</ele><time>2026-04-20T07:18:39Z</time></trkpt><trkpt lat="59.0883222967" lon="29.9910177570"><ele>58.35</ele><time>2026-04-20T07:19:00Z</time></trkpt><trkpt lat="59.0882150084" lon="29.9910100456"><ele>58.64</ele><time>2026-04-20T07:19:16Z</time></trkpt><trkpt lat="59.0879920498" lon="29.9908911064"><ele>58.94</ele><time>2026-04-20T07:19:40Z</time></trkpt><trkpt lat="59.0878137667" lon="29.9908404797"><ele>58.25</ele><time>2026-04-20T07:20:01Z</time></trkpt><trkpt lat="59.0876286104" lon="29.9907978997"><ele>57.75</ele><time>2026-04-20T07:20:23Z</time></trkpt><trkpt lat="59.0875898860" lon="29.9908135738"><ele>58.33</ele><time>2026-04-20T07:20:28Z</time></trkpt><trkpt lat="59.0873774886" lon="29.9907422438"><ele>57.71</ele><time>2026-04-20T07:20:50Z</time></trkpt><trkpt lat="59.0872887243" lon="29.9906921200"><ele>58.27</ele><time>2026-04-20T07:21:01Z</time></trkpt><trkpt lat="59.0872494131" lon="29.9906419963"><ele>57.55</ele><time>2026-04-20T07:21:34Z</time></trkpt><trkpt lat="59.0872088447" lon="29.9906665552"><ele>56.45</ele><time>2026-04-20T07:22:03Z</time></trkpt><trkpt lat="59.0872478206" lon="29.9907034356"><ele>56.55</ele><time>2026-04-20T07:22:32Z</time></trkpt><trkpt lat="59.0871863812" lon="29.9906276632"><ele>55.87</ele><time>2026-04-20T07:23:01Z</time></trkpt><trkpt lat="59.0872096829" lon="29.9905971531"><ele>56.19</ele><time>2026-04-20T07:23:29Z</time></trkpt><trkpt lat="59.0872193221" lon="29.9906231370"><ele>56.58</ele><time>2026-04-20T07:23:35Z</time></trkpt><trkpt lat="59.0871474054" lon="29.9906403199"><ele>56.44</ele><time>2026-04-20T07:23:57Z</time></trkpt><trkpt lat="59.0870065056" lon="29.9906057864"><ele>56.02</ele><time>2026-04-20T07:24:19Z</time></trkpt><trkpt lat="59.0868746582" lon="29.9905583449"><ele>56.37</ele><time>2026-04-20T07:24:37Z</time></trkpt><trkpt lat="59.0867177490" lon="29.9904408306"><ele>56.82</ele><time>2026-04-20T07:24:56Z</time></trkpt><trkpt lat="59.0866480954" lon="29.9904358853"><ele>57.12</ele><time>2026-04-20T07:25:15Z</time></trkpt><trkpt lat="59.0866660327" lon="29.9905060418"><ele>56.77</ele><time>2026-04-20T07:25:31Z</time></trkpt><trkpt lat="59.0866487660" lon="29.9904803932"><ele>55.27</ele><time>2026-04-20T07:25:37Z</time></trkpt><trkpt lat="59.0864834748" lon="29.9903848395"><ele>56.92</ele><time>2026-04-20T07:25:52Z</time></trkpt><trkpt lat="59.0863406472" lon="29.9902954046"><ele>56.38</ele><time>2026-04-20T07:26:12Z</time></trkpt><trkpt lat="59.0861803014" lon="29.9901747052"><ele>56.20</ele><time>2026-04-20T07:26:33Z</time></trkpt><trkpt lat="59.0860114899" lon="29.9900752958"><ele>56.37</ele><time>2026-04-20T07:26:53Z</time></trkpt><trkpt lat="59.0859116614" lon="29.9900508206"><ele>56.55</ele><time>2026-04-20T07:27:02Z</time></trkpt><trkpt lat="59.0858210530" lon="29.9901167024"><ele>55.70</ele><time>2026-04-20T07:27:18Z</time></trkpt><trkpt lat="59.0857996792" lon="29.9901756272"><ele>55.30</ele><time>2026-04-20T07:27:46Z</time></trkpt><trkpt lat="59.0857439395" lon="29.9902532436"><ele>56.63</ele><time>2026-04-20T07:28:17Z</time></trkpt><trkpt lat="59.0856195521" lon="29.9902306963"><ele>56.15</ele><time>2026-04-20T07:28:37Z</time></trkpt><trkpt lat="59.0855257586" lon="29.9901816621"><ele>56.14</ele><time>2026-04-20T07:28:51Z</time></trkpt><trkpt lat="59.0854119323" lon="29.9901267607"><ele>56.64</ele><time>2026-04-20T07:29:11Z</time></trkpt><trkpt lat="59.0853807516" lon="29.9901417643"><ele>55.75</ele><time>2026-04-20T07:29:32Z</time></trkpt><trkpt lat="59.0853846911" lon="29.9901653174"><ele>55.72</ele><time>2026-04-20T07:29:41Z</time></trkpt><trkpt lat="59.0853789914" lon="29.9901253358"><ele>55.71</ele><time>2026-04-20T07:30:05Z</time></trkpt><trkpt lat="59.0853147861" lon="29.9899886269"><ele>56.87</ele><time>2026-04-20T07:30:25Z</time></trkpt><trkpt lat="59.0852607228" lon="29.9900822528"><ele>56.69</ele><time>2026-04-20T07:30:45Z</time></trkpt><trkpt lat="59.0852509160" lon="29.9900485575"><ele>56.69</ele><time>2026-04-20T07:31:13Z</time></trkpt><trkpt lat="59.0851726290" lon="29.9900739547"><ele>56.83</ele><time>2026-04-20T07:31:30Z</time></trkpt><trkpt lat="59.0850812662" lon="29.9900381640"><ele>57.01</ele><time>2026-04-20T07:31:54Z</time></trkpt><trkpt lat="59.0850115288" lon="29.9900423549"><ele>54.66</ele><time>2026-04-20T07:32:09Z</time></trkpt><trkpt lat="59.0849633329" lon="29.9900555983"><ele>56.19</ele><time>2026-04-20T07:32:14Z</time></trkpt><trkpt lat="59.0848554578" lon="29.9899937399"><ele>57.14</ele><time>2026-04-20T07:32:36Z</time></trkpt><trkpt lat="59.0847752430" lon="29.9900369067"><ele>56.98</ele><time>2026-04-20T07:32:56Z</time></trkpt><trkpt lat="59.0847417992" lon="29.9900575262"><ele>55.41</ele><time>2026-04-20T07:33:01Z</time></trkpt><trkpt lat="59.0847102832" lon="29.9900397565"><ele>56.79</ele><time>2026-04-20T07:33:06Z</time></trkpt><trkpt lat="59.0846769232" lon="29.9900356494"><ele>57.12</ele><time>2026-04-20T07:33:16Z</time></trkpt><trkpt lat="59.0845521167" lon="29.9899654090"><ele>57.60</ele><time>2026-04-20T07:33:36Z</time></trkpt><trkpt lat="59.0843983088" lon="29.9899183866"><ele>58.57</ele><time>2026-04-20T07:33:57Z</time></trkpt><trkpt lat="59.0842474345" lon="29.9898587074"><ele>58.31</ele><time>2026-04-20T07:34:18Z</time></trkpt><trkpt lat="59.0841152519" lon="29.9898026325"><ele>57.76</ele><time>2026-04-20T07:34:37Z</time></trkpt><trkpt lat="59.0839396510" lon="29.9897833541"><ele>57.90</ele><time>2026-04-20T07:34:56Z</time></trkpt><trkpt lat="59.0838697460" lon="29.9897233397"><ele>57.68</ele><time>2026-04-20T07:35:15Z</time></trkpt><trkpt lat="59.0838736854" lon="29.9896634929"><ele>56.97</ele><time>2026-04-20T07:35:46Z</time></trkpt><trkpt lat="59.0837604459" lon="29.9896846991"><ele>57.70</ele><time>2026-04-20T07:36:10Z</time></trkpt><trkpt lat="59.0837532375" lon="29.9896888062"><ele>57.30</ele><time>2026-04-20T07:36:11Z</time></trkpt><trkpt lat="59.0837015212" lon="29.9896619841"><ele>57.34</ele><time>2026-04-20T07:36:17Z</time></trkpt><trkpt lat="59.0835575201" lon="29.9896033946"><ele>57.44</ele><time>2026-04-20T07:36:40Z</time></trkpt><trkpt lat="59.0834376588" lon="29.9895590544"><ele>58.43</ele><time>2026-04-20T07:37:03Z</time></trkpt><trkpt lat="59.0832890477" lon="29.9894785043"><ele>58.13</ele><time>2026-04-20T07:37:25Z</time></trkpt><trkpt lat="59.0831579547" lon="29.9893662706"><ele>58.47</ele><time>2026-04-20T07:37:44Z</time></trkpt><trkpt lat="59.0831111837" lon="29.9893469084"><ele>56.95</ele><time>2026-04-20T07:37:51Z</time></trkpt><trkpt lat="59.0830682684" lon="29.9893568829"><ele>58.62</ele><time>2026-04-20T07:37:56Z</time></trkpt><trkpt lat="59.0829683561" lon="29.9892508518"><ele>58.61</ele><time>2026-04-20T07:38:16Z</time></trkpt><trkpt lat="59.0827902406" lon="29.9892894085"><ele>59.23</ele><time>2026-04-20T07:38:39Z</time></trkpt><trkpt lat="59.0826248657" lon="29.9891426414"><ele>59.19</ele><time>2026-04-20T07:39:00Z</time></trkpt><trkpt lat="59.0824625921" lon="29.9890389573"><ele>59.74</ele><time>2026-04-20T07:39:20Z</time></trkpt><trkpt lat="59.0824268851" lon="29.9890350178"><ele>59.48</ele><time>2026-04-20T07:39:24Z</time></trkpt><trkpt lat="59.0823595785" lon="29.9889895879"><ele>59.91</ele><time>2026-04-20T07:39:36Z</time></trkpt><trkpt lat="59.0822868235" lon="29.9891089462"><ele>59.84</ele><time>2026-04-20T07:39:46Z</time></trkpt><trkpt lat="59.0822727419" lon="29.9892127141"><ele>59.22</ele><time>2026-04-20T07:40:14Z</time></trkpt><trkpt lat="59.0821929462" lon="29.9891516101"><ele>58.45</ele><time>2026-04-20T07:40:47Z</time></trkpt><trkpt lat="59.0821005777" lon="29.9891643506"><ele>59.19</ele><time>2026-04-20T07:41:09Z</time></trkpt><trkpt lat="59.0820055269" lon="29.9891890772"><ele>58.78</ele><time>2026-04-20T07:41:26Z</time></trkpt><trkpt lat="59.0818423312" lon="29.9890264682"><ele>58.85</ele><time>2026-04-20T07:41:51Z</time></trkpt><trkpt lat="59.0816487931" lon="29.9889326748"><ele>59.27</ele><time>2026-04-20T07:42:17Z</time></trkpt><trkpt lat="59.0815724339" lon="29.9889484327"><ele>58.27</ele><time>2026-04-20T07:42:23Z</time></trkpt><trkpt lat="59.0813886188" lon="29.9889286514"><ele>58.07</ele><time>2026-04-20T07:42:39Z</time></trkpt><trkpt lat="59.0812747087" lon="29.9888312537"><ele>57.25</ele><time>2026-04-20T07:42:55Z</time></trkpt><trkpt lat="59.0812600404" lon="29.9887895118"><ele>56.78</ele><time>2026-04-20T07:43:17Z</time></trkpt><trkpt lat="59.0813130140" lon="29.9887668807"><ele>56.56</ele><time>2026-04-20T07:43:42Z</time></trkpt><trkpt lat="59.0813177079" lon="29.9887923617"><ele>56.91</ele><time>2026-04-20T07:44:15Z</time></trkpt><trkpt lat="59.0812911373" lon="29.9890050944"><ele>56.43</ele><time>2026-04-20T07:44:33Z</time></trkpt><trkpt lat="59.0812275186" lon="29.9892482534"><ele>57.27</ele><time>2026-04-20T07:44:51Z</time></trkpt><trkpt lat="59.0812224895" lon="29.9894656800"><ele>56.31</ele><time>2026-04-20T07:45:09Z</time></trkpt><trkpt lat="59.0812147781" lon="29.9896148778"><ele>55.84</ele><time>2026-04-20T07:45:16Z</time></trkpt><trkpt lat="59.0812064800" lon="29.9896914884"><ele>57.00</ele><time>2026-04-20T07:45:20Z</time></trkpt><trkpt lat="59.0811710246" lon="29.9899280258"><ele>55.51</ele><time>2026-04-20T07:45:35Z</time></trkpt><trkpt lat="59.0811715275" lon="29.9900160357"><ele>55.39</ele><time>2026-04-20T07:45:40Z</time></trkpt><trkpt lat="59.0811571106" lon="29.9902817421"><ele>55.91</ele><time>2026-04-20T07:45:55Z</time></trkpt><trkpt lat="59.0811729524" lon="29.9903935567"><ele>55.72</ele><time>2026-04-20T07:46:10Z</time></trkpt><trkpt lat="59.0811974276" lon="29.9904482905"><ele>56.29</ele><time>2026-04-20T07:46:18Z</time></trkpt><trkpt lat="59.0812382475" lon="29.9906157609"><ele>55.85</ele><time>2026-04-20T07:46:39Z</time></trkpt><trkpt lat="59.0812823363" lon="29.9907153379"><ele>55.76</ele><time>2026-04-20T07:46:50Z</time></trkpt><trkpt lat="59.0812949929" lon="29.9908327684"><ele>54.65</ele><time>2026-04-20T07:46:58Z</time></trkpt><trkpt lat="59.0812730324" lon="29.9911539629"><ele>55.94</ele><time>2026-04-20T07:47:20Z</time></trkpt><trkpt lat="59.0812666621" lon="29.9913014844"><ele>55.11</ele><time>2026-04-20T07:47:39Z</time></trkpt><trkpt lat="59.0811836813" lon="29.9915250298"><ele>55.96</ele><time>2026-04-20T07:48:00Z</time></trkpt><trkpt lat="59.0811583679" lon="29.9917275365"><ele>56.42</ele><time>2026-04-20T07:48:19Z</time></trkpt><trkpt lat="59.0812210646" lon="29.9917971063"><ele>55.38</ele><time>2026-04-20T07:48:44Z</time></trkpt><trkpt lat="59.0812175442" lon="29.9917812645"><ele>55.58</ele><time>2026-04-20T07:49:01Z</time></trkpt><trkpt lat="59.0810849424" lon="29.9918887205"><ele>56.81</ele><time>2026-04-20T07:49:31Z</time></trkpt><trkpt lat="59.0810852777" lon="29.9920121860"><ele>57.37</ele><time>2026-04-20T07:49:50Z</time></trkpt><trkpt lat="59.0810959227" lon="29.9920243397"><ele>56.75</ele><time>2026-04-20T07:50:16Z</time></trkpt><trkpt lat="59.0811224934" lon="29.9921675865"><ele>57.56</ele><time>2026-04-20T07:50:37Z</time></trkpt><trkpt lat="59.0811833460" lon="29.9924011063"><ele>57.45</ele><time>2026-04-20T07:51:02Z</time></trkpt><trkpt lat="59.0812212322" lon="29.9924314488"><ele>57.69</ele><time>2026-04-20T07:51:15Z</time></trkpt><trkpt lat="59.0812657401" lon="29.9924301077"><ele>57.57</ele><time>2026-04-20T07:51:23Z</time></trkpt><trkpt lat="59.0813229885" lon="29.9923761282"><ele>57.22</ele><time>2026-04-20T07:51:44Z</time></trkpt><trkpt lat="59.0813222341" lon="29.9923328776"><ele>57.58</ele><time>2026-04-20T07:51:50Z</time></trkpt><trkpt lat="59.0813225694" lon="29.9923634715"><ele>58.34</ele><time>2026-04-20T07:52:10Z</time></trkpt><trkpt lat="59.0812185500" lon="29.9925917108"><ele>56.93</ele><time>2026-04-20T07:52:27Z</time></trkpt><trkpt lat="59.0812392533" lon="29.9929278251"><ele>58.04</ele><time>2026-04-20T07:52:49Z</time></trkpt><trkpt lat="59.0812876169" lon="29.9932638556"><ele>58.73</ele><time>2026-04-20T07:53:10Z</time></trkpt><trkpt lat="59.0813183784" lon="29.9935397878"><ele>57.48</ele><time>2026-04-20T07:53:30Z</time></trkpt><trkpt lat="59.0813171212" lon="29.9936338328"><ele>58.28</ele><time>2026-04-20T07:53:35Z</time></trkpt><trkpt lat="59.0813541692" lon="29.9939160515"><ele>58.60</ele><time>2026-04-20T07:53:55Z</time></trkpt><trkpt lat="59.0814032033" lon="29.9941542652"><ele>59.21</ele><time>2026-04-20T07:54:14Z</time></trkpt><trkpt lat="59.0814189613" lon="29.9941770639"><ele>58.79</ele><time>2026-04-20T07:54:18Z</time></trkpt><trkpt lat="59.0814524051" lon="29.9942115974"><ele>58.94</ele><time>2026-04-20T07:54:51Z</time></trkpt><trkpt lat="59.0815047082" lon="29.9943666626"><ele>59.20</ele><time>2026-04-20T07:55:37Z</time></trkpt><trkpt lat="59.0815396607" lon="29.9945553392"><ele>59.72</ele><time>2026-04-20T07:56:03Z</time></trkpt><trkpt lat="59.0815622918" lon="29.9946275074"><ele>59.64</ele><time>2026-04-20T07:56:13Z</time></trkpt><trkpt lat="59.0815549996" lon="29.9948376417"><ele>60.36</ele><time>2026-04-20T07:56:34Z</time></trkpt><trkpt lat="59.0815177839" lon="29.9950336106"><ele>59.35</ele><time>2026-04-20T07:56:48Z</time></trkpt><trkpt lat="59.0814653970" lon="29.9953062739"><ele>60.61</ele><time>2026-04-20T07:57:08Z</time></trkpt><trkpt lat="59.0813631378" lon="29.9953551404"><ele>60.65</ele><time>2026-04-20T07:57:24Z</time></trkpt><trkpt lat="59.0812653210" lon="29.9954026658"><ele>60.55</ele><time>2026-04-20T07:57:43Z</time></trkpt><trkpt lat="59.0811512433" lon="29.9954151548"><ele>60.56</ele><time>2026-04-20T07:58:01Z</time></trkpt><trkpt lat="59.0810490679" lon="29.9953706469"><ele>60.15</ele><time>2026-04-20T07:58:17Z</time></trkpt><trkpt lat="59.0809516702" lon="29.9954482634"><ele>59.91</ele><time>2026-04-20T07:58:33Z</time></trkpt><trkpt lat="59.0809150413" lon="29.9955509417"><ele>60.70</ele><time>2026-04-20T07:58:49Z</time></trkpt><trkpt lat="59.0809181426" lon="29.9957123771"><ele>60.90</ele><time>2026-04-20T07:59:09Z</time></trkpt><trkpt lat="59.0809123591" lon="29.9960340746"><ele>62.76</ele><time>2026-04-20T07:59:29Z</time></trkpt><trkpt lat="59.0809061565" lon="29.9961309694"><ele>61.76</ele><time>2026-04-20T07:59:44Z</time></trkpt><trkpt lat="59.0808966849" lon="29.9961835239"><ele>61.79</ele><time>2026-04-20T08:00:15Z</time></trkpt><trkpt lat="59.0809090901" lon="29.9961833563"><ele>61.40</ele><time>2026-04-20T08:00:46Z</time></trkpt><trkpt lat="59.0808705334" lon="29.9962043110"><ele>61.98</ele><time>2026-04-20T08:01:13Z</time></trkpt><trkpt lat="59.0808644984" lon="29.9962345697"><ele>61.89</ele><time>2026-04-20T08:01:39Z</time></trkpt><trkpt lat="59.0809418634" lon="29.9962933268"><ele>61.85</ele><time>2026-04-20T08:02:02Z</time></trkpt><trkpt lat="59.0810666699" lon="29.9962518364"><ele>63.26</ele><time>2026-04-20T08:02:19Z</time></trkpt><trkpt lat="59.0810644906" lon="29.9962556083"><ele>62.82</ele><time>2026-04-20T08:02:32Z</time></trkpt><trkpt lat="59.0808954276" lon="29.9962950032"><ele>62.09</ele><time>2026-04-20T08:02:52Z</time></trkpt><trkpt lat="59.0807958506" lon="29.9962865375"><ele>62.77</ele><time>2026-04-20T08:03:07Z</time></trkpt><trkpt lat="59.0806909092" lon="29.9962716177"><ele>62.32</ele><time>2026-04-20T08:03:31Z</time></trkpt><trkpt lat="59.0804852173" lon="29.9962932430"><ele>62.25</ele><time>2026-04-20T08:03:49Z</time></trkpt><trkpt lat="59.0803497657" lon="29.9962877110"><ele>61.45</ele><time>2026-04-20T08:04:03Z</time></trkpt><trkpt lat="59.0802806988" lon="29.9962919857"><ele>62.12</ele><time>2026-04-20T08:04:30Z</time></trkpt><trkpt lat="59.0801501926" lon="29.9962857831"><ele>61.61</ele><time>2026-04-20T08:04:51Z</time></trkpt><trkpt lat="59.0800361987" lon="29.9962463882"><ele>61.59</ele><time>2026-04-20T08:05:07Z</time></trkpt><trkpt lat="59.0800139867" lon="29.9961775728"><ele>60.55</ele><time>2026-04-20T08:05:31Z</time></trkpt><trkpt lat="59.0799289104" lon="29.9962691031"><ele>61.03</ele><time>2026-04-20T08:05:54Z</time></trkpt><trkpt lat="59.0797938779" lon="29.9963845219"><ele>60.23</ele><time>2026-04-20T08:06:13Z</time></trkpt><trkpt lat="59.0796439257" lon="29.9964227434"><ele>61.38</ele><time>2026-04-20T08:06:31Z</time></trkpt><trkpt lat="59.0795719251" lon="29.9963932391"><ele>60.55</ele><time>2026-04-20T08:06:37Z</time></trkpt><trkpt lat="59.0795121621" lon="29.9964484759"><ele>60.97</ele><time>2026-04-20T08:07:00Z</time></trkpt><trkpt lat="59.0795012657" lon="29.9964675028"><ele>60.22</ele><time>2026-04-20T08:07:25Z</time></trkpt><trkpt lat="59.0793639701" lon="29.9964997731"><ele>60.32</ele><time>2026-04-20T08:07:42Z</time></trkpt><trkpt lat="59.0792695060" lon="29.9964595400"><ele>61.23</ele><time>2026-04-20T08:08:00Z</time></trkpt><trkpt lat="59.0792645607" lon="29.9964614678"><ele>60.44</ele><time>2026-04-20T08:08:21Z</time></trkpt><trkpt lat="59.0792384092" lon="29.9964276887"><ele>59.84</ele><time>2026-04-20T08:08:53Z</time></trkpt><trkpt lat="59.0791710187" lon="29.9965179618"><ele>61.08</ele><time>2026-04-20T08:09:17Z</time></trkpt><trkpt lat="59.0792219806" lon="29.9966876954"><ele>60.49</ele><time>2026-04-20T08:09:33Z</time></trkpt><trkpt lat="59.0792982560" lon="29.9968240689"><ele>60.40</ele><time>2026-04-20T08:09:53Z</time></trkpt><trkpt lat="59.0793538280" lon="29.9969436787"><ele>61.18</ele><time>2026-04-20T08:10:10Z</time></trkpt><trkpt lat="59.0793477092" lon="29.9970558286"><ele>60.90</ele><time>2026-04-20T08:10:30Z</time></trkpt><trkpt lat="59.0793745313" lon="29.9972185213"><ele>61.76</ele><time>2026-04-20T08:10:53Z</time></trkpt><trkpt lat="59.0793710109" lon="29.9972508755"><ele>61.63</ele><time>2026-04-20T08:10:59Z</time></trkpt><trkpt lat="59.0793844219" lon="29.9973641988"><ele>61.55</ele><time>2026-04-20T08:11:19Z</time></trkpt><trkpt lat="59.0793871041" lon="29.9975270592"><ele>62.21</ele><time>2026-04-20T08:11:40Z</time></trkpt><trkpt lat="59.0793874394" lon="29.9975329265"><ele>61.81</ele><time>2026-04-20T08:11:41Z</time></trkpt><trkpt lat="59.0793691669" lon="29.9976507761"><ele>62.05</ele><time>2026-04-20T08:11:56Z</time></trkpt><trkpt lat="59.0793613717" lon="29.9977036659"><ele>62.10</ele><time>2026-04-20T08:12:04Z</time></trkpt><trkpt lat="59.0793754533" lon="29.9979951885"><ele>62.39</ele><time>2026-04-20T08:12:25Z</time></trkpt><trkpt lat="59.0793387406" lon="29.9982838612"><ele>63.38</ele><time>2026-04-20T08:12:49Z</time></trkpt><trkpt lat="59.0793171152" lon="29.9984742142"><ele>62.76</ele><time>2026-04-20T08:13:09Z</time></trkpt><trkpt lat="59.0793113317" lon="29.9985033832"><ele>63.01</ele><time>2026-04-20T08:13:12Z</time></trkpt><trkpt lat="59.0792836715" lon="29.9987199716"><ele>62.24</ele><time>2026-04-20T08:13:29Z</time></trkpt><trkpt lat="59.0792857669" lon="29.9987486377"><ele>63.55</ele><time>2026-04-20T08:13:34Z</time></trkpt><trkpt lat="59.0793620422" lon="29.9988884479"><ele>63.19</ele><time>2026-04-20T08:13:53Z</time></trkpt><trkpt lat="59.0794584341" lon="29.9990980793"><ele>63.00</ele><time>2026-04-20T08:14:13Z</time></trkpt><trkpt lat="59.0795119945" lon="29.9993367121"><ele>63.48</ele><time>2026-04-20T08:14:35Z</time></trkpt><trkpt lat="59.0795482881" lon="29.9994233809"><ele>62.97</ele><time>2026-04-20T08:14:59Z</time></trkpt><trkpt lat="59.0795625374" lon="29.9995696452"><ele>62.64</ele><time>2026-04-20T08:15:32Z</time></trkpt><trkpt lat="59.0795030259" lon="29.9997029174"><ele>61.85</ele><time>2026-04-20T08:16:00Z</time></trkpt><trkpt lat="59.0795096476" lon="29.9997103773"><ele>62.31</ele><time>2026-04-20T08:16:30Z</time></trkpt><trkpt lat="59.0795707516" lon="29.9995644484"><ele>63.90</ele><time>2026-04-20T08:16:49Z</time></trkpt><trkpt lat="59.0795995016" lon="29.9995347764"><ele>63.28</ele><time>2026-04-20T08:17:08Z</time></trkpt><trkpt lat="59.0796443447" lon="29.9995283224"><ele>62.53</ele><time>2026-04-20T08:17:28Z</time></trkpt><trkpt lat="59.0797062032" lon="29.9994969741"><ele>63.40</ele><time>2026-04-20T08:17:39Z</time></trkpt><trkpt lat="59.0798146650" lon="29.9994821381"><ele>62.93</ele><time>2026-04-20T08:17:48Z</time></trkpt><trkpt lat="59.0798927005" lon="29.9994359538"><ele>63.50</ele><time>2026-04-20T08:18:08Z</time></trkpt><trkpt lat="59.0799393877" lon="29.9994139094"><ele>64.32</ele><time>2026-04-20T08:18:28Z</time></trkpt><trkpt lat="59.0800521243" lon="29.9993686471"><ele>64.57</ele><time>2026-04-20T08:18:47Z</time></trkpt><trkpt lat="59.0801195987" lon="29.9993370473"><ele>64.23</ele><time>2026-04-20T08:19:08Z</time></trkpt><trkpt lat="59.0802097041" lon="29.9993061181"><ele>65.36</ele><time>2026-04-20T08:19:30Z</time></trkpt><trkpt lat="59.0802810341" lon="29.9992564972"><ele>64.91</ele><time>2026-04-20T08:19:48Z</time></trkpt><trkpt lat="59.0803516936" lon="29.9992118217"><ele>65.31</ele><time>2026-04-20T08:20:09Z</time></trkpt><trkpt lat="59.0804601554" lon="29.9991905317"><ele>65.29</ele><time>2026-04-20T08:20:31Z</time></trkpt><trkpt lat="59.0805591457" lon="29.9991554953"><ele>65.85</ele><time>2026-04-20T08:20:51Z</time></trkpt><trkpt lat="59.0805666894" lon="29.9991523940"><ele>65.83</ele><time>2026-04-20T08:20:52Z</time></trkpt><trkpt lat="59.0805868898" lon="29.9991361331"><ele>66.29</ele><time>2026-04-20T08:20:55Z</time></trkpt><trkpt lat="59.0807284601" lon="29.9990461115"><ele>66.35</ele><time>2026-04-20T08:21:18Z</time></trkpt><trkpt lat="59.0808313899" lon="29.9990031961"><ele>66.12</ele><time>2026-04-20T08:21:40Z</time></trkpt><trkpt lat="59.0808406938" lon="29.9990070518"><ele>66.16</ele><time>2026-04-20T08:21:42Z</time></trkpt><trkpt lat="59.0808734670" lon="29.9990043696"><ele>66.54</ele><time>2026-04-20T08:21:46Z</time></trkpt><trkpt lat="59.0809157118" lon="29.9989641365"><ele>66.23</ele><time>2026-04-20T08:21:54Z</time></trkpt><trkpt lat="59.0809546039" lon="29.9989472888"><ele>66.93</ele><time>2026-04-20T08:22:03Z</time></trkpt><trkpt lat="59.0810791589" lon="29.9989358056"><ele>66.45</ele><time>2026-04-20T08:22:25Z</time></trkpt><trkpt lat="59.0811081603" lon="29.9989092350"><ele>66.72</ele><time>2026-04-20T08:22:36Z</time></trkpt><trkpt lat="59.0811732877" lon="29.9988079816"><ele>66.94</ele><time>2026-04-20T08:22:52Z</time></trkpt><trkpt lat="59.0813033748" lon="29.9989363924"><ele>65.99</ele><time>2026-04-20T08:23:16Z</time></trkpt><trkpt lat="59.0814076457" lon="29.9989881925"><ele>67.10</ele><time>2026-04-20T08:23:34Z</time></trkpt><trkpt lat="59.0814073943" lon="29.9989995919"><ele>67.00</ele><time>2026-04-20T08:23:35Z</time></trkpt><trkpt lat="59.0814337973" lon="29.9990269169"><ele>66.61</ele><time>2026-04-20T08:23:41Z</time></trkpt><trkpt lat="59.0814643912" lon="29.9990558345"><ele>65.71</ele><time>2026-04-20T08:23:48Z</time></trkpt><trkpt lat="59.0814438555" lon="29.9990845844"><ele>67.47</ele><time>2026-04-20T08:24:13Z</time></trkpt><trkpt lat="59.0814993437" lon="29.9990799744"><ele>67.34</ele><time>2026-04-20T08:24:44Z</time></trkpt><trkpt lat="59.0815097373" lon="29.9990947265"><ele>67.97</ele><time>2026-04-20T08:25:00Z</time></trkpt><trkpt lat="59.0815352183" lon="29.9989155214"><ele>68.11</ele><time>2026-04-20T08:25:19Z</time></trkpt><trkpt lat="59.0816372260" lon="29.9987803213"><ele>68.40</ele><time>2026-04-20T08:25:40Z</time></trkpt><trkpt lat="59.0816444345" lon="29.9987687543"><ele>68.40</ele><time>2026-04-20T08:25:41Z</time></trkpt><trkpt lat="59.0816880204" lon="29.9985460471"><ele>69.15</ele><time>2026-04-20T08:26:04Z</time></trkpt><trkpt lat="59.0817612782" lon="29.9983995315"><ele>69.32</ele><time>2026-04-20T08:26:23Z</time></trkpt><trkpt lat="59.0818817262" lon="29.9983786605"><ele>69.68</ele><time>2026-04-20T08:26:50Z</time></trkpt><trkpt lat="59.0818507131" lon="29.9983840249"><ele>68.78</ele><time>2026-04-20T08:27:22Z</time></trkpt><trkpt lat="59.0818452649" lon="29.9983246811"><ele>69.53</ele><time>2026-04-20T08:27:50Z</time></trkpt><trkpt lat="59.0819110628" lon="29.9982441310"><ele>70.62</ele><time>2026-04-20T08:28:13Z</time></trkpt><trkpt lat="59.0819181036" lon="29.9982449692"><ele>70.78</ele><time>2026-04-20T08:28:15Z</time></trkpt><trkpt lat="59.0819750167" lon="29.9982201587"><ele>70.89</ele><time>2026-04-20T08:28:29Z</time></trkpt><trkpt lat="59.0819927026" lon="29.9981884751"><ele>70.95</ele><time>2026-04-20T08:28:32Z</time></trkpt><trkpt lat="59.0820035152" lon="29.9980609864"><ele>70.57</ele><time>2026-04-20T08:29:00Z</time></trkpt><trkpt lat="59.0819964744" lon="29.9979355093"><ele>71.38</ele><time>2026-04-20T08:29:31Z</time></trkpt><trkpt lat="59.0820291638" lon="29.9979934283"><ele>70.64</ele><time>2026-04-20T08:29:42Z</time></trkpt><trkpt lat="59.0819249768" lon="29.9981703702"><ele>70.66</ele><time>2026-04-20T08:30:05Z</time></trkpt><trkpt lat="59.0818917006" lon="29.9982181471"><ele>71.27</ele><time>2026-04-20T08:30:33Z</time></trkpt><trkpt lat="59.0818483662" lon="29.9982854538"><ele>68.87</ele><time>2026-04-20T08:30:41Z</time></trkpt><trkpt lat="59.0818451811" lon="29.9984679278"><ele>71.09</ele><time>2026-04-20T08:30:50Z</time></trkpt><trkpt lat="59.0817860886" lon="29.9985781498"><ele>70.82</ele><time>2026-04-20T08:31:05Z</time></trkpt><trkpt lat="59.0817375574" lon="29.9986580294"><ele>71.78</ele><time>2026-04-20T08:31:12Z</time></trkpt><trkpt lat="59.0815883595" lon="29.9988084007"><ele>70.64</ele><time>2026-04-20T08:31:34Z</time></trkpt><trkpt lat="59.0815005172" lon="29.9990819022"><ele>71.33</ele><time>2026-04-20T08:31:57Z</time></trkpt><trkpt lat="59.0814626310" lon="29.9992479477"><ele>70.83</ele><time>2026-04-20T08:32:17Z</time></trkpt><trkpt lat="59.0814662352" lon="29.9994844850"><ele>70.50</ele><time>2026-04-20T08:32:35Z</time></trkpt><trkpt lat="59.0814472921" lon="29.9997891672"><ele>70.32</ele><time>2026-04-20T08:32:57Z</time></trkpt><trkpt lat="59.0814591106" lon="30.0000576396"><ele>70.75</ele><time>2026-04-20T08:33:19Z</time></trkpt><trkpt lat="59.0814430173" lon="30.0002342463"><ele>70.45</ele><time>2026-04-20T08:33:39Z</time></trkpt><trkpt lat="59.0814328752" lon="30.0002959371"><ele>69.16</ele><time>2026-04-20T08:33:48Z</time></trkpt><trkpt lat="59.0813340526" lon="30.0004819315"><ele>70.16</ele><time>2026-04-20T08:34:19Z</time></trkpt><trkpt lat="59.0813474637" lon="30.0004730467"><ele>69.41</ele><time>2026-04-20T08:34:50Z</time></trkpt><trkpt lat="59.0813324600" lon="30.0004137866"><ele>70.36</ele><time>2026-04-20T08:35:11Z</time></trkpt><trkpt lat="59.0812341403" lon="30.0004265271"><ele>70.09</ele><time>2026-04-20T08:35:33Z</time></trkpt><trkpt lat="59.0812207293" lon="30.0004257727"><ele>70.33</ele><time>2026-04-20T08:35:35Z</time></trkpt><trkpt lat="59.0811160393" lon="30.0003920775"><ele>69.80</ele><time>2026-04-20T08:35:51Z</time></trkpt><trkpt lat="59.0809976868" lon="30.0003400259"><ele>70.35</ele><time>2026-04-20T08:36:14Z</time></trkpt><trkpt lat="59.0809038095" lon="30.0003035646"><ele>70.10</ele><time>2026-04-20T08:36:32Z</time></trkpt><trkpt lat="59.0808316413" lon="30.0004145410"><ele>69.46</ele><time>2026-04-20T08:36:56Z</time></trkpt><trkpt lat="59.0807654243" lon="30.0005562790"><ele>69.78</ele><time>2026-04-20T08:37:12Z</time></trkpt><trkpt lat="59.0806645900" lon="30.0006121024"><ele>70.72</ele><time>2026-04-20T08:37:30Z</time></trkpt><trkpt lat="59.0805525240" lon="30.0007532537"><ele>70.32</ele><time>2026-04-20T08:37:51Z</time></trkpt><trkpt lat="59.0804718900" lon="30.0007464644"><ele>70.79</ele><time>2026-04-20T08:38:10Z</time></trkpt><trkpt lat="59.0803374443" lon="30.0007908046"><ele>70.04</ele><time>2026-04-20T08:38:32Z</time></trkpt><trkpt lat="59.0802219417" lon="30.0008286070"><ele>69.71</ele><time>2026-04-20T08:38:54Z</time></trkpt><trkpt lat="59.0801879112" lon="30.0008602068"><ele>69.83</ele><time>2026-04-20T08:38:58Z</time></trkpt><trkpt lat="59.0800927766" lon="30.0009104144"><ele>71.22</ele><time>2026-04-20T08:39:20Z</time></trkpt><trkpt lat="59.0799318440" lon="30.0010068063"><ele>70.86</ele><time>2026-04-20T08:39:42Z</time></trkpt><trkpt lat="59.0797575004" lon="30.0010799803"><ele>72.09</ele><time>2026-04-20T08:40:07Z</time></trkpt><trkpt lat="59.0796699096" lon="30.0011306908"><ele>70.91</ele><time>2026-04-20T08:40:34Z</time></trkpt><trkpt lat="59.0796326101" lon="30.0011632964"><ele>70.69</ele><time>2026-04-20T08:40:52Z</time></trkpt><trkpt lat="59.0795838274" lon="30.0011937227"><ele>72.46</ele><time>2026-04-20T08:41:29Z</time></trkpt><trkpt lat="59.0796456859" lon="30.0012600236"><ele>72.39</ele><time>2026-04-20T08:41:55Z</time></trkpt><trkpt lat="59.0797409881" lon="30.0013119914"><ele>72.81</ele><time>2026-04-20T08:42:14Z</time></trkpt><trkpt lat="59.0798719134" lon="30.0014567468"><ele>72.01</ele><time>2026-04-20T08:42:33Z</time></trkpt><trkpt lat="59.0799467638" lon="30.0015654601"><ele>71.97</ele><time>2026-04-20T08:42:49Z</time></trkpt><trkpt lat="59.0799859073" lon="30.0016189367"><ele>71.82</ele><time>2026-04-20T08:43:03Z</time></trkpt><trkpt lat="59.0799551457" lon="30.0017997343"><ele>71.78</ele><time>2026-04-20T08:43:18Z</time></trkpt><trkpt lat="59.0798783675" lon="30.0021086074"><ele>71.49</ele><time>2026-04-20T08:43:42Z</time></trkpt><trkpt lat="59.0799005795" lon="30.0024220906"><ele>71.90</ele><time>2026-04-20T08:44:03Z</time></trkpt><trkpt lat="59.0799828060" lon="30.0025867112"><ele>72.62</ele><time>2026-04-20T08:44:23Z</time></trkpt><trkpt lat="59.0800249670" lon="30.0026663393"><ele>71.94</ele><time>2026-04-20T08:44:47Z</time></trkpt><trkpt lat="59.0801066905" lon="30.0027259346"><ele>71.90</ele><time>2026-04-20T08:45:17Z</time></trkpt><trkpt lat="59.0800934471" lon="30.0027499069"><ele>72.14</ele><time>2026-04-20T08:45:43Z</time></trkpt><trkpt lat="59.0800600871" lon="30.0026272796"><ele>72.26</ele><time>2026-04-20T08:46:06Z</time></trkpt><trkpt lat="59.0800971352" lon="30.0025184825"><ele>71.33</ele><time>2026-04-20T08:46:22Z</time></trkpt><trkpt lat="59.0801926050" lon="30.0023635011"><ele>73.55</ele><time>2026-04-20T08:46:38Z</time></trkpt><trkpt lat="59.0802839678" lon="30.0022372697"><ele>73.01</ele><time>2026-04-20T08:46:59Z</time></trkpt><trkpt lat="59.0803037491" lon="30.0022185780"><ele>72.72</ele><time>2026-04-20T08:47:23Z</time></trkpt><trkpt lat="59.0804506838" lon="30.0021595694"><ele>72.73</ele><time>2026-04-20T08:47:43Z</time></trkpt><trkpt lat="59.0805870574" lon="30.0021796860"><ele>71.88</ele><time>2026-04-20T08:48:03Z</time></trkpt><trkpt lat="59.0806423780" lon="30.0021542888"><ele>73.37</ele><time>2026-04-20T08:48:12Z</time></trkpt><trkpt lat="59.0806806833" lon="30.0021319930"><ele>72.09</ele><time>2026-04-20T08:48:19Z</time></trkpt><trkpt lat="59.0808114409" lon="30.0019882433"><ele>73.24</ele><time>2026-04-20T08:48:41Z</time></trkpt><trkpt lat="59.0809007082" lon="30.0019874051"><ele>73.16</ele><time>2026-04-20T08:48:58Z</time></trkpt><trkpt lat="59.0809298772" lon="30.0020179152"><ele>72.99</ele><time>2026-04-20T08:49:05Z</time></trkpt><trkpt lat="59.0809157118" lon="30.0020532869"><ele>72.30</ele><time>2026-04-20T08:49:17Z</time></trkpt><trkpt lat="59.0809447132" lon="30.0019242056"><ele>72.61</ele><time>2026-04-20T08:49:46Z</time></trkpt><trkpt lat="59.0810757224" lon="30.0019086152"><ele>72.81</ele><time>2026-04-20T08:50:11Z</time></trkpt><trkpt lat="59.0811771434" lon="30.0019307435"><ele>72.35</ele><time>2026-04-20T08:50:33Z</time></trkpt><trkpt lat="59.0812674165" lon="30.0019514468"><ele>72.63</ele><time>2026-04-20T08:50:55Z</time></trkpt><trkpt lat="59.0812690929" lon="30.0019937754"><ele>72.73</ele><time>2026-04-20T08:51:07Z</time></trkpt><trkpt lat="59.0813612100" lon="30.0021295622"><ele>72.33</ele><time>2026-04-20T08:51:28Z</time></trkpt><trkpt lat="59.0814327076" lon="30.0023014750"><ele>72.35</ele><time>2026-04-20T08:51:53Z</time></trkpt><trkpt lat="59.0814394969" lon="30.0023261178"><ele>72.07</ele><time>2026-04-20T08:51:57Z</time></trkpt><trkpt lat="59.0814878605" lon="30.0022997987"><ele>72.11</ele><time>2026-04-20T08:52:12Z</time></trkpt><trkpt lat="59.0815864317" lon="30.0021552108"><ele>72.50</ele><time>2026-04-20T08:52:27Z</time></trkpt><trkpt lat="59.0816497989" lon="30.0020418037"><ele>72.24</ele><time>2026-04-20T08:52:47Z</time></trkpt><trkpt lat="59.0816913731" lon="30.0018968806"><ele>71.68</ele><time>2026-04-20T08:53:02Z</time></trkpt><trkpt lat="59.0817306843" lon="30.0016945414"><ele>70.78</ele><time>2026-04-20T08:53:28Z</time></trkpt><trkpt lat="59.0817574225" lon="30.0016115606"><ele>70.05</ele><time>2026-04-20T08:53:58Z</time></trkpt><trkpt lat="59.0817601047" lon="30.0016022567"><ele>71.06</ele><time>2026-04-20T08:54:03Z</time></trkpt><trkpt lat="59.0818212926" lon="30.0017755106"><ele>69.47</ele><time>2026-04-20T08:54:28Z</time></trkpt><trkpt lat="59.0818272438" lon="30.0017915200"><ele>69.47</ele><time>2026-04-20T08:54:29Z</time></trkpt><trkpt lat="59.0818313509" lon="30.0018660352"><ele>71.09</ele><time>2026-04-20T08:54:34Z</time></trkpt><trkpt lat="59.0818253160" lon="30.0020268839"><ele>70.26</ele><time>2026-04-20T08:54:45Z</time></trkpt><trkpt lat="59.0818731766" lon="30.0022571348"><ele>70.62</ele><time>2026-04-20T08:55:03Z</time></trkpt><trkpt lat="59.0818771999" lon="30.0022762455"><ele>70.58</ele><time>2026-04-20T08:55:05Z</time></trkpt><trkpt lat="59.0818718355" lon="30.0023412891"><ele>71.03</ele><time>2026-04-20T08:55:10Z</time></trkpt><trkpt lat="59.0817978233" lon="30.0025907345"><ele>71.57</ele><time>2026-04-20T08:55:29Z</time></trkpt><trkpt lat="59.0817832388" lon="30.0027185585"><ele>70.90</ele><time>2026-04-20T08:55:38Z</time></trkpt><trkpt lat="59.0817942191" lon="30.0029534195"><ele>71.60</ele><time>2026-04-20T08:55:57Z</time></trkpt><trkpt lat="59.0818198677" lon="30.0031554233"><ele>71.35</ele><time>2026-04-20T08:56:17Z</time></trkpt><trkpt lat="59.0817740187" lon="30.0032469537"><ele>70.85</ele><time>2026-04-20T08:57:16Z</time></trkpt><trkpt lat="59.0817664750" lon="30.0032925513"><ele>71.12</ele><time>2026-04-20T08:57:20Z</time></trkpt><trkpt lat="59.0817008447" lon="30.0032704230"><ele>72.03</ele><time>2026-04-20T08:57:38Z</time></trkpt><trkpt lat="59.0816684905" lon="30.0032866001"><ele>71.93</ele><time>2026-04-20T08:57:43Z</time></trkpt><trkpt lat="59.0815248247" lon="30.0033411663"><ele>71.74</ele><time>2026-04-20T08:58:03Z</time></trkpt><trkpt lat="59.0813278500" lon="30.0033668149"><ele>71.92</ele><time>2026-04-20T08:58:26Z</time></trkpt><trkpt lat="59.0811892133" lon="30.0034007616"><ele>71.05</ele><time>2026-04-20T08:58:49Z</time></trkpt><trkpt lat="59.0811764728" lon="30.0034149271"><ele>71.69</ele><time>2026-04-20T08:58:51Z</time></trkpt><trkpt lat="59.0811445378" lon="30.0034259912"><ele>71.26</ele><time>2026-04-20T08:58:54Z</time></trkpt><trkpt lat="59.0811038855" lon="30.0034256559"><ele>71.41</ele><time>2026-04-20T08:58:59Z</time></trkpt><trkpt lat="59.0809831861" lon="30.0035197008"><ele>70.19</ele><time>2026-04-20T08:59:16Z</time></trkpt><trkpt lat="59.0808661748" lon="30.0035703275"><ele>71.01</ele><time>2026-04-20T08:59:38Z</time></trkpt><trkpt lat="59.0808165539" lon="30.0037203636"><ele>71.45</ele><time>2026-04-20T09:00:00Z</time></trkpt><trkpt lat="59.0807360038" lon="30.0038434938"><ele>71.24</ele><time>2026-04-20T09:00:16Z</time></trkpt><trkpt lat="59.0806666017" lon="30.0039434899"><ele>71.70</ele><time>2026-04-20T09:00:34Z</time></trkpt><trkpt lat="59.0806543641" lon="30.0039789453"><ele>71.86</ele><time>2026-04-20T09:00:38Z</time></trkpt><trkpt lat="59.0806461498" lon="30.0039844774"><ele>70.09</ele><time>2026-04-20T09:00:59Z</time></trkpt><trkpt lat="59.0805557091" lon="30.0040480960"><ele>70.78</ele><time>2026-04-20T09:01:16Z</time></trkpt><trkpt lat="59.0804029070" lon="30.0041585695"><ele>72.49</ele><time>2026-04-20T09:01:37Z</time></trkpt><trkpt lat="59.0802577324" lon="30.0043423008"><ele>73.82</ele><time>2026-04-20T09:01:56Z</time></trkpt><trkpt lat="59.0802508593" lon="30.0043472461"><ele>73.59</ele><time>2026-04-20T09:01:57Z</time></trkpt><trkpt lat="59.0801941138" lon="30.0044521876"><ele>72.29</ele><time>2026-04-20T09:02:15Z</time></trkpt><trkpt lat="59.0800758451" lon="30.0045350008"><ele>71.89</ele><time>2026-04-20T09:02:44Z</time></trkpt><trkpt lat="59.0801003203" lon="30.0045417901"><ele>70.83</ele><time>2026-04-20T09:03:13Z</time></trkpt><trkpt lat="59.0801364463" lon="30.0045014732"><ele>71.18</ele><time>2026-04-20T09:03:43Z</time></trkpt><trkpt lat="59.0801425651" lon="30.0045004673"><ele>71.12</ele><time>2026-04-20T09:04:11Z</time></trkpt><trkpt lat="59.0801101271" lon="30.0045036525"><ele>70.69</ele><time>2026-04-20T09:04:34Z</time></trkpt><trkpt lat="59.0801245440" lon="30.0045396108"><ele>69.86</ele><time>2026-04-20T09:04:44Z</time></trkpt><trkpt lat="59.0802213550" lon="30.0047965162"><ele>70.98</ele><time>2026-04-20T09:05:06Z</time></trkpt><trkpt lat="59.0801765956" lon="30.0050063990"><ele>70.92</ele><time>2026-04-20T09:05:23Z</time></trkpt><trkpt lat="59.0801489353" lon="30.0052525755"><ele>70.89</ele><time>2026-04-20T09:05:42Z</time></trkpt><trkpt lat="59.0801608376" lon="30.0055402424"><ele>70.55</ele><time>2026-04-20T09:06:02Z</time></trkpt><trkpt lat="59.0801406372" lon="30.0057403184"><ele>71.30</ele><time>2026-04-20T09:06:20Z</time></trkpt><trkpt lat="59.0800983086" lon="30.0058106426"><ele>70.27</ele><time>2026-04-20T09:06:40Z</time></trkpt><trkpt lat="59.0801044274" lon="30.0058127381"><ele>69.64</ele><time>2026-04-20T09:07:10Z</time></trkpt><trkpt lat="59.0802098718" lon="30.0057880115"><ele>70.83</ele><time>2026-04-20T09:07:32Z</time></trkpt><trkpt lat="59.0803428926" lon="30.0057753548"><ele>70.35</ele><time>2026-04-20T09:07:49Z</time></trkpt><trkpt lat="59.0804252867" lon="30.0056535657"><ele>70.41</ele><time>2026-04-20T09:08:05Z</time></trkpt><trkpt lat="59.0805179905" lon="30.0055834092"><ele>70.04</ele><time>2026-04-20T09:08:20Z</time></trkpt><trkpt lat="59.0805924218" lon="30.0054530706"><ele>70.43</ele><time>2026-04-20T09:08:36Z</time></trkpt><trkpt lat="59.0806979500" lon="30.0053432677"><ele>69.69</ele><time>2026-04-20T09:08:56Z</time></trkpt><trkpt lat="59.0807076730" lon="30.0053280964"><ele>70.51</ele><time>2026-04-20T09:08:58Z</time></trkpt><trkpt lat="59.0807668492" lon="30.0052525755"><ele>70.06</ele><time>2026-04-20T09:09:17Z</time></trkpt><trkpt lat="59.0808213316" lon="30.0051072333"><ele>69.03</ele><time>2026-04-20T09:09:34Z</time></trkpt><trkpt lat="59.0809719544" lon="30.0050376635"><ele>68.75</ele><time>2026-04-20T09:09:57Z</time></trkpt><trkpt lat="59.0810629819" lon="30.0049774814"><ele>69.01</ele><time>2026-04-20T09:10:14Z</time></trkpt><trkpt lat="59.0811737068" lon="30.0049293693"><ele>69.76</ele><time>2026-04-20T09:10:35Z</time></trkpt><trkpt lat="59.0812747926" lon="30.0048733782"><ele>69.13</ele><time>2026-04-20T09:10:53Z</time></trkpt><trkpt lat="59.0813296940" lon="30.0048617274"><ele>68.75</ele><time>2026-04-20T09:11:10Z</time></trkpt><trkpt lat="59.0813837573" lon="30.0049514137"><ele>68.31</ele><time>2026-04-20T09:11:30Z</time></trkpt><trkpt lat="59.0814576857" lon="30.0051467121"><ele>69.44</ele><time>2026-04-20T09:11:43Z</time></trkpt><trkpt lat="59.0815413371" lon="30.0050833449"><ele>68.57</ele><time>2026-04-20T09:12:01Z</time></trkpt><trkpt lat="59.0815939754" lon="30.0050192233"><ele>68.58</ele><time>2026-04-20T09:12:26Z</time></trkpt><trkpt lat="59.0816543251" lon="30.0049851090"><ele>68.62</ele><time>2026-04-20T09:12:47Z</time></trkpt><trkpt lat="59.0817256551" lon="30.0048856158"><ele>68.40</ele><time>2026-04-20T09:13:12Z</time></trkpt><trkpt lat="59.0818015113" lon="30.0048668403"><ele>67.84</ele><time>2026-04-20T09:13:30Z</time></trkpt><trkpt lat="59.0819300897" lon="30.0048928242"><ele>68.51</ele><time>2026-04-20T09:13:48Z</time></trkpt><trkpt lat="59.0820300858" lon="30.0048272777"><ele>68.82</ele><time>2026-04-20T09:14:06Z</time></trkpt><trkpt lat="59.0820522141" lon="30.0048474781"><ele>67.84</ele><time>2026-04-20T09:14:33Z</time></trkpt><trkpt lat="59.0820356179" lon="30.0049115159"><ele>67.20</ele><time>2026-04-20T09:15:04Z</time></trkpt><trkpt lat="59.0820495319" lon="30.0050063990"><ele>69.12</ele><time>2026-04-20T09:15:29Z</time></trkpt><trkpt lat="59.0820601769" lon="30.0050717779"><ele>65.11</ele><time>2026-04-20T09:15:38Z</time></trkpt><trkpt lat="59.0820648707" lon="30.0050980970"><ele>65.11</ele><time>2026-04-20T09:15:39Z</time></trkpt><trkpt lat="59.0820772760" lon="30.0051455386"><ele>68.52</ele><time>2026-04-20T09:15:43Z</time></trkpt><trkpt lat="59.0820785332" lon="30.0051580276"><ele>68.34</ele><time>2026-04-20T09:15:44Z</time></trkpt><trkpt lat="59.0821626876" lon="30.0053310301"><ele>68.96</ele><time>2026-04-20T09:16:04Z</time></trkpt><trkpt lat="59.0822036751" lon="30.0054171961"><ele>68.68</ele><time>2026-04-20T09:16:24Z</time></trkpt><trkpt lat="59.0821443312" lon="30.0056189485"><ele>68.34</ele><time>2026-04-20T09:16:45Z</time></trkpt><trkpt lat="59.0821248852" lon="30.0056628697"><ele>68.24</ele><time>2026-04-20T09:16:51Z</time></trkpt><trkpt lat="59.0820439998" lon="30.0058155879"><ele>68.65</ele><time>2026-04-20T09:17:09Z</time></trkpt><trkpt lat="59.0820099693" lon="30.0060632732"><ele>68.30</ele><time>2026-04-20T09:17:30Z</time></trkpt><trkpt lat="59.0820931178" lon="30.0061336812"><ele>68.61</ele><time>2026-04-20T09:17:51Z</time></trkpt><trkpt lat="59.0821071155" lon="30.0061688013"><ele>67.47</ele><time>2026-04-20T09:17:55Z</time></trkpt><trkpt lat="59.0822025854" lon="30.0063118804"><ele>67.67</ele><time>2026-04-20T09:18:16Z</time></trkpt><trkpt lat="59.0823211055" lon="30.0064151455"><ele>67.90</ele><time>2026-04-20T09:18:36Z</time></trkpt><trkpt lat="59.0823672898" lon="30.0064906664"><ele>68.09</ele><time>2026-04-20T09:18:53Z</time></trkpt><trkpt lat="59.0823612548" lon="30.0066972803"><ele>67.51</ele><time>2026-04-20T09:19:08Z</time></trkpt><trkpt lat="59.0823729895" lon="30.0067649223"><ele>66.65</ele><time>2026-04-20T09:19:37Z</time></trkpt><trkpt lat="59.0824037511" lon="30.0067588035"><ele>67.21</ele><time>2026-04-20T09:20:08Z</time></trkpt><trkpt lat="59.0823585726" lon="30.0068334863"><ele>67.12</ele><time>2026-04-20T09:20:35Z</time></trkpt><trkpt lat="59.0822580736" lon="30.0067664310"><ele>68.35</ele><time>2026-04-20T09:20:54Z</time></trkpt><trkpt lat="59.0822652820" lon="30.0066797622"><ele>66.97</ele><time>2026-04-20T09:21:28Z</time></trkpt><trkpt lat="59.0822359454" lon="30.0067066681"><ele>67.69</ele><time>2026-04-20T09:21:54Z</time></trkpt><trkpt lat="59.0821113903" lon="30.0068223383"><ele>68.03</ele><time>2026-04-20T09:22:11Z</time></trkpt><trkpt lat="59.0819492005" lon="30.0069026370"><ele>68.16</ele><time>2026-04-20T09:22:31Z</time></trkpt><trkpt lat="59.0818150900" lon="30.0069877971"><ele>67.49</ele><time>2026-04-20T09:22:51Z</time></trkpt><trkpt lat="59.0816937201" lon="30.0070618931"><ele>68.17</ele><time>2026-04-20T09:23:09Z</time></trkpt><trkpt lat="59.0815876052" lon="30.0070693530"><ele>68.62</ele><time>2026-04-20T09:23:30Z</time></trkpt><trkpt lat="59.0815221425" lon="30.0070333946"><ele>68.23</ele><time>2026-04-20T09:23:47Z</time></trkpt><trkpt lat="59.0814604517" lon="30.0070904754"><ele>67.92</ele><time>2026-04-20T09:23:55Z</time></trkpt><trkpt lat="59.0813527443" lon="30.0071750488"><ele>67.33</ele><time>2026-04-20T09:24:15Z</time></trkpt><trkpt lat="59.0813207254" lon="30.0072081573"><ele>67.97</ele><time>2026-04-20T09:24:22Z</time></trkpt><trkpt lat="59.0812177956" lon="30.0072454568"><ele>66.79</ele><time>2026-04-20T09:24:43Z</time></trkpt><trkpt lat="59.0811415203" lon="30.0072497316"><ele>67.10</ele><time>2026-04-20T09:25:11Z</time></trkpt><trkpt lat="59.0810117684" lon="30.0073401723"><ele>66.98</ele><time>2026-04-20T09:25:37Z</time></trkpt><trkpt lat="59.0808852017" lon="30.0073722750"><ele>66.31</ele><time>2026-04-20T09:25:56Z</time></trkpt><trkpt lat="59.0808373410" lon="30.0074705947"><ele>66.79</ele><time>2026-04-20T09:26:11Z</time></trkpt><trkpt lat="59.0807419550" lon="30.0074954052"><ele>66.88</ele><time>2026-04-20T09:26:26Z</time></trkpt><trkpt lat="59.0807157196" lon="30.0074371509"><ele>66.80</ele><time>2026-04-20T09:26:51Z</time></trkpt><trkpt lat="59.0806679428" lon="30.0074069761"><ele>65.73</ele><time>2026-04-20T09:27:17Z</time></trkpt><trkpt lat="59.0806542803" lon="30.0074209739"><ele>66.28</ele><time>2026-04-20T09:27:33Z</time></trkpt><trkpt lat="59.0806745645" lon="30.0074247457"><ele>66.34</ele><time>2026-04-20T09:28:01Z</time></trkpt><trkpt lat="59.0806917474" lon="30.0074494723"><ele>66.30</ele><time>2026-04-20T09:28:32Z</time></trkpt><trkpt lat="59.0805924218" lon="30.0075779669"><ele>67.56</ele><time>2026-04-20T09:28:53Z</time></trkpt><trkpt lat="59.0804837085" lon="30.0075484626"><ele>67.48</ele><time>2026-04-20T09:29:14Z</time></trkpt><trkpt lat="59.0804175753" lon="30.0074517354"><ele>67.72</ele><time>2026-04-20T09:29:33Z</time></trkpt><trkpt lat="59.0804028232" lon="30.0074522384"><ele>68.28</ele><time>2026-04-20T09:29:36Z</time></trkpt><trkpt lat="59.0802613366" lon="30.0073348079"><ele>67.18</ele><time>2026-04-20T09:30:02Z</time></trkpt><trkpt lat="59.0801612567" lon="30.0074432697"><ele>67.26</ele><time>2026-04-20T09:30:17Z</time></trkpt><trkpt lat="59.0800890885" lon="30.0074762944"><ele>67.02</ele><time>2026-04-20T09:30:34Z</time></trkpt><trkpt lat="59.0800449159" lon="30.0074496400"><ele>67.18</ele><time>2026-04-20T09:31:04Z</time></trkpt><trkpt lat="59.0800018329" lon="30.0075140130"><ele>68.14</ele><time>2026-04-20T09:31:31Z</time></trkpt><trkpt lat="59.0800393838" lon="30.0077220518"><ele>67.64</ele><time>2026-04-20T09:31:46Z</time></trkpt><trkpt lat="59.0800372884" lon="30.0079511292"><ele>67.24</ele><time>2026-04-20T09:32:01Z</time></trkpt><trkpt lat="59.0800729953" lon="30.0082878303"><ele>68.12</ele><time>2026-04-20T09:32:23Z</time></trkpt><trkpt lat="59.0800747555" lon="30.0084723998"><ele>68.40</ele><time>2026-04-20T09:32:40Z</time></trkpt><trkpt lat="59.0800748393" lon="30.0085110404"><ele>67.95</ele><time>2026-04-20T09:32:44Z</time></trkpt><trkpt lat="59.0800936986" lon="30.0087785907"><ele>67.79</ele><time>2026-04-20T09:33:05Z</time></trkpt><trkpt lat="59.0800802037" lon="30.0090095121"><ele>69.10</ele><time>2026-04-20T09:33:23Z</time></trkpt><trkpt lat="59.0800805390" lon="30.0090398546"><ele>67.66</ele><time>2026-04-20T09:33:48Z</time></trkpt><trkpt lat="59.0800769348" lon="30.0091158785"><ele>67.96</ele><time>2026-04-20T09:34:20Z</time></trkpt><trkpt lat="59.0800918546" lon="30.0090934150"><ele>69.88</ele><time>2026-04-20T09:34:30Z</time></trkpt><trkpt lat="59.0801215265" lon="30.0089943409"><ele>68.97</ele><time>2026-04-20T09:34:57Z</time></trkpt><trkpt lat="59.0801539645" lon="30.0090117753"><ele>69.48</ele><time>2026-04-20T09:35:21Z</time></trkpt><trkpt lat="59.0801515337" lon="30.0090246834"><ele>69.77</ele><time>2026-04-20T09:35:23Z</time></trkpt><trkpt lat="59.0802009031" lon="30.0090218335"><ele>70.11</ele><time>2026-04-20T09:35:42Z</time></trkpt><trkpt lat="59.0803034976" lon="30.0090739690"><ele>69.06</ele><time>2026-04-20T09:36:04Z</time></trkpt><trkpt lat="59.0803713072" lon="30.0090792496"><ele>69.29</ele><time>2026-04-20T09:36:22Z</time></trkpt><trkpt lat="59.0804370213" lon="30.0089195743"><ele>69.45</ele><time>2026-04-20T09:36:43Z</time></trkpt><trkpt lat="59.0804759972" lon="30.0087723881"><ele>70.70</ele><time>2026-04-20T09:37:01Z</time></trkpt><trkpt lat="59.0804825351" lon="30.0087552890"><ele>68.75</ele><time>2026-04-20T09:37:03Z</time></trkpt><trkpt lat="59.0805251151" lon="30.0087029859"><ele>70.03</ele><time>2026-04-20T09:37:21Z</time></trkpt><trkpt lat="59.0805833694" lon="30.0086961966"><ele>70.32</ele><time>2026-04-20T09:37:41Z</time></trkpt><trkpt lat="59.0806433838" lon="30.0087106135"><ele>70.36</ele><time>2026-04-20T09:37:59Z</time></trkpt><trkpt lat="59.0807114448" lon="30.0088154711"><ele>71.62</ele><time>2026-04-20T09:38:18Z</time></trkpt><trkpt lat="59.0807706211" lon="30.0088704564"><ele>70.70</ele><time>2026-04-20T09:38:35Z</time></trkpt><trkpt lat="59.0808428731" lon="30.0089810137"><ele>70.59</ele><time>2026-04-20T09:38:51Z</time></trkpt><trkpt lat="59.0809475631" lon="30.0089650042"><ele>69.75</ele><time>2026-04-20T09:39:06Z</time></trkpt><trkpt lat="59.0809609741" lon="30.0089411158"><ele>71.03</ele><time>2026-04-20T09:39:09Z</time></trkpt><trkpt lat="59.0810107626" lon="30.0087876432"><ele>71.47</ele><time>2026-04-20T09:39:29Z</time></trkpt><trkpt lat="59.0810666699" lon="30.0086952746"><ele>71.34</ele><time>2026-04-20T09:39:53Z</time></trkpt><trkpt lat="59.0811624750" lon="30.0086036604"><ele>71.06</ele><time>2026-04-20T09:40:14Z</time></trkpt><trkpt lat="59.0812094137" lon="30.0084392913"><ele>72.20</ele><time>2026-04-20T09:40:30Z</time></trkpt><trkpt lat="59.0812990163" lon="30.0083705597"><ele>70.73</ele><time>2026-04-20T09:40:48Z</time></trkpt><trkpt lat="59.0813230723" lon="30.0084226951"><ele>72.64</ele><time>2026-04-20T09:40:53Z</time></trkpt><trkpt lat="59.0814174525" lon="30.0086512696"><ele>71.56</ele><time>2026-04-20T09:41:13Z</time></trkpt><trkpt lat="59.0814182069" lon="30.0087609049"><ele>71.88</ele><time>2026-04-20T09:41:39Z</time></trkpt><trkpt lat="59.0814089868" lon="30.0088321511"><ele>70.94</ele><time>2026-04-20T09:41:54Z</time></trkpt><trkpt lat="59.0814069752" lon="30.0089836121"><ele>71.48</ele><time>2026-04-20T09:42:24Z</time></trkpt><trkpt lat="59.0814483818" lon="30.0089950114"><ele>72.74</ele><time>2026-04-20T09:42:37Z</time></trkpt><trkpt lat="59.0814292710" lon="30.0091334805"><ele>71.77</ele><time>2026-04-20T09:42:55Z</time></trkpt><trkpt lat="59.0814798977" lon="30.0092980172"><ele>72.23</ele><time>2026-04-20T09:43:16Z</time></trkpt><trkpt lat="59.0814132616" lon="30.0094550941"><ele>72.62</ele><time>2026-04-20T09:43:34Z</time></trkpt><trkpt lat="59.0813938156" lon="30.0097053777"><ele>72.46</ele><time>2026-04-20T09:43:56Z</time></trkpt><trkpt lat="59.0814894531" lon="30.0098708365"><ele>73.20</ele><time>2026-04-20T09:44:18Z</time></trkpt><trkpt lat="59.0815298539" lon="30.0100940466"><ele>72.75</ele><time>2026-04-20T09:44:38Z</time></trkpt><trkpt lat="59.0816095658" lon="30.0101378001"><ele>73.75</ele><time>2026-04-20T09:44:56Z</time></trkpt><trkpt lat="59.0817704983" lon="30.0101317652"><ele>72.15</ele><time>2026-04-20T09:45:19Z</time></trkpt><trkpt lat="59.0818244778" lon="30.0102579128"><ele>73.32</ele><time>2026-04-20T09:45:39Z</time></trkpt><trkpt lat="59.0817410778" lon="30.0104631856"><ele>72.34</ele><time>2026-04-20T09:46:00Z</time></trkpt><trkpt lat="59.0817420837" lon="30.0106656086"><ele>73.38</ele><time>2026-04-20T09:46:24Z</time></trkpt><trkpt lat="59.0816713404" lon="30.0109482463"><ele>73.76</ele><time>2026-04-20T09:46:46Z</time></trkpt><trkpt lat="59.0815803967" lon="30.0111777429"><ele>73.13</ele><time>2026-04-20T09:47:06Z</time></trkpt><trkpt lat="59.0815606155" lon="30.0112831872"><ele>74.09</ele><time>2026-04-20T09:47:14Z</time></trkpt><trkpt lat="59.0815643873" lon="30.0114340615"><ele>73.47</ele><time>2026-04-20T09:47:31Z</time></trkpt><trkpt lat="59.0815436840" lon="30.0113984384"><ele>72.31</ele><time>2026-04-20T09:48:04Z</time></trkpt><trkpt lat="59.0815288480" lon="30.0115245022"><ele>74.62</ele><time>2026-04-20T09:48:32Z</time></trkpt><trkpt lat="59.0815962385" lon="30.0116494764"><ele>75.16</ele><time>2026-04-20T09:48:51Z</time></trkpt><trkpt lat="59.0816342924" lon="30.0117407553"><ele>74.35</ele><time>2026-04-20T09:49:12Z</time></trkpt><trkpt lat="59.0817448497" lon="30.0117632188"><ele>74.19</ele><time>2026-04-20T09:49:33Z</time></trkpt><trkpt lat="59.0817786288" lon="30.0117418449"><ele>74.10</ele><time>2026-04-20T09:49:41Z</time></trkpt><trkpt lat="59.0817297623" lon="30.0117995963"><ele>74.58</ele><time>2026-04-20T09:49:59Z</time></trkpt><trkpt lat="59.0817366354" lon="30.0120145921"><ele>75.22</ele><time>2026-04-20T09:50:14Z</time></trkpt><trkpt lat="59.0817517228" lon="30.0122595951"><ele>74.67</ele><time>2026-04-20T09:50:34Z</time></trkpt><trkpt lat="59.0817757789" lon="30.0124584977"><ele>74.89</ele><time>2026-04-20T09:50:48Z</time></trkpt><trkpt lat="59.0817943867" lon="30.0127382018"><ele>73.98</ele><time>2026-04-20T09:51:08Z</time></trkpt><trkpt lat="59.0817823168" lon="30.0128554646"><ele>75.17</ele><time>2026-04-20T09:51:26Z</time></trkpt><trkpt lat="59.0818129107" lon="30.0128811132"><ele>74.42</ele><time>2026-04-20T09:51:53Z</time></trkpt><trkpt lat="59.0818360448" lon="30.0128467474"><ele>74.00</ele><time>2026-04-20T09:52:16Z</time></trkpt><trkpt lat="59.0818067919" lon="30.0128330011"><ele>74.02</ele><time>2026-04-20T09:52:29Z</time></trkpt><trkpt lat="59.0818725061" lon="30.0127506070"><ele>74.34</ele><time>2026-04-20T09:52:48Z</time></trkpt><trkpt lat="59.0819249768" lon="30.0127283111"><ele>75.20</ele><time>2026-04-20T09:52:59Z</time></trkpt><trkpt lat="59.0820421558" lon="30.0127483439"><ele>74.12</ele><time>2026-04-20T09:53:19Z</time></trkpt><trkpt lat="59.0821434930" lon="30.0127946120"><ele>73.95</ele><time>2026-04-20T09:53:39Z</time></trkpt><trkpt lat="59.0822646115" lon="30.0128853880"><ele>73.48</ele><time>2026-04-20T09:54:02Z</time></trkpt><trkpt lat="59.0823856462" lon="30.0128983799"><ele>73.92</ele><time>2026-04-20T09:54:24Z</time></trkpt><trkpt lat="59.0825034119" lon="30.0127024949"><ele>72.95</ele><time>2026-04-20T09:54:45Z</time></trkpt><trkpt lat="59.0825682878" lon="30.0125973020"><ele>74.58</ele><time>2026-04-20T09:55:02Z</time></trkpt><trkpt lat="59.0825874824" lon="30.0125926081"><ele>73.60</ele><time>2026-04-20T09:55:24Z</time></trkpt><trkpt lat="59.0825985465" lon="30.0126650278"><ele>73.38</ele><time>2026-04-20T09:55:57Z</time></trkpt><trkpt lat="59.0826000553" lon="30.0126537960"><ele>73.60</ele><time>2026-04-20T09:56:05Z</time></trkpt><trkpt lat="59.0827174857" lon="30.0124097150"><ele>74.15</ele><time>2026-04-20T09:56:28Z</time></trkpt><trkpt lat="59.0827439725" lon="30.0123118982"><ele>74.66</ele><time>2026-04-20T09:56:35Z</time></trkpt><trkpt lat="59.0827483311" lon="30.0120690744"><ele>74.26</ele><time>2026-04-20T09:56:58Z</time></trkpt><trkpt lat="59.0827561263" lon="30.0119704194"><ele>74.57</ele><time>2026-04-20T09:57:08Z</time></trkpt><trkpt lat="59.0827853791" lon="30.0118393265"><ele>75.00</ele><time>2026-04-20T09:57:22Z</time></trkpt><trkpt lat="59.0828315634" lon="30.0115802418"><ele>74.51</ele><time>2026-04-20T09:57:44Z</time></trkpt><trkpt lat="59.0827339143" lon="30.0113761425"><ele>74.20</ele><time>2026-04-20T09:58:06Z</time></trkpt><trkpt lat="59.0826137178" lon="30.0112221669"><ele>74.75</ele><time>2026-04-20T09:58:26Z</time></trkpt><trkpt lat="59.0825998876" lon="30.0109772477"><ele>74.57</ele><time>2026-04-20T09:58:49Z</time></trkpt><trkpt lat="59.0825741552" lon="30.0108154770"><ele>73.30</ele><time>2026-04-20T09:59:06Z</time></trkpt><trkpt lat="59.0825726464" lon="30.0107677002"><ele>74.91</ele><time>2026-04-20T09:59:10Z</time></trkpt><trkpt lat="59.0825345088" lon="30.0105591584"><ele>75.77</ele><time>2026-04-20T09:59:32Z</time></trkpt><trkpt lat="59.0825028252" lon="30.0104426499"><ele>74.27</ele><time>2026-04-20T09:59:56Z</time></trkpt><trkpt lat="59.0824966226" lon="30.0104178395"><ele>74.83</ele><time>2026-04-20T10:00:11Z</time></trkpt><trkpt lat="59.0824935213" lon="30.0104271434"><ele>74.69</ele><time>2026-04-20T10:00:20Z</time></trkpt><trkpt lat="59.0824980475" lon="30.0105026644"><ele>74.91</ele><time>2026-04-20T10:00:28Z</time></trkpt><trkpt lat="59.0824810322" lon="30.0102391373"><ele>74.96</ele><time>2026-04-20T10:00:48Z</time></trkpt><trkpt lat="59.0824507736" lon="30.0100580882"><ele>74.79</ele><time>2026-04-20T10:01:09Z</time></trkpt><trkpt lat="59.0824568085" lon="30.0098919589"><ele>74.08</ele><time>2026-04-20T10:01:26Z</time></trkpt><trkpt lat="59.0824557189" lon="30.0098514743"><ele>74.73</ele><time>2026-04-20T10:01:31Z</time></trkpt><trkpt lat="59.0824597422" lon="30.0095153600"><ele>74.66</ele><time>2026-04-20T10:01:55Z</time></trkpt><trkpt lat="59.0823989734" lon="30.0093676709"><ele>75.77</ele><time>2026-04-20T10:02:17Z</time></trkpt><trkpt lat="59.0823511127" lon="30.0091505796"><ele>75.39</ele><time>2026-04-20T10:02:41Z</time></trkpt><trkpt lat="59.0823603328" lon="30.0091404375"><ele>76.40</ele><time>2026-04-20T10:02:44Z</time></trkpt><trkpt lat="59.0823006537" lon="30.0089446362"><ele>75.34</ele><time>2026-04-20T10:03:03Z</time></trkpt><trkpt lat="59.0822982229" lon="30.0086890720"><ele>74.95</ele><time>2026-04-20T10:03:23Z</time></trkpt><trkpt lat="59.0822745860" lon="30.0084829610"><ele>76.29</ele><time>2026-04-20T10:03:45Z</time></trkpt><trkpt lat="59.0822708979" lon="30.0082729105"><ele>75.42</ele><time>2026-04-20T10:04:05Z</time></trkpt><trkpt lat="59.0822843090" lon="30.0080517121"><ele>76.21</ele><time>2026-04-20T10:04:29Z</time></trkpt><trkpt lat="59.0822773520" lon="30.0079198647"><ele>74.89</ele><time>2026-04-20T10:04:59Z</time></trkpt><trkpt lat="59.0823152382" lon="30.0079420768"><ele>75.76</ele><time>2026-04-20T10:05:30Z</time></trkpt><trkpt lat="59.0823676251" lon="30.0080311764"><ele>76.34</ele><time>2026-04-20T10:05:49Z</time></trkpt><trkpt lat="59.0824029129" lon="30.0080526341"><ele>76.30</ele><time>2026-04-20T10:05:57Z</time></trkpt><trkpt lat="59.0824881569" lon="30.0081046857"><ele>75.85</ele><time>2026-04-20T10:06:13Z</time></trkpt><trkpt lat="59.0825867280" lon="30.0080770254"><ele>75.38</ele><time>2026-04-20T10:06:28Z</time></trkpt><trkpt lat="59.0827624127" lon="30.0080448389"><ele>75.82</ele><time>2026-04-20T10:06:51Z</time></trkpt><trkpt lat="59.0828965232" lon="30.0079411548"><ele>75.30</ele><time>2026-04-20T10:07:12Z</time></trkpt><trkpt lat="59.0829945076" lon="30.0078980718"><ele>75.13</ele><time>2026-04-20T10:07:37Z</time></trkpt><trkpt lat="59.0830493253" lon="30.0079340301"><ele>76.66</ele><time>2026-04-20T10:08:02Z</time></trkpt><trkpt lat="59.0830470622" lon="30.0079903565"><ele>75.79</ele><time>2026-04-20T10:08:18Z</time></trkpt><trkpt lat="59.0830543544" lon="30.0078979880"><ele>77.01</ele><time>2026-04-20T10:08:48Z</time></trkpt><trkpt lat="59.0830691066" lon="30.0081623532"><ele>76.80</ele><time>2026-04-20T10:09:11Z</time></trkpt><trkpt lat="59.0831069089" lon="30.0083013251"><ele>76.60</ele><time>2026-04-20T10:09:27Z</time></trkpt><trkpt lat="59.0830744710" lon="30.0084304903"><ele>77.19</ele><time>2026-04-20T10:09:56Z</time></trkpt><trkpt lat="59.0831074957" lon="30.0085715577"><ele>76.95</ele><time>2026-04-20T10:10:12Z</time></trkpt><trkpt lat="59.0831289534" lon="30.0086776726"><ele>76.18</ele><time>2026-04-20T10:10:20Z</time></trkpt><trkpt lat="59.0831826814" lon="30.0090158824"><ele>76.65</ele><time>2026-04-20T10:10:42Z</time></trkpt><trkpt lat="59.0831928235" lon="30.0092205685"><ele>76.10</ele><time>2026-04-20T10:11:01Z</time></trkpt><trkpt lat="59.0831820108" lon="30.0093105063"><ele>75.66</ele><time>2026-04-20T10:11:05Z</time></trkpt><trkpt lat="59.0831875429" lon="30.0094379112"><ele>74.08</ele><time>2026-04-20T10:11:18Z</time></trkpt><trkpt lat="59.0832024626" lon="30.0095056370"><ele>75.78</ele><time>2026-04-20T10:11:23Z</time></trkpt><trkpt lat="59.0832469705" lon="30.0097680744"><ele>75.79</ele><time>2026-04-20T10:11:44Z</time></trkpt><trkpt lat="59.0832882095" lon="30.0100592617"><ele>76.45</ele><time>2026-04-20T10:12:07Z</time></trkpt><trkpt lat="59.0833214018" lon="30.0102847349"><ele>76.43</ele><time>2026-04-20T10:12:22Z</time></trkpt><trkpt lat="59.0833450388" lon="30.0104817934"><ele>74.10</ele><time>2026-04-20T10:12:35Z</time></trkpt><trkpt lat="59.0833831765" lon="30.0107690413"><ele>75.71</ele><time>2026-04-20T10:12:57Z</time></trkpt><trkpt lat="59.0833751298" lon="30.0109354220"><ele>76.56</ele><time>2026-04-20T10:13:28Z</time></trkpt><trkpt lat="59.0833920613" lon="30.0109394453"><ele>76.38</ele><time>2026-04-20T10:13:31Z</time></trkpt><trkpt lat="59.0834227391" lon="30.0110579655"><ele>75.31</ele><time>2026-04-20T10:14:01Z</time></trkpt><trkpt lat="59.0834774729" lon="30.0112797506"><ele>76.79</ele><time>2026-04-20T10:14:24Z</time></trkpt><trkpt lat="59.0835054684" lon="30.0116489735"><ele>75.93</ele><time>2026-04-20T10:14:50Z</time></trkpt><trkpt lat="59.0835343860" lon="30.0119529851"><ele>75.85</ele><time>2026-04-20T10:15:09Z</time></trkpt><trkpt lat="59.0835704282" lon="30.0123179331"><ele>74.55</ele><time>2026-04-20T10:15:31Z</time></trkpt><trkpt lat="59.0835882816" lon="30.0125191826"><ele>74.32</ele><time>2026-04-20T10:15:43Z</time></trkpt><trkpt lat="59.0836712625" lon="30.0127831288"><ele>75.26</ele><time>2026-04-20T10:16:05Z</time></trkpt><trkpt lat="59.0836958215" lon="30.0131920818"><ele>75.81</ele><time>2026-04-20T10:16:26Z</time></trkpt><trkpt lat="59.0837154351" lon="30.0133665930"><ele>72.05</ele><time>2026-04-20T10:16:37Z</time></trkpt><trkpt lat="59.0837227274" lon="30.0133944210"><ele>72.04</ele><time>2026-04-20T10:16:38Z</time></trkpt><trkpt lat="59.0837210510" lon="30.0134564470"><ele>75.10</ele><time>2026-04-20T10:16:42Z</time></trkpt><trkpt lat="59.0836896189" lon="30.0135929883"><ele>74.73</ele><time>2026-04-20T10:17:05Z</time></trkpt><trkpt lat="59.0837218892" lon="30.0136677548"><ele>72.71</ele><time>2026-04-20T10:17:36Z</time></trkpt><trkpt lat="59.0837141778" lon="30.0136674196"><ele>74.03</ele><time>2026-04-20T10:18:04Z</time></trkpt><trkpt lat="59.0837085620" lon="30.0136578642"><ele>72.79</ele><time>2026-04-20T10:18:12Z</time></trkpt><trkpt lat="59.0836014412" lon="30.0136318803"><ele>72.97</ele><time>2026-04-20T10:18:37Z</time></trkpt><trkpt lat="59.0834558476" lon="30.0137182139"><ele>72.85</ele><time>2026-04-20T10:18:54Z</time></trkpt><trkpt lat="59.0833797399" lon="30.0138374884"><ele>74.28</ele><time>2026-04-20T10:19:08Z</time></trkpt><trkpt lat="59.0833514929" lon="30.0138835050"><ele>71.43</ele><time>2026-04-20T10:19:13Z</time></trkpt><trkpt lat="59.0832436178" lon="30.0139345508"><ele>72.11</ele><time>2026-04-20T10:19:29Z</time></trkpt><trkpt lat="59.0831472259" lon="30.0139855966"><ele>72.80</ele><time>2026-04-20T10:19:53Z</time></trkpt><trkpt lat="59.0830629878" lon="30.0140118320"><ele>72.82</ele><time>2026-04-20T10:20:08Z</time></trkpt><trkpt lat="59.0830147080" lon="30.0140099041"><ele>73.87</ele><time>2026-04-20T10:20:14Z</time></trkpt><trkpt lat="59.0828558709" lon="30.0140681583"><ele>73.31</ele><time>2026-04-20T10:20:33Z</time></trkpt><trkpt lat="59.0828339942" lon="30.0140799768"><ele>73.30</ele><time>2026-04-20T10:20:34Z</time></trkpt><trkpt lat="59.0826564655" lon="30.0142250676"><ele>74.00</ele><time>2026-04-20T10:20:51Z</time></trkpt><trkpt lat="59.0824752487" lon="30.0142368022"><ele>72.73</ele><time>2026-04-20T10:21:10Z</time></trkpt><trkpt lat="59.0823318344" lon="30.0142824836"><ele>74.56</ele><time>2026-04-20T10:21:29Z</time></trkpt><trkpt lat="59.0823490173" lon="30.0142896082"><ele>73.89</ele><time>2026-04-20T10:21:57Z</time></trkpt><trkpt lat="59.0823377017" lon="30.0142868422"><ele>74.61</ele><time>2026-04-20T10:22:24Z</time></trkpt><trkpt lat="59.0822354425" lon="30.0143791270"><ele>74.68</ele><time>2026-04-20T10:22:38Z</time></trkpt><trkpt lat="59.0821312554" lon="30.0143851619"><ele>74.47</ele><time>2026-04-20T10:22:54Z</time></trkpt><trkpt lat="59.0820093825" lon="30.0144797098"><ele>75.01</ele><time>2026-04-20T10:23:15Z</time></trkpt><trkpt lat="59.0818993282" lon="30.0145097170"><ele>73.84</ele><time>2026-04-20T10:23:29Z</time></trkpt><trkpt lat="59.0817372221" lon="30.0145574939"><ele>75.20</ele><time>2026-04-20T10:23:50Z</time></trkpt><trkpt lat="59.0815813188" lon="30.0146078691"><ele>75.46</ele><time>2026-04-20T10:24:07Z</time></trkpt><trkpt lat="59.0814227331" lon="30.0147093739"><ele>74.93</ele><time>2026-04-20T10:24:25Z</time></trkpt><trkpt lat="59.0813651495" lon="30.0147323404"><ele>74.97</ele><time>2026-04-20T10:24:32Z</time></trkpt><trkpt lat="59.0812404267" lon="30.0148010720"><ele>74.43</ele><time>2026-04-20T10:24:49Z</time></trkpt><trkpt lat="59.0811075736" lon="30.0148567278"><ele>74.28</ele><time>2026-04-20T10:25:09Z</time></trkpt><trkpt lat="59.0809146222" lon="30.0149542931"><ele>74.72</ele><time>2026-04-20T10:25:30Z</time></trkpt><trkpt lat="59.0807867143" lon="30.0150130503"><ele>74.84</ele><time>2026-04-20T10:25:47Z</time></trkpt><trkpt lat="59.0807168931" lon="30.0150350109"><ele>73.91</ele><time>2026-04-20T10:26:04Z</time></trkpt><trkpt lat="59.0807140432" lon="30.0150432251"><ele>74.55</ele><time>2026-04-20T10:26:36Z</time></trkpt><trkpt lat="59.0806644224" lon="30.0151137169"><ele>74.54</ele><time>2026-04-20T10:27:03Z</time></trkpt><trkpt lat="59.0805820283" lon="30.0152917486"><ele>73.70</ele><time>2026-04-20T10:27:20Z</time></trkpt><trkpt lat="59.0805344190" lon="30.0154145434"><ele>73.44</ele><time>2026-04-20T10:27:37Z</time></trkpt><trkpt lat="59.0804992989" lon="30.0157095026"><ele>72.40</ele><time>2026-04-20T10:27:54Z</time></trkpt><trkpt lat="59.0805613250" lon="30.0160166156"><ele>73.57</ele><time>2026-04-20T10:28:14Z</time></trkpt><trkpt lat="59.0806428809" lon="30.0162154343"><ele>73.25</ele><time>2026-04-20T10:28:28Z</time></trkpt><trkpt lat="59.0806792583" lon="30.0163829885"><ele>72.79</ele><time>2026-04-20T10:28:42Z</time></trkpt><trkpt lat="59.0807303879" lon="30.0166478567"><ele>73.00</ele><time>2026-04-20T10:29:01Z</time></trkpt><trkpt lat="59.0807797574" lon="30.0169144012"><ele>72.93</ele><time>2026-04-20T10:29:20Z</time></trkpt><trkpt lat="59.0808018018" lon="30.0171246193"><ele>72.82</ele><time>2026-04-20T10:29:37Z</time></trkpt><trkpt lat="59.0808444656" lon="30.0172583945"><ele>72.98</ele><time>2026-04-20T10:29:55Z</time></trkpt><trkpt lat="59.0809200704" lon="30.0174521003"><ele>72.14</ele><time>2026-04-20T10:30:11Z</time></trkpt><trkpt lat="59.0809261054" lon="30.0174565427"><ele>72.03</ele><time>2026-04-20T10:30:12Z</time></trkpt><trkpt lat="59.0809739660" lon="30.0174753182"><ele>73.32</ele><time>2026-04-20T10:30:31Z</time></trkpt><trkpt lat="59.0810121875" lon="30.0175385177"><ele>72.51</ele><time>2026-04-20T10:30:51Z</time></trkpt><trkpt lat="59.0809750557" lon="30.0176299643"><ele>73.77</ele><time>2026-04-20T10:31:16Z</time></trkpt><trkpt lat="59.0810043085" lon="30.0178048946"><ele>72.73</ele><time>2026-04-20T10:31:34Z</time></trkpt><trkpt lat="59.0810984373" lon="30.0180201419"><ele>73.44</ele><time>2026-04-20T10:31:55Z</time></trkpt><trkpt lat="59.0811289474" lon="30.0181251671"><ele>72.96</ele><time>2026-04-20T10:32:22Z</time></trkpt><trkpt lat="59.0811636485" lon="30.0182120875"><ele>72.58</ele><time>2026-04-20T10:32:37Z</time></trkpt><trkpt lat="59.0812876169" lon="30.0184245687"><ele>72.40</ele><time>2026-04-20T10:32:56Z</time></trkpt><trkpt lat="59.0813739505" lon="30.0185286719"><ele>72.13</ele><time>2026-04-20T10:33:11Z</time></trkpt><trkpt lat="59.0814368147" lon="30.0188599247"><ele>71.42</ele><time>2026-04-20T10:33:34Z</time></trkpt><trkpt lat="59.0814580210" lon="30.0190624315"><ele>70.50</ele><time>2026-04-20T10:33:52Z</time></trkpt><trkpt lat="59.0815303568" lon="30.0192296505"><ele>70.89</ele><time>2026-04-20T10:34:11Z</time></trkpt><trkpt lat="59.0815311950" lon="30.0192993879"><ele>71.01</ele><time>2026-04-20T10:34:55Z</time></trkpt><trkpt lat="59.0815729368" lon="30.0194417126"><ele>70.93</ele><time>2026-04-20T10:35:17Z</time></trkpt><trkpt lat="59.0816326998" lon="30.0197238475"><ele>69.88</ele><time>2026-04-20T10:35:37Z</time></trkpt><trkpt lat="59.0817606077" lon="30.0198869593"><ele>70.24</ele><time>2026-04-20T10:35:54Z</time></trkpt><trkpt lat="59.0818361286" lon="30.0200217403"><ele>70.06</ele><time>2026-04-20T10:36:06Z</time></trkpt><trkpt lat="59.0818381403" lon="30.0202001911"><ele>69.56</ele><time>2026-04-20T10:36:17Z</time></trkpt><trkpt lat="59.0818378050" lon="30.0203823298"><ele>70.87</ele><time>2026-04-20T10:36:28Z</time></trkpt><trkpt lat="59.0818281658" lon="30.0204829127"><ele>68.68</ele><time>2026-04-20T10:36:35Z</time></trkpt><trkpt lat="59.0817680676" lon="30.0207104813"><ele>69.89</ele><time>2026-04-20T10:36:54Z</time></trkpt><trkpt lat="59.0817770362" lon="30.0208774488"><ele>70.49</ele><time>2026-04-20T10:37:08Z</time></trkpt><trkpt lat="59.0818003379" lon="30.0209200289"><ele>68.01</ele><time>2026-04-20T10:37:33Z</time></trkpt><trkpt lat="59.0818220470" lon="30.0208883453"><ele>69.36</ele><time>2026-04-20T10:38:07Z</time></trkpt><trkpt lat="59.0819222108" lon="30.0209547300"><ele>70.16</ele><time>2026-04-20T10:38:28Z</time></trkpt><trkpt lat="59.0820550639" lon="30.0209852401"><ele>71.14</ele><time>2026-04-20T10:38:47Z</time></trkpt><trkpt lat="59.0821520425" lon="30.0210594200"><ele>70.73</ele><time>2026-04-20T10:39:06Z</time></trkpt><trkpt lat="59.0822283179" lon="30.0210584141"><ele>71.11</ele><time>2026-04-20T10:39:22Z</time></trkpt><trkpt lat="59.0823072754" lon="30.0210909359"><ele>70.03</ele><time>2026-04-20T10:39:40Z</time></trkpt><trkpt lat="59.0823998116" lon="30.0210600067"><ele>71.37</ele><time>2026-04-20T10:39:58Z</time></trkpt><trkpt lat="59.0824712254" lon="30.0210309215"><ele>70.01</ele><time>2026-04-20T10:40:17Z</time></trkpt><trkpt lat="59.0825694613" lon="30.0210275687"><ele>70.32</ele><time>2026-04-20T10:40:37Z</time></trkpt><trkpt lat="59.0826285537" lon="30.0210463442"><ele>71.51</ele><time>2026-04-20T10:40:52Z</time></trkpt><trkpt lat="59.0826869756" lon="30.0210953783"><ele>70.62</ele><time>2026-04-20T10:41:10Z</time></trkpt><trkpt lat="59.0827133786" lon="30.0211076159"><ele>70.52</ele><time>2026-04-20T10:41:18Z</time></trkpt><trkpt lat="59.0828096867" lon="30.0211564824"><ele>70.61</ele><time>2026-04-20T10:41:37Z</time></trkpt><trkpt lat="59.0828756522" lon="30.0211867411"><ele>69.91</ele><time>2026-04-20T10:42:18Z</time></trkpt><trkpt lat="59.0828769095" lon="30.0211575720"><ele>70.40</ele><time>2026-04-20T10:42:30Z</time></trkpt><trkpt lat="59.0829080902" lon="30.0210750941"><ele>71.15</ele><time>2026-04-20T10:42:45Z</time></trkpt><trkpt lat="59.0828153025" lon="30.0212309975"><ele>70.96</ele><time>2026-04-20T10:43:06Z</time></trkpt><trkpt lat="59.0828108601" lon="30.0214024913"><ele>71.19</ele><time>2026-04-20T10:43:27Z</time></trkpt><trkpt lat="59.0828094352" lon="30.0214246195"><ele>71.34</ele><time>2026-04-20T10:43:29Z</time></trkpt><trkpt lat="59.0827666037" lon="30.0216298923"><ele>71.81</ele><time>2026-04-20T10:43:47Z</time></trkpt><trkpt lat="59.0826627519" lon="30.0219669286"><ele>71.71</ele><time>2026-04-20T10:44:15Z</time></trkpt><trkpt lat="59.0825488418" lon="30.0224409252"><ele>71.10</ele><time>2026-04-20T10:44:37Z</time></trkpt><trkpt lat="59.0825264622" lon="30.0225203019"><ele>70.82</ele><time>2026-04-20T10:44:44Z</time></trkpt><trkpt lat="59.0825112909" lon="30.0226034503"><ele>71.99</ele><time>2026-04-20T10:44:51Z</time></trkpt><trkpt lat="59.0824836306" lon="30.0226906221"><ele>71.72</ele><time>2026-04-20T10:45:17Z</time></trkpt><trkpt lat="59.0824910067" lon="30.0226925500"><ele>72.10</ele><time>2026-04-20T10:45:46Z</time></trkpt><trkpt lat="59.0825343411" lon="30.0227375608"><ele>70.78</ele><time>2026-04-20T10:46:17Z</time></trkpt><trkpt lat="59.0825435612" lon="30.0227367226"><ele>70.73</ele><time>2026-04-20T10:46:51Z</time></trkpt><trkpt lat="59.0825537033" lon="30.0227915403"><ele>70.12</ele><time>2026-04-20T10:47:19Z</time></trkpt><trkpt lat="59.0825002268" lon="30.0227502175"><ele>71.00</ele><time>2026-04-20T10:47:52Z</time></trkpt><trkpt lat="59.0825062618" lon="30.0226897839"><ele>71.24</ele><time>2026-04-20T10:48:22Z</time></trkpt><trkpt lat="59.0825008135" lon="30.0227103196"><ele>70.97</ele><time>2026-04-20T10:48:34Z</time></trkpt><trkpt lat="59.0825217683" lon="30.0227426738"><ele>70.93</ele><time>2026-04-20T10:49:10Z</time></trkpt><trkpt lat="59.0825425554" lon="30.0226160232"><ele>71.61</ele><time>2026-04-20T10:49:40Z</time></trkpt><trkpt lat="59.0825283900" lon="30.0226034503"><ele>70.96</ele><time>2026-04-20T10:50:19Z</time></trkpt><trkpt lat="59.0825400408" lon="30.0226429291"><ele>71.09</ele><time>2026-04-20T10:50:50Z</time></trkpt><trkpt lat="59.0825212654" lon="30.0227119122"><ele>70.33</ele><time>2026-04-20T10:51:14Z</time></trkpt><trkpt lat="59.0825067647" lon="30.0226945616"><ele>71.22</ele><time>2026-04-20T10:51:41Z</time></trkpt><trkpt lat="59.0825184993" lon="30.0227275025"><ele>70.36</ele><time>2026-04-20T10:52:10Z</time></trkpt><trkpt lat="59.0825509373" lon="30.0226705056"><ele>70.78</ele><time>2026-04-20T10:52:40Z</time></trkpt><trkpt lat="59.0825430583" lon="30.0227131695"><ele>70.77</ele><time>2026-04-20T10:53:25Z</time></trkpt><trkpt lat="59.0825138893" lon="30.0227249879"><ele>70.41</ele><time>2026-04-20T10:53:55Z</time></trkpt><trkpt lat="59.0825250372" lon="30.0227117445"><ele>71.32</ele><time>2026-04-20T10:54:25Z</time></trkpt><trkpt lat="59.0826292243" lon="30.0227202941"><ele>72.06</ele><time>2026-04-20T10:54:44Z</time></trkpt><trkpt lat="59.0826922562" lon="30.0227001775"><ele>70.96</ele><time>2026-04-20T10:55:13Z</time></trkpt><trkpt lat="59.0825853031" lon="30.0228010956"><ele>71.85</ele><time>2026-04-20T10:55:36Z</time></trkpt><trkpt lat="59.0825482551" lon="30.0227518938"><ele>72.20</ele><time>2026-04-20T10:56:03Z</time></trkpt><trkpt lat="59.0825201757" lon="30.0227399915"><ele>71.16</ele><time>2026-04-20T10:56:10Z</time></trkpt><trkpt lat="59.0824568085" lon="30.0227807276"><ele>71.92</ele><time>2026-04-20T10:56:31Z</time></trkpt><trkpt lat="59.0825586487" lon="30.0226540770"><ele>72.09</ele><time>2026-04-20T10:56:49Z</time></trkpt><trkpt lat="59.0826174896" lon="30.0224596169"><ele>71.89</ele><time>2026-04-20T10:57:03Z</time></trkpt><trkpt lat="59.0826697927" lon="30.0222775619"><ele>72.52</ele><time>2026-04-20T10:57:19Z</time></trkpt><trkpt lat="59.0827203356" lon="30.0220365822"><ele>71.28</ele><time>2026-04-20T10:57:39Z</time></trkpt><trkpt lat="59.0827244427" lon="30.0220344029"><ele>71.02</ele><time>2026-04-20T10:57:40Z</time></trkpt><trkpt lat="59.0828523505" lon="30.0219066627"><ele>71.59</ele><time>2026-04-20T10:58:01Z</time></trkpt><trkpt lat="59.0829029772" lon="30.0220190641"><ele>71.29</ele><time>2026-04-20T10:58:15Z</time></trkpt><trkpt lat="59.0829997882" lon="30.0221488997"><ele>71.12</ele><time>2026-04-20T10:58:33Z</time></trkpt><trkpt lat="59.0830281191" lon="30.0223552622"><ele>70.90</ele><time>2026-04-20T10:58:55Z</time></trkpt><trkpt lat="59.0829991177" lon="30.0224300288"><ele>71.20</ele><time>2026-04-20T10:59:03Z</time></trkpt><trkpt lat="59.0829609800" lon="30.0227205455"><ele>71.21</ele><time>2026-04-20T10:59:23Z</time></trkpt><trkpt lat="59.0830363333" lon="30.0229938794"><ele>70.85</ele><time>2026-04-20T10:59:43Z</time></trkpt><trkpt lat="59.0831468906" lon="30.0233293232"><ele>72.06</ele><time>2026-04-20T11:00:06Z</time></trkpt><trkpt lat="59.0831737127" lon="30.0235705543"><ele>71.09</ele><time>2026-04-20T11:00:22Z</time></trkpt><trkpt lat="59.0831534285" lon="30.0236287247"><ele>70.77</ele><time>2026-04-20T11:00:42Z</time></trkpt><trkpt lat="59.0831202362" lon="30.0236745737"><ele>69.92</ele><time>2026-04-20T11:01:11Z</time></trkpt><trkpt lat="59.0831139497" lon="30.0239153858"><ele>70.64</ele><time>2026-04-20T11:01:32Z</time></trkpt><trkpt lat="59.0831553563" lon="30.0241633225"><ele>70.09</ele><time>2026-04-20T11:01:51Z</time></trkpt><trkpt lat="59.0831536800" lon="30.0243307929"><ele>69.03</ele><time>2026-04-20T11:02:07Z</time></trkpt><trkpt lat="59.0831147041" lon="30.0244680047"><ele>70.08</ele><time>2026-04-20T11:02:30Z</time></trkpt><trkpt lat="59.0830870438" lon="30.0246468745"><ele>67.66</ele><time>2026-04-20T11:02:50Z</time></trkpt><trkpt lat="59.0830833558" lon="30.0247036200"><ele>69.60</ele><time>2026-04-20T11:02:56Z</time></trkpt><trkpt lat="59.0831340663" lon="30.0249329489"><ele>69.12</ele><time>2026-04-20T11:03:18Z</time></trkpt><trkpt lat="59.0831437893" lon="30.0249817315"><ele>67.50</ele><time>2026-04-20T11:03:21Z</time></trkpt><trkpt lat="59.0831640735" lon="30.0250315201"><ele>68.84</ele><time>2026-04-20T11:03:27Z</time></trkpt><trkpt lat="59.0832052287" lon="30.0250716694"><ele>68.65</ele><time>2026-04-20T11:03:37Z</time></trkpt><trkpt lat="59.0832642373" lon="30.0251036882"><ele>69.82</ele><time>2026-04-20T11:03:47Z</time></trkpt><trkpt lat="59.0833060630" lon="30.0252021756"><ele>70.14</ele><time>2026-04-20T11:04:07Z</time></trkpt><trkpt lat="59.0833637305" lon="30.0252316799"><ele>68.98</ele><time>2026-04-20T11:04:37Z</time></trkpt><trkpt lat="59.0833928157" lon="30.0252960529"><ele>70.51</ele><time>2026-04-20T11:05:11Z</time></trkpt><trkpt lat="59.0834990144" lon="30.0253845658"><ele>70.24</ele><time>2026-04-20T11:05:30Z</time></trkpt><trkpt lat="59.0835817438" lon="30.0255525392"><ele>68.73</ele><time>2026-04-20T11:05:48Z</time></trkpt><trkpt lat="59.0835850127" lon="30.0255788583"><ele>70.33</ele><time>2026-04-20T11:05:50Z</time></trkpt><trkpt lat="59.0836331248" lon="30.0257205963"><ele>69.99</ele><time>2026-04-20T11:06:04Z</time></trkpt><trkpt lat="59.0837290976" lon="30.0256897509"><ele>70.49</ele><time>2026-04-20T11:06:19Z</time></trkpt><trkpt lat="59.0838330332" lon="30.0256869011"><ele>70.02</ele><time>2026-04-20T11:06:38Z</time></trkpt><trkpt lat="59.0839116555" lon="30.0256824587"><ele>70.12</ele><time>2026-04-20T11:06:49Z</time></trkpt><trkpt lat="59.0841124859" lon="30.0256911758"><ele>69.77</ele><time>2026-04-20T11:07:10Z</time></trkpt><trkpt lat="59.0842388850" lon="30.0256800279"><ele>68.89</ele><time>2026-04-20T11:07:31Z</time></trkpt><trkpt lat="59.0843835566" lon="30.0257288106"><ele>68.77</ele><time>2026-04-20T11:07:49Z</time></trkpt><trkpt lat="59.0844940301" lon="30.0256894995"><ele>67.70</ele><time>2026-04-20T11:08:12Z</time></trkpt><trkpt lat="59.0845262166" lon="30.0256851409"><ele>68.32</ele><time>2026-04-20T11:08:43Z</time></trkpt><trkpt lat="59.0845410526" lon="30.0256962888"><ele>68.63</ele><time>2026-04-20T11:09:15Z</time></trkpt><trkpt lat="59.0844396316" lon="30.0255260523"><ele>69.16</ele><time>2026-04-20T11:09:35Z</time></trkpt><trkpt lat="59.0843765158" lon="30.0253713224"><ele>69.33</ele><time>2026-04-20T11:09:56Z</time></trkpt><trkpt lat="59.0843858197" lon="30.0252137426"><ele>68.07</ele><time>2026-04-20T11:10:13Z</time></trkpt><trkpt lat="59.0843799524" lon="30.0250673108"><ele>68.65</ele><time>2026-04-20T11:10:31Z</time></trkpt><trkpt lat="59.0843367856" lon="30.0248935539"><ele>68.95</ele><time>2026-04-20T11:10:51Z</time></trkpt><trkpt lat="59.0843050182" lon="30.0247838348"><ele>68.43</ele><time>2026-04-20T11:11:10Z</time></trkpt><trkpt lat="59.0842908528" lon="30.0247741118"><ele>68.26</ele><time>2026-04-20T11:11:15Z</time></trkpt><trkpt lat="59.0842151642" lon="30.0245004427"><ele>68.78</ele><time>2026-04-20T11:11:37Z</time></trkpt><trkpt lat="59.0841419902" lon="30.0243626442"><ele>69.36</ele><time>2026-04-20T11:11:55Z</time></trkpt><trkpt lat="59.0841287468" lon="30.0243537594"><ele>68.00</ele><time>2026-04-20T11:11:58Z</time></trkpt><trkpt lat="59.0840696543" lon="30.0243742112"><ele>68.33</ele><time>2026-04-20T11:12:18Z</time></trkpt><trkpt lat="59.0840741806" lon="30.0242004544"><ele>68.40</ele><time>2026-04-20T11:12:41Z</time></trkpt><trkpt lat="59.0840875916" lon="30.0239796750"><ele>67.43</ele><time>2026-04-20T11:13:00Z</time></trkpt><trkpt lat="59.0841186047" lon="30.0238574669"><ele>68.39</ele><time>2026-04-20T11:13:16Z</time></trkpt><trkpt lat="59.0841186047" lon="30.0236024894"><ele>68.58</ele><time>2026-04-20T11:13:36Z</time></trkpt><trkpt lat="59.0841108933" lon="30.0233897567"><ele>68.82</ele><time>2026-04-20T11:13:57Z</time></trkpt><trkpt lat="59.0840564948" lon="30.0232885033"><ele>69.16</ele><time>2026-04-20T11:14:16Z</time></trkpt><trkpt lat="59.0840108134" lon="30.0232246332"><ele>68.36</ele><time>2026-04-20T11:14:45Z</time></trkpt><trkpt lat="59.0839772858" lon="30.0232225377"><ele>66.93</ele><time>2026-04-20T11:15:14Z</time></trkpt><trkpt lat="59.0839863382" lon="30.0232080370"><ele>69.64</ele><time>2026-04-20T11:15:25Z</time></trkpt><trkpt lat="59.0839908645" lon="30.0231047720"><ele>69.92</ele><time>2026-04-20T11:15:42Z</time></trkpt><trkpt lat="59.0840224642" lon="30.0229427498"><ele>69.30</ele><time>2026-04-20T11:16:04Z</time></trkpt><trkpt lat="59.0840512980" lon="30.0228017662"><ele>69.71</ele><time>2026-04-20T11:16:25Z</time></trkpt><trkpt lat="59.0840891842" lon="30.0226425938"><ele>69.79</ele><time>2026-04-20T11:16:46Z</time></trkpt><trkpt lat="59.0840891004" lon="30.0226025283"><ele>67.39</ele><time>2026-04-20T11:16:52Z</time></trkpt><trkpt lat="59.0840958059" lon="30.0225446094"><ele>70.13</ele><time>2026-04-20T11:16:57Z</time></trkpt><trkpt lat="59.0840015095" lon="30.0223835930"><ele>69.74</ele><time>2026-04-20T11:17:17Z</time></trkpt><trkpt lat="59.0839268267" lon="30.0221779849"><ele>69.47</ele><time>2026-04-20T11:17:37Z</time></trkpt><trkpt lat="59.0838226397" lon="30.0220782403"><ele>69.23</ele><time>2026-04-20T11:17:57Z</time></trkpt><trkpt lat="59.0837881900" lon="30.0219381787"><ele>68.26</ele><time>2026-04-20T11:18:16Z</time></trkpt><trkpt lat="59.0837542433" lon="30.0218503363"><ele>69.11</ele><time>2026-04-20T11:18:23Z</time></trkpt><trkpt lat="59.0837787185" lon="30.0216231029"><ele>69.46</ele><time>2026-04-20T11:18:43Z</time></trkpt><trkpt lat="59.0837514773" lon="30.0215989631"><ele>68.12</ele><time>2026-04-20T11:19:13Z</time></trkpt><trkpt lat="59.0837674867" lon="30.0215927605"><ele>68.52</ele><time>2026-04-20T11:19:40Z</time></trkpt><trkpt lat="59.0837735217" lon="30.0214525312"><ele>67.81</ele><time>2026-04-20T11:20:02Z</time></trkpt><trkpt lat="59.0837769583" lon="30.0214212667"><ele>69.41</ele><time>2026-04-20T11:20:07Z</time></trkpt><trkpt lat="59.0837898664" lon="30.0213319156"><ele>69.50</ele><time>2026-04-20T11:20:17Z</time></trkpt><trkpt lat="59.0837419219" lon="30.0211211946"><ele>69.54</ele><time>2026-04-20T11:20:38Z</time></trkpt><trkpt lat="59.0837140102" lon="30.0209357869"><ele>69.04</ele><time>2026-04-20T11:20:56Z</time></trkpt><trkpt lat="59.0836755373" lon="30.0207373034"><ele>69.79</ele><time>2026-04-20T11:21:21Z</time></trkpt><trkpt lat="59.0836758725" lon="30.0207276642"><ele>69.79</ele><time>2026-04-20T11:21:22Z</time></trkpt><trkpt lat="59.0836462006" lon="30.0204995926"><ele>68.34</ele><time>2026-04-20T11:21:38Z</time></trkpt><trkpt lat="59.0836472064" lon="30.0204234850"><ele>69.55</ele><time>2026-04-20T11:21:48Z</time></trkpt><trkpt lat="59.0836437698" lon="30.0201431103"><ele>69.18</ele><time>2026-04-20T11:22:07Z</time></trkpt><trkpt lat="59.0835753735" lon="30.0199227501"><ele>69.90</ele><time>2026-04-20T11:22:23Z</time></trkpt><trkpt lat="59.0835778881" lon="30.0198532641"><ele>68.33</ele><time>2026-04-20T11:22:30Z</time></trkpt><trkpt lat="59.0835720208" lon="30.0198292080"><ele>70.34</ele><time>2026-04-20T11:22:35Z</time></trkpt><trkpt lat="59.0835747030" lon="30.0198192336"><ele>68.67</ele><time>2026-04-20T11:22:44Z</time></trkpt><trkpt lat="59.0835553408" lon="30.0197857898"><ele>68.44</ele><time>2026-04-20T11:23:12Z</time></trkpt><trkpt lat="59.0835679136" lon="30.0196684431"><ele>68.87</ele><time>2026-04-20T11:23:41Z</time></trkpt><trkpt lat="59.0836924687" lon="30.0195870548"><ele>68.05</ele><time>2026-04-20T11:24:01Z</time></trkpt><trkpt lat="59.0837166086" lon="30.0195301417"><ele>70.26</ele><time>2026-04-20T11:24:06Z</time></trkpt><trkpt lat="59.0837957337" lon="30.0194458198"><ele>69.62</ele><time>2026-04-20T11:24:19Z</time></trkpt><trkpt lat="59.0838725958" lon="30.0194775034"><ele>67.65</ele><time>2026-04-20T11:24:32Z</time></trkpt><trkpt lat="59.0839756094" lon="30.0194764137"><ele>69.17</ele><time>2026-04-20T11:24:48Z</time></trkpt><trkpt lat="59.0840198658" lon="30.0193321612"><ele>69.00</ele><time>2026-04-20T11:25:05Z</time></trkpt><trkpt lat="59.0841098037" lon="30.0191870704"><ele>70.59</ele><time>2026-04-20T11:25:21Z</time></trkpt><trkpt lat="59.0842086263" lon="30.0192522816"><ele>69.69</ele><time>2026-04-20T11:25:38Z</time></trkpt><trkpt lat="59.0843032580" lon="30.0192459952"><ele>68.90</ele><time>2026-04-20T11:25:58Z</time></trkpt><trkpt lat="59.0843486879" lon="30.0192382839"><ele>69.26</ele><time>2026-04-20T11:26:17Z</time></trkpt><trkpt lat="59.0844032541" lon="30.0192177482"><ele>69.45</ele><time>2026-04-20T11:26:23Z</time></trkpt><trkpt lat="59.0844577365" lon="30.0191998109"><ele>68.40</ele><time>2026-04-20T11:26:54Z</time></trkpt><trkpt lat="59.0844567306" lon="30.0192058459"><ele>68.61</ele><time>2026-04-20T11:27:06Z</time></trkpt><trkpt lat="59.0844412241" lon="30.0191889144"><ele>67.11</ele><time>2026-04-20T11:27:13Z</time></trkpt><trkpt lat="59.0844518691" lon="30.0193014834"><ele>68.48</ele><time>2026-04-20T11:27:33Z</time></trkpt><trkpt lat="59.0845071897" lon="30.0194301456"><ele>67.94</ele><time>2026-04-20T11:27:52Z</time></trkpt><trkpt lat="59.0844807867" lon="30.0196826924"><ele>67.84</ele><time>2026-04-20T11:28:12Z</time></trkpt><trkpt lat="59.0844648611" lon="30.0197133701"><ele>67.68</ele><time>2026-04-20T11:28:14Z</time></trkpt><trkpt lat="59.0844662022" lon="30.0197370071"><ele>68.21</ele><time>2026-04-20T11:28:16Z</time></trkpt><trkpt lat="59.0844786912" lon="30.0198384281"><ele>68.58</ele><time>2026-04-20T11:28:25Z</time></trkpt><trkpt lat="59.0844830498" lon="30.0199993607"><ele>68.12</ele><time>2026-04-20T11:28:43Z</time></trkpt><trkpt lat="59.0845151525" lon="30.0200049765"><ele>67.76</ele><time>2026-04-20T11:29:07Z</time></trkpt><trkpt lat="59.0844962094" lon="30.0201023743"><ele>67.33</ele><time>2026-04-20T11:29:20Z</time></trkpt><trkpt lat="59.0844968800" lon="30.0203385763"><ele>67.99</ele><time>2026-04-20T11:29:42Z</time></trkpt><trkpt lat="59.0844954550" lon="30.0203515682"><ele>68.28</ele><time>2026-04-20T11:29:43Z</time></trkpt><trkpt lat="59.0845094528" lon="30.0206580106"><ele>68.70</ele><time>2026-04-20T11:30:07Z</time></trkpt><trkpt lat="59.0845373645" lon="30.0207959767"><ele>68.73</ele><time>2026-04-20T11:30:27Z</time></trkpt><trkpt lat="59.0845524520" lon="30.0208238885"><ele>67.76</ele><time>2026-04-20T11:30:32Z</time></trkpt><trkpt lat="59.0845845547" lon="30.0210219529"><ele>68.21</ele><time>2026-04-20T11:30:51Z</time></trkpt><trkpt lat="59.0846486762" lon="30.0212647766"><ele>67.99</ele><time>2026-04-20T11:31:15Z</time></trkpt><trkpt lat="59.0846595727" lon="30.0215122942"><ele>67.41</ele><time>2026-04-20T11:31:35Z</time></trkpt><trkpt lat="59.0846609138" lon="30.0216500089"><ele>67.12</ele><time>2026-04-20T11:31:50Z</time></trkpt><trkpt lat="59.0847184975" lon="30.0218011346"><ele>67.85</ele><time>2026-04-20T11:32:09Z</time></trkpt><trkpt lat="59.0846714750" lon="30.0219136197"><ele>66.73</ele><time>2026-04-20T11:32:37Z</time></trkpt><trkpt lat="59.0846941061" lon="30.0219334848"><ele>67.27</ele><time>2026-04-20T11:33:11Z</time></trkpt><trkpt lat="59.0847094450" lon="30.0220452156"><ele>67.24</ele><time>2026-04-20T11:33:33Z</time></trkpt><trkpt lat="59.0847423021" lon="30.0222096685"><ele>68.41</ele><time>2026-04-20T11:33:56Z</time></trkpt><trkpt lat="59.0847345069" lon="30.0223122630"><ele>67.71</ele><time>2026-04-20T11:34:08Z</time></trkpt><trkpt lat="59.0847280528" lon="30.0223493110"><ele>67.10</ele><time>2026-04-20T11:34:10Z</time></trkpt><trkpt lat="59.0847268794" lon="30.0225911289"><ele>67.90</ele><time>2026-04-20T11:34:32Z</time></trkpt><trkpt lat="59.0847506002" lon="30.0226277579"><ele>67.91</ele><time>2026-04-20T11:34:37Z</time></trkpt><trkpt lat="59.0848234389" lon="30.0228378922"><ele>67.96</ele><time>2026-04-20T11:34:55Z</time></trkpt><trkpt lat="59.0848660190" lon="30.0228913687"><ele>67.40</ele><time>2026-04-20T11:35:01Z</time></trkpt><trkpt lat="59.0848524403" lon="30.0232544728"><ele>68.21</ele><time>2026-04-20T11:35:25Z</time></trkpt><trkpt lat="59.0848662704" lon="30.0233942829"><ele>68.64</ele><time>2026-04-20T11:35:46Z</time></trkpt><trkpt lat="59.0848939307" lon="30.0235600770"><ele>67.98</ele><time>2026-04-20T11:36:11Z</time></trkpt><trkpt lat="59.0849213395" lon="30.0238572992"><ele>67.89</ele><time>2026-04-20T11:36:32Z</time></trkpt><trkpt lat="59.0848976187" lon="30.0241113547"><ele>67.36</ele><time>2026-04-20T11:36:52Z</time></trkpt><trkpt lat="59.0849259496" lon="30.0243499037"><ele>67.91</ele><time>2026-04-20T11:37:15Z</time></trkpt><trkpt lat="59.0849334933" lon="30.0243747141"><ele>66.84</ele><time>2026-04-20T11:37:36Z</time></trkpt><trkpt lat="59.0849154722" lon="30.0244317111"><ele>67.74</ele><time>2026-04-20T11:38:06Z</time></trkpt><trkpt lat="59.0849719662" lon="30.0245213974"><ele>67.56</ele><time>2026-04-20T11:38:35Z</time></trkpt><trkpt lat="59.0850562882" lon="30.0245803222"><ele>68.54</ele><time>2026-04-20T11:38:56Z</time></trkpt><trkpt lat="59.0850482415" lon="30.0246469583"><ele>67.59</ele><time>2026-04-20T11:39:17Z</time></trkpt><trkpt lat="59.0850696992" lon="30.0247530732"><ele>66.96</ele><time>2026-04-20T11:39:42Z</time></trkpt><trkpt lat="59.0850706212" lon="30.0248943921"><ele>68.68</ele><time>2026-04-20T11:39:49Z</time></trkpt><trkpt lat="59.0851132851" lon="30.0249673985"><ele>66.95</ele><time>2026-04-20T11:40:10Z</time></trkpt><trkpt lat="59.0851693600" lon="30.0249931309"><ele>68.58</ele><time>2026-04-20T11:40:30Z</time></trkpt><trkpt lat="59.0852827672" lon="30.0249080546"><ele>68.03</ele><time>2026-04-20T11:40:49Z</time></trkpt><trkpt lat="59.0853776503" lon="30.0248829089"><ele>68.31</ele><time>2026-04-20T11:41:09Z</time></trkpt><trkpt lat="59.0854755510" lon="30.0248141773"><ele>67.47</ele><time>2026-04-20T11:41:28Z</time></trkpt><trkpt lat="59.0854984336" lon="30.0248031970"><ele>67.50</ele><time>2026-04-20T11:41:47Z</time></trkpt><trkpt lat="59.0854784008" lon="30.0248536561"><ele>67.17</ele><time>2026-04-20T11:42:03Z</time></trkpt><trkpt lat="59.0854363237" lon="30.0248216372"><ele>66.99</ele><time>2026-04-20T11:42:15Z</time></trkpt><trkpt lat="59.0853714477" lon="30.0248460285"><ele>67.42</ele><time>2026-04-20T11:42:25Z</time></trkpt><trkpt lat="59.0852289554" lon="30.0249210466"><ele>67.44</ele><time>2026-04-20T11:42:48Z</time></trkpt><trkpt lat="59.0851830225" lon="30.0249664765"><ele>67.72</ele><time>2026-04-20T11:42:55Z</time></trkpt><trkpt lat="59.0851463936" lon="30.0249906164"><ele>67.36</ele><time>2026-04-20T11:43:02Z</time></trkpt><trkpt lat="59.0851091780" lon="30.0250052009"><ele>67.32</ele><time>2026-04-20T11:43:10Z</time></trkpt><trkpt lat="59.0851003770" lon="30.0250284187"><ele>67.51</ele><time>2026-04-20T11:43:12Z</time></trkpt><trkpt lat="59.0849940106" lon="30.0252170954"><ele>67.98</ele><time>2026-04-20T11:43:32Z</time></trkpt><trkpt lat="59.0849140473" lon="30.0253197737"><ele>67.86</ele><time>2026-04-20T11:43:49Z</time></trkpt><trkpt lat="59.0848351736" lon="30.0253617670"><ele>67.61</ele><time>2026-04-20T11:44:06Z</time></trkpt><trkpt lat="59.0848464053" lon="30.0254569016"><ele>68.81</ele><time>2026-04-20T11:44:26Z</time></trkpt><trkpt lat="59.0848465730" lon="30.0254639424"><ele>67.15</ele><time>2026-04-20T11:44:31Z</time></trkpt><trkpt lat="59.0848463215" lon="30.0254674628"><ele>67.45</ele><time>2026-04-20T11:44:59Z</time></trkpt><trkpt lat="59.0847930126" lon="30.0254592486"><ele>68.29</ele><time>2026-04-20T11:45:21Z</time></trkpt><trkpt lat="59.0847337525" lon="30.0254091248"><ele>67.67</ele><time>2026-04-20T11:45:29Z</time></trkpt><trkpt lat="59.0846349299" lon="30.0254895911"><ele>68.13</ele><time>2026-04-20T11:45:52Z</time></trkpt><trkpt lat="59.0846681222" lon="30.0257711392"><ele>68.01</ele><time>2026-04-20T11:46:10Z</time></trkpt><trkpt lat="59.0847382788" lon="30.0260167290"><ele>66.93</ele><time>2026-04-20T11:46:28Z</time></trkpt><trkpt lat="59.0847232752" lon="30.0262402743"><ele>67.66</ele><time>2026-04-20T11:46:45Z</time></trkpt><trkpt lat="59.0847103670" lon="30.0263556093"><ele>67.73</ele><time>2026-04-20T11:46:53Z</time></trkpt><trkpt lat="59.0846709721" lon="30.0265417714"><ele>68.25</ele><time>2026-04-20T11:47:09Z</time></trkpt><trkpt lat="59.0846281406" lon="30.0266890414"><ele>68.26</ele><time>2026-04-20T11:47:30Z</time></trkpt><trkpt lat="59.0845462494" lon="30.0269066356"><ele>68.26</ele><time>2026-04-20T11:47:53Z</time></trkpt><trkpt lat="59.0845327545" lon="30.0270640478"><ele>68.46</ele><time>2026-04-20T11:48:07Z</time></trkpt><trkpt lat="59.0845801961" lon="30.0272326916"><ele>68.35</ele><time>2026-04-20T11:48:20Z</time></trkpt><trkpt lat="59.0846174955" lon="30.0273864996"><ele>68.30</ele><time>2026-04-20T11:48:32Z</time></trkpt><trkpt lat="59.0847193357" lon="30.0275150780"><ele>68.13</ele><time>2026-04-20T11:48:47Z</time></trkpt><trkpt lat="59.0847480018" lon="30.0275755953"><ele>67.92</ele><time>2026-04-20T11:49:02Z</time></trkpt><trkpt lat="59.0847488400" lon="30.0275828037"><ele>66.91</ele><time>2026-04-20T11:49:04Z</time></trkpt><trkpt lat="59.0847678669" lon="30.0276892539"><ele>67.49</ele><time>2026-04-20T11:49:21Z</time></trkpt><trkpt lat="59.0847939346" lon="30.0277044252"><ele>67.27</ele><time>2026-04-20T11:49:49Z</time></trkpt><trkpt lat="59.0847734828" lon="30.0277190097"><ele>67.28</ele><time>2026-04-20T11:50:21Z</time></trkpt><trkpt lat="59.0848071780" lon="30.0277007371"><ele>68.18</ele><time>2026-04-20T11:50:45Z</time></trkpt><trkpt lat="59.0848744847" lon="30.0276297424"><ele>67.27</ele><time>2026-04-20T11:51:03Z</time></trkpt><trkpt lat="59.0849923342" lon="30.0275748409"><ele>67.74</ele><time>2026-04-20T11:51:23Z</time></trkpt><trkpt lat="59.0850026440" lon="30.0275631063"><ele>66.91</ele><time>2026-04-20T11:51:25Z</time></trkpt><trkpt lat="59.0851173922" lon="30.0275700632"><ele>66.86</ele><time>2026-04-20T11:51:46Z</time></trkpt><trkpt lat="59.0851916559" lon="30.0275439117"><ele>63.61</ele><time>2026-04-20T11:51:59Z</time></trkpt><trkpt lat="59.0851950087" lon="30.0275267288"><ele>67.71</ele><time>2026-04-20T11:52:00Z</time></trkpt><trkpt lat="59.0853015427" lon="30.0274242181"><ele>67.09</ele><time>2026-04-20T11:52:21Z</time></trkpt><trkpt lat="59.0853675082" lon="30.0274571590"><ele>66.52</ele><time>2026-04-20T11:52:42Z</time></trkpt><trkpt lat="59.0854429454" lon="30.0274387188"><ele>65.44</ele><time>2026-04-20T11:53:08Z</time></trkpt><trkpt lat="59.0854616370" lon="30.0274125673"><ele>65.87</ele><time>2026-04-20T11:53:42Z</time></trkpt><trkpt lat="59.0854329709" lon="30.0274797063"><ele>66.78</ele><time>2026-04-20T11:54:08Z</time></trkpt><trkpt lat="59.0854131058" lon="30.0275019184"><ele>66.84</ele><time>2026-04-20T11:54:33Z</time></trkpt><trkpt lat="59.0854098368" lon="30.0276451651"><ele>65.12</ele><time>2026-04-20T11:54:57Z</time></trkpt><trkpt lat="59.0854298696" lon="30.0278802775"><ele>65.48</ele><time>2026-04-20T11:55:20Z</time></trkpt><trkpt lat="59.0854960028" lon="30.0279873144"><ele>65.59</ele><time>2026-04-20T11:55:34Z</time></trkpt><trkpt lat="59.0855041333" lon="30.0281045772"><ele>66.14</ele><time>2026-04-20T11:55:40Z</time></trkpt><trkpt lat="59.0855385829" lon="30.0283197407"><ele>65.75</ele><time>2026-04-20T11:56:01Z</time></trkpt><trkpt lat="59.0855385829" lon="30.0285720360"><ele>65.99</ele><time>2026-04-20T11:56:17Z</time></trkpt><trkpt lat="59.0855055582" lon="30.0288096629"><ele>66.08</ele><time>2026-04-20T11:56:35Z</time></trkpt><trkpt lat="59.0855567716" lon="30.0290103257"><ele>65.80</ele><time>2026-04-20T11:56:59Z</time></trkpt><trkpt lat="59.0855689254" lon="30.0291606970"><ele>65.78</ele><time>2026-04-20T11:57:11Z</time></trkpt><trkpt lat="59.0855851024" lon="30.0291885249"><ele>66.00</ele><time>2026-04-20T11:57:14Z</time></trkpt><trkpt lat="59.0855762176" lon="30.0292364694"><ele>65.50</ele><time>2026-04-20T11:57:17Z</time></trkpt><trkpt lat="59.0855781455" lon="30.0292782113"><ele>65.87</ele><time>2026-04-20T11:57:20Z</time></trkpt><trkpt lat="59.0856011957" lon="30.0295011699"><ele>65.65</ele><time>2026-04-20T11:57:39Z</time></trkpt><trkpt lat="59.0856181271" lon="30.0295280758"><ele>65.74</ele><time>2026-04-20T11:57:45Z</time></trkpt><trkpt lat="59.0856100805" lon="30.0296167564"><ele>65.39</ele><time>2026-04-20T11:57:52Z</time></trkpt><trkpt lat="59.0856353939" lon="30.0297715701"><ele>66.33</ele><time>2026-04-20T11:58:12Z</time></trkpt><trkpt lat="59.0856226534" lon="30.0299211033"><ele>67.07</ele><time>2026-04-20T11:58:27Z</time></trkpt><trkpt lat="59.0856490564" lon="30.0301185809"><ele>65.98</ele><time>2026-04-20T11:58:44Z</time></trkpt><trkpt lat="59.0856940672" lon="30.0302343350"><ele>66.36</ele><time>2026-04-20T11:58:59Z</time></trkpt><trkpt lat="59.0857123397" lon="30.0303052459"><ele>66.93</ele><time>2026-04-20T11:59:22Z</time></trkpt><trkpt lat="59.0857674927" lon="30.0303115323"><ele>66.62</ele><time>2026-04-20T11:59:53Z</time></trkpt><trkpt lat="59.0857832506" lon="30.0304635800"><ele>66.22</ele><time>2026-04-20T12:00:17Z</time></trkpt><trkpt lat="59.0857768804" lon="30.0304815173"><ele>66.17</ele><time>2026-04-20T12:00:19Z</time></trkpt><trkpt lat="59.0857512318" lon="30.0306782406"><ele>66.20</ele><time>2026-04-20T12:00:37Z</time></trkpt><trkpt lat="59.0857963264" lon="30.0308949128"><ele>66.67</ele><time>2026-04-20T12:01:01Z</time></trkpt><trkpt lat="59.0858800616" lon="30.0311513152"><ele>66.59</ele><time>2026-04-20T12:01:22Z</time></trkpt><trkpt lat="59.0858949814" lon="30.0312157720"><ele>66.84</ele><time>2026-04-20T12:01:30Z</time></trkpt><trkpt lat="59.0859084763" lon="30.0313172769"><ele>66.20</ele><time>2026-04-20T12:01:39Z</time></trkpt><trkpt lat="59.0859442670" lon="30.0314864237"><ele>66.38</ele><time>2026-04-20T12:01:59Z</time></trkpt><trkpt lat="59.0859521460" lon="30.0317272358"><ele>66.97</ele><time>2026-04-20T12:02:24Z</time></trkpt><trkpt lat="59.0859631263" lon="30.0317699835"><ele>65.98</ele><time>2026-04-20T12:02:30Z</time></trkpt><trkpt lat="59.0859995037" lon="30.0319982227"><ele>66.29</ele><time>2026-04-20T12:02:50Z</time></trkpt><trkpt lat="59.0860297624" lon="30.0323066767"><ele>65.74</ele><time>2026-04-20T12:03:16Z</time></trkpt><trkpt lat="59.0860212967" lon="30.0323733129"><ele>65.95</ele><time>2026-04-20T12:03:23Z</time></trkpt><trkpt lat="59.0860167705" lon="30.0324280467"><ele>66.42</ele><time>2026-04-20T12:03:28Z</time></trkpt><trkpt lat="59.0860205423" lon="30.0324949343"><ele>66.28</ele><time>2026-04-20T12:03:34Z</time></trkpt><trkpt lat="59.0860150103" lon="30.0325805973"><ele>66.54</ele><time>2026-04-20T12:03:40Z</time></trkpt><trkpt lat="59.0860596020" lon="30.0326238479"><ele>66.19</ele><time>2026-04-20T12:04:05Z</time></trkpt><trkpt lat="59.0860518906" lon="30.0327419490"><ele>65.50</ele><time>2026-04-20T12:04:35Z</time></trkpt><trkpt lat="59.0860881004" lon="30.0327663403"><ele>66.29</ele><time>2026-04-20T12:05:01Z</time></trkpt><trkpt lat="59.0861186944" lon="30.0330048054"><ele>66.87</ele><time>2026-04-20T12:05:25Z</time></trkpt><trkpt lat="59.0861413255" lon="30.0332033727"><ele>66.69</ele><time>2026-04-20T12:05:48Z</time></trkpt><trkpt lat="59.0861395653" lon="30.0334021077"><ele>65.79</ele><time>2026-04-20T12:06:05Z</time></trkpt><trkpt lat="59.0861394815" lon="30.0334953144"><ele>67.18</ele><time>2026-04-20T12:06:16Z</time></trkpt><trkpt lat="59.0861275792" lon="30.0335721765"><ele>66.58</ele><time>2026-04-20T12:06:23Z</time></trkpt><trkpt lat="59.0862134937" lon="30.0338247232"><ele>66.87</ele><time>2026-04-20T12:06:49Z</time></trkpt><trkpt lat="59.0862269048" lon="30.0339436624"><ele>66.94</ele><time>2026-04-20T12:07:01Z</time></trkpt><trkpt lat="59.0862976480" lon="30.0341986399"><ele>67.73</ele><time>2026-04-20T12:07:27Z</time></trkpt><trkpt lat="59.0863031801" lon="30.0342930201"><ele>68.03</ele><time>2026-04-20T12:07:38Z</time></trkpt><trkpt lat="59.0863091312" lon="30.0345313177"><ele>68.04</ele><time>2026-04-20T12:07:57Z</time></trkpt><trkpt lat="59.0863140766" lon="30.0345595647"><ele>67.37</ele><time>2026-04-20T12:08:00Z</time></trkpt><trkpt lat="59.0863306727" lon="30.0347903185"><ele>67.58</ele><time>2026-04-20T12:08:23Z</time></trkpt><trkpt lat="59.0863302536" lon="30.0347970240"><ele>67.12</ele><time>2026-04-20T12:08:25Z</time></trkpt><trkpt lat="59.0863847360" lon="30.0350432843"><ele>67.06</ele><time>2026-04-20T12:08:49Z</time></trkpt><trkpt lat="59.0863895975" lon="30.0351252593"><ele>67.31</ele><time>2026-04-20T12:08:57Z</time></trkpt><trkpt lat="59.0863579977" lon="30.0352765527"><ele>67.52</ele><time>2026-04-20T12:09:29Z</time></trkpt><trkpt lat="59.0863725822" lon="30.0352952443"><ele>67.24</ele><time>2026-04-20T12:09:57Z</time></trkpt><trkpt lat="59.0864039306" lon="30.0352641474"><ele>68.13</ele><time>2026-04-20T12:10:19Z</time></trkpt><trkpt lat="59.0864488576" lon="30.0352478027"><ele>66.68</ele><time>2026-04-20T12:10:40Z</time></trkpt><trkpt lat="59.0864655375" lon="30.0351913925"><ele>66.82</ele><time>2026-04-20T12:11:07Z</time></trkpt><trkpt lat="59.0864331834" lon="30.0353044644"><ele>66.76</ele><time>2026-04-20T12:11:30Z</time></trkpt><trkpt lat="59.0864689741" lon="30.0355152693"><ele>67.84</ele><time>2026-04-20T12:11:52Z</time></trkpt><trkpt lat="59.0864817984" lon="30.0355622917"><ele>67.68</ele><time>2026-04-20T12:11:57Z</time></trkpt><trkpt lat="59.0864876658" lon="30.0356367230"><ele>68.06</ele><time>2026-04-20T12:12:04Z</time></trkpt><trkpt lat="59.0865227859" lon="30.0358201191"><ele>67.91</ele><time>2026-04-20T12:12:23Z</time></trkpt><trkpt lat="59.0865361970" lon="30.0359066203"><ele>68.43</ele><time>2026-04-20T12:12:33Z</time></trkpt><trkpt lat="59.0865282342" lon="30.0359611027"><ele>69.52</ele><time>2026-04-20T12:12:40Z</time></trkpt><trkpt lat="59.0865149070" lon="30.0360533036"><ele>69.55</ele><time>2026-04-20T12:12:49Z</time></trkpt><trkpt lat="59.0865292400" lon="30.0361641124"><ele>69.27</ele><time>2026-04-20T12:13:06Z</time></trkpt><trkpt lat="59.0865252167" lon="30.0362085365"><ele>68.65</ele><time>2026-04-20T12:13:10Z</time></trkpt><trkpt lat="59.0865457524" lon="30.0363469217"><ele>68.81</ele><time>2026-04-20T12:13:29Z</time></trkpt><trkpt lat="59.0865529608" lon="30.0364257954"><ele>68.62</ele><time>2026-04-20T12:13:37Z</time></trkpt><trkpt lat="59.0865672939" lon="30.0365820341"><ele>69.00</ele><time>2026-04-20T12:13:52Z</time></trkpt><trkpt lat="59.0865714010" lon="30.0366949383"><ele>65.25</ele><time>2026-04-20T12:14:03Z</time></trkpt><trkpt lat="59.0865781903" lon="30.0367019791"><ele>65.28</ele><time>2026-04-20T12:14:04Z</time></trkpt><trkpt lat="59.0865946189" lon="30.0367177371"><ele>67.91</ele><time>2026-04-20T12:14:08Z</time></trkpt><trkpt lat="59.0866374504" lon="30.0369497482"><ele>68.59</ele><time>2026-04-20T12:14:32Z</time></trkpt><trkpt lat="59.0866335109" lon="30.0371987745"><ele>68.85</ele><time>2026-04-20T12:14:58Z</time></trkpt><trkpt lat="59.0866210219" lon="30.0372614712"><ele>69.31</ele><time>2026-04-20T12:15:05Z</time></trkpt><trkpt lat="59.0866356064" lon="30.0374187995"><ele>69.14</ele><time>2026-04-20T12:15:20Z</time></trkpt><trkpt lat="59.0866404679" lon="30.0374290254"><ele>68.70</ele><time>2026-04-20T12:15:21Z</time></trkpt><trkpt lat="59.0867298190" lon="30.0377005152"><ele>67.93</ele><time>2026-04-20T12:15:48Z</time></trkpt><trkpt lat="59.0867364407" lon="30.0377611164"><ele>67.51</ele><time>2026-04-20T12:15:53Z</time></trkpt><trkpt lat="59.0867581498" lon="30.0378501322"><ele>68.10</ele><time>2026-04-20T12:16:00Z</time></trkpt><trkpt lat="59.0867790207" lon="30.0380356237"><ele>67.25</ele><time>2026-04-20T12:16:24Z</time></trkpt><trkpt lat="59.0867989697" lon="30.0380526390"><ele>68.29</ele><time>2026-04-20T12:16:33Z</time></trkpt><trkpt lat="59.0868172422" lon="30.0380331092"><ele>68.57</ele><time>2026-04-20T12:17:01Z</time></trkpt><trkpt lat="59.0868122969" lon="30.0380541477"><ele>67.50</ele><time>2026-04-20T12:17:29Z</time></trkpt><trkpt lat="59.0868305694" lon="30.0382092129"><ele>68.22</ele><time>2026-04-20T12:17:44Z</time></trkpt><trkpt lat="59.0868231095" lon="30.0384835526"><ele>67.67</ele><time>2026-04-20T12:18:06Z</time></trkpt><trkpt lat="59.0868376102" lon="30.0384570658"><ele>67.77</ele><time>2026-04-20T12:18:29Z</time></trkpt><trkpt lat="59.0868991334" lon="30.0384374522"><ele>67.31</ele><time>2026-04-20T12:18:58Z</time></trkpt><trkpt lat="59.0869526099" lon="30.0383993983"><ele>66.42</ele><time>2026-04-20T12:19:23Z</time></trkpt><trkpt lat="59.0868792683" lon="30.0383429043"><ele>66.62</ele><time>2026-04-20T12:19:45Z</time></trkpt><trkpt lat="59.0868470818" lon="30.0384609215"><ele>68.09</ele><time>2026-04-20T12:20:05Z</time></trkpt><trkpt lat="59.0868437290" lon="30.0385789387"><ele>68.84</ele><time>2026-04-20T12:20:20Z</time></trkpt><trkpt lat="59.0868561342" lon="30.0387857202"><ele>67.78</ele><time>2026-04-20T12:20:45Z</time></trkpt><trkpt lat="59.0868589003" lon="30.0388365146"><ele>69.29</ele><time>2026-04-20T12:20:49Z</time></trkpt><trkpt lat="59.0868722275" lon="30.0388963614"><ele>68.94</ele><time>2026-04-20T12:20:54Z</time></trkpt><trkpt lat="59.0868486743" lon="30.0391477346"><ele>68.82</ele><time>2026-04-20T12:21:15Z</time></trkpt><trkpt lat="59.0868440643" lon="30.0391955115"><ele>68.71</ele><time>2026-04-20T12:21:21Z</time></trkpt><trkpt lat="59.0868409630" lon="30.0393318851"><ele>68.41</ele><time>2026-04-20T12:21:36Z</time></trkpt><trkpt lat="59.0868693776" lon="30.0394335575"><ele>69.54</ele><time>2026-04-20T12:21:50Z</time></trkpt><trkpt lat="59.0869101975" lon="30.0395421032"><ele>69.11</ele><time>2026-04-20T12:22:00Z</time></trkpt><trkpt lat="59.0869352594" lon="30.0397386588"><ele>68.02</ele><time>2026-04-20T12:22:24Z</time></trkpt><trkpt lat="59.0869366843" lon="30.0397499744"><ele>70.51</ele><time>2026-04-20T12:22:27Z</time></trkpt><trkpt lat="59.0869597346" lon="30.0398842525"><ele>69.28</ele><time>2026-04-20T12:22:41Z</time></trkpt><trkpt lat="59.0869876463" lon="30.0400513038"><ele>69.37</ele><time>2026-04-20T12:23:02Z</time></trkpt><trkpt lat="59.0870341659" lon="30.0402476918"><ele>69.16</ele><time>2026-04-20T12:23:22Z</time></trkpt><trkpt lat="59.0870365966" lon="30.0403273199"><ele>69.17</ele><time>2026-04-20T12:23:31Z</time></trkpt><trkpt lat="59.0870274603" lon="30.0405080337"><ele>70.18</ele><time>2026-04-20T12:23:50Z</time></trkpt><trkpt lat="59.0870080981" lon="30.0405216124"><ele>69.13</ele><time>2026-04-20T12:24:23Z</time></trkpt><trkpt lat="59.0870801825" lon="30.0404883362"><ele>69.06</ele><time>2026-04-20T12:24:54Z</time></trkpt><trkpt lat="59.0870764945" lon="30.0405019149"><ele>68.63</ele><time>2026-04-20T12:25:21Z</time></trkpt><trkpt lat="59.0870815236" lon="30.0405225344"><ele>68.70</ele><time>2026-04-20T12:25:24Z</time></trkpt><trkpt lat="59.0870941803" lon="30.0405900087"><ele>68.98</ele><time>2026-04-20T12:25:30Z</time></trkpt><trkpt lat="59.0870903246" lon="30.0407765899"><ele>68.58</ele><time>2026-04-20T12:25:46Z</time></trkpt><trkpt lat="59.0871196613" lon="30.0408734847"><ele>68.79</ele><time>2026-04-20T12:25:59Z</time></trkpt><trkpt lat="59.0871112794" lon="30.0410035718"><ele>69.65</ele><time>2026-04-20T12:26:09Z</time></trkpt><trkpt lat="59.0871447232" lon="30.0411885604"><ele>69.05</ele><time>2026-04-20T12:26:33Z</time></trkpt><trkpt lat="59.0871485788" lon="30.0412385166"><ele>68.27</ele><time>2026-04-20T12:26:38Z</time></trkpt><trkpt lat="59.0871390235" lon="30.0412753969"><ele>68.28</ele><time>2026-04-20T12:26:40Z</time></trkpt><trkpt lat="59.0871083457" lon="30.0414621457"><ele>69.86</ele><time>2026-04-20T12:26:56Z</time></trkpt><trkpt lat="59.0871094353" lon="30.0415014569"><ele>69.71</ele><time>2026-04-20T12:26:59Z</time></trkpt><trkpt lat="59.0871100221" lon="30.0415895507"><ele>69.11</ele><time>2026-04-20T12:27:06Z</time></trkpt><trkpt lat="59.0871365089" lon="30.0415977649"><ele>69.88</ele><time>2026-04-20T12:27:13Z</time></trkpt><trkpt lat="59.0871733893" lon="30.0417140219"><ele>68.40</ele><time>2026-04-20T12:27:29Z</time></trkpt><trkpt lat="59.0872438811" lon="30.0418847613"><ele>68.98</ele><time>2026-04-20T12:27:43Z</time></trkpt><trkpt lat="59.0872660931" lon="30.0419993419"><ele>68.61</ele><time>2026-04-20T12:27:54Z</time></trkpt><trkpt lat="59.0872793365" lon="30.0421458576"><ele>67.92</ele><time>2026-04-20T12:28:08Z</time></trkpt><trkpt lat="59.0872764029" lon="30.0423059519"><ele>70.10</ele><time>2026-04-20T12:28:28Z</time></trkpt><trkpt lat="59.0872775763" lon="30.0423223805"><ele>69.29</ele><time>2026-04-20T12:28:32Z</time></trkpt><trkpt lat="59.0873044822" lon="30.0424766913"><ele>70.52</ele><time>2026-04-20T12:28:56Z</time></trkpt><trkpt lat="59.0872986149" lon="30.0426109694"><ele>69.84</ele><time>2026-04-20T12:29:06Z</time></trkpt><trkpt lat="59.0873302985" lon="30.0427363627"><ele>69.91</ele><time>2026-04-20T12:29:18Z</time></trkpt><trkpt lat="59.0873056557" lon="30.0428360235"><ele>68.56</ele><time>2026-04-20T12:29:41Z</time></trkpt><trkpt lat="59.0873100981" lon="30.0428406335"><ele>70.18</ele><time>2026-04-20T12:29:44Z</time></trkpt><trkpt lat="59.0872835275" lon="30.0429192558"><ele>68.42</ele><time>2026-04-20T12:30:18Z</time></trkpt><trkpt lat="59.0872421209" lon="30.0429684576"><ele>69.65</ele><time>2026-04-20T12:31:02Z</time></trkpt><trkpt lat="59.0873286221" lon="30.0429251231"><ele>69.50</ele><time>2026-04-20T12:31:25Z</time></trkpt><trkpt lat="59.0873178095" lon="30.0429848861"><ele>69.61</ele><time>2026-04-20T12:31:33Z</time></trkpt><trkpt lat="59.0873102657" lon="30.0430624187"><ele>69.64</ele><time>2026-04-20T12:31:36Z</time></trkpt><trkpt lat="59.0873177256" lon="30.0432109460"><ele>69.78</ele><time>2026-04-20T12:31:50Z</time></trkpt><trkpt lat="59.0873501636" lon="30.0434429571"><ele>68.99</ele><time>2026-04-20T12:32:09Z</time></trkpt><trkpt lat="59.0873537678" lon="30.0435435399"><ele>69.63</ele><time>2026-04-20T12:32:24Z</time></trkpt><trkpt lat="59.0873548575" lon="30.0436416920"><ele>69.38</ele><time>2026-04-20T12:32:42Z</time></trkpt><trkpt lat="59.0873411950" lon="30.0436324719"><ele>70.02</ele><time>2026-04-20T12:33:06Z</time></trkpt><trkpt lat="59.0873376746" lon="30.0436744653"><ele>71.16</ele><time>2026-04-20T12:33:14Z</time></trkpt><trkpt lat="59.0873188991" lon="30.0437468849"><ele>70.21</ele><time>2026-04-20T12:33:24Z</time></trkpt><trkpt lat="59.0873764828" lon="30.0439450331"><ele>69.99</ele><time>2026-04-20T12:33:48Z</time></trkpt><trkpt lat="59.0874062385" lon="30.0440736115"><ele>69.04</ele><time>2026-04-20T12:34:09Z</time></trkpt><trkpt lat="59.0874159615" lon="30.0441968255"><ele>70.24</ele><time>2026-04-20T12:34:32Z</time></trkpt><trkpt lat="59.0874100104" lon="30.0443170220"><ele>70.47</ele><time>2026-04-20T12:34:53Z</time></trkpt><trkpt lat="59.0874068253" lon="30.0443354622"><ele>70.27</ele><time>2026-04-20T12:34:54Z</time></trkpt><trkpt lat="59.0874521714" lon="30.0444817264"><ele>70.42</ele><time>2026-04-20T12:35:12Z</time></trkpt><trkpt lat="59.0874590445" lon="30.0445308443"><ele>71.29</ele><time>2026-04-20T12:35:34Z</time></trkpt><trkpt lat="59.0874991100" lon="30.0446459278"><ele>70.24</ele><time>2026-04-20T12:35:53Z</time></trkpt><trkpt lat="59.0875112638" lon="30.0448185112"><ele>70.07</ele><time>2026-04-20T12:36:06Z</time></trkpt><trkpt lat="59.0875564422" lon="30.0450105406"><ele>70.64</ele><time>2026-04-20T12:36:24Z</time></trkpt><trkpt lat="59.0875868686" lon="30.0450225268"><ele>70.35</ele><time>2026-04-20T12:36:44Z</time></trkpt><trkpt lat="59.0875614714" lon="30.0450490136"><ele>70.57</ele><time>2026-04-20T12:36:58Z</time></trkpt><trkpt lat="59.0875086654" lon="30.0450869836"><ele>69.92</ele><time>2026-04-20T12:37:26Z</time></trkpt><trkpt lat="59.0875122696" lon="30.0450876541"><ele>70.19</ele><time>2026-04-20T12:37:29Z</time></trkpt><trkpt lat="59.0874907281" lon="30.0451625045"><ele>70.10</ele><time>2026-04-20T12:37:36Z</time></trkpt><trkpt lat="59.0874931589" lon="30.0452087726"><ele>69.67</ele><time>2026-04-20T12:37:43Z</time></trkpt><trkpt lat="59.0875020437" lon="30.0451846328"><ele>69.10</ele><time>2026-04-20T12:37:59Z</time></trkpt><trkpt lat="59.0875278600" lon="30.0450715609"><ele>71.43</ele><time>2026-04-20T12:38:24Z</time></trkpt><trkpt lat="59.0875079110" lon="30.0451706350"><ele>71.50</ele><time>2026-04-20T12:38:50Z</time></trkpt><trkpt lat="59.0875193942" lon="30.0451340899"><ele>70.62</ele><time>2026-04-20T12:38:55Z</time></trkpt><trkpt lat="59.0875692666" lon="30.0451395381"><ele>71.28</ele><time>2026-04-20T12:39:16Z</time></trkpt><trkpt lat="59.0876074042" lon="30.0452000555"><ele>70.89</ele><time>2026-04-20T12:39:29Z</time></trkpt><trkpt lat="59.0876351483" lon="30.0453110319"><ele>70.69</ele><time>2026-04-20T12:39:42Z</time></trkpt><trkpt lat="59.0876023751" lon="30.0452883169"><ele>71.41</ele><time>2026-04-20T12:40:34Z</time></trkpt><trkpt lat="59.0875422768" lon="30.0454194099"><ele>70.96</ele><time>2026-04-20T12:40:57Z</time></trkpt><trkpt lat="59.0875416901" lon="30.0454660133"><ele>71.85</ele><time>2026-04-20T12:41:07Z</time></trkpt><trkpt lat="59.0875223279" lon="30.0455255248"><ele>71.84</ele><time>2026-04-20T12:41:13Z</time></trkpt><trkpt lat="59.0874167159" lon="30.0456824340"><ele>72.10</ele><time>2026-04-20T12:41:32Z</time></trkpt><trkpt lat="59.0873621497" lon="30.0457709469"><ele>71.51</ele><time>2026-04-20T12:41:50Z</time></trkpt><trkpt lat="59.0873043146" lon="30.0457899738"><ele>71.74</ele><time>2026-04-20T12:42:04Z</time></trkpt><trkpt lat="59.0872544423" lon="30.0458044745"><ele>71.43</ele><time>2026-04-20T12:42:14Z</time></trkpt><trkpt lat="59.0871561226" lon="30.0458746310"><ele>72.20</ele><time>2026-04-20T12:42:31Z</time></trkpt><trkpt lat="59.0871251933" lon="30.0459624734"><ele>72.41</ele><time>2026-04-20T12:42:44Z</time></trkpt><trkpt lat="59.0870838705" lon="30.0460008625"><ele>71.03</ele><time>2026-04-20T12:42:50Z</time></trkpt><trkpt lat="59.0869993810" lon="30.0460416824"><ele>71.64</ele><time>2026-04-20T12:43:04Z</time></trkpt><trkpt lat="59.0869933460" lon="30.0460725278"><ele>71.56</ele><time>2026-04-20T12:43:10Z</time></trkpt><trkpt lat="59.0869583096" lon="30.0462554209"><ele>70.87</ele><time>2026-04-20T12:43:32Z</time></trkpt><trkpt lat="59.0869262908" lon="30.0464756973"><ele>71.42</ele><time>2026-04-20T12:43:49Z</time></trkpt><trkpt lat="59.0869298112" lon="30.0465067104"><ele>70.80</ele><time>2026-04-20T12:43:55Z</time></trkpt><trkpt lat="59.0868948586" lon="30.0466914475"><ele>71.74</ele><time>2026-04-20T12:44:10Z</time></trkpt><trkpt lat="59.0868863091" lon="30.0469744205"><ele>72.07</ele><time>2026-04-20T12:44:40Z</time></trkpt><trkpt lat="59.0867485944" lon="30.0472018216"><ele>72.33</ele><time>2026-04-20T12:44:58Z</time></trkpt><trkpt lat="59.0866099577" lon="30.0472438987"><ele>72.85</ele><time>2026-04-20T12:45:14Z</time></trkpt><trkpt lat="59.0865461715" lon="30.0472112931"><ele>71.36</ele><time>2026-04-20T12:45:34Z</time></trkpt><trkpt lat="59.0865124762" lon="30.0471361913"><ele>71.94</ele><time>2026-04-20T12:45:59Z</time></trkpt><trkpt lat="59.0865411423" lon="30.0472502690"><ele>71.82</ele><time>2026-04-20T12:46:30Z</time></trkpt><trkpt lat="59.0864919405" lon="30.0472319126"><ele>72.47</ele><time>2026-04-20T12:46:53Z</time></trkpt><trkpt lat="59.0864108037" lon="30.0471879914"><ele>72.50</ele><time>2026-04-20T12:47:08Z</time></trkpt><trkpt lat="59.0862957202" lon="30.0471116323"><ele>72.94</ele><time>2026-04-20T12:47:22Z</time></trkpt><trkpt lat="59.0861449298" lon="30.0471186731"><ele>72.16</ele><time>2026-04-20T12:47:42Z</time></trkpt><trkpt lat="59.0859925468" lon="30.0471032504"><ele>72.21</ele><time>2026-04-20T12:48:01Z</time></trkpt><trkpt lat="59.0858389903" lon="30.0470795296"><ele>73.20</ele><time>2026-04-20T12:48:20Z</time></trkpt><trkpt lat="59.0856700111" lon="30.0469289068"><ele>71.77</ele><time>2026-04-20T12:48:43Z</time></trkpt><trkpt lat="59.0854874533" lon="30.0467740931"><ele>71.88</ele><time>2026-04-20T12:49:06Z</time></trkpt><trkpt lat="59.0853029676" lon="30.0467377994"><ele>72.58</ele><time>2026-04-20T12:49:27Z</time></trkpt><trkpt lat="59.0852322243" lon="30.0467342790"><ele>72.15</ele><time>2026-04-20T12:49:39Z</time></trkpt><trkpt lat="59.0852031391" lon="30.0466762763"><ele>71.78</ele><time>2026-04-20T12:50:13Z</time></trkpt><trkpt lat="59.0850990359" lon="30.0466540642"><ele>71.56</ele><time>2026-04-20T12:50:53Z</time></trkpt><trkpt lat="59.0849773306" lon="30.0467341114"><ele>70.41</ele><time>2026-04-20T12:51:16Z</time></trkpt><trkpt lat="59.0849313140" lon="30.0466948003"><ele>71.60</ele><time>2026-04-20T12:51:24Z</time></trkpt><trkpt lat="59.0848281328" lon="30.0466269907"><ele>71.33</ele><time>2026-04-20T12:51:45Z</time></trkpt><trkpt lat="59.0848268755" lon="30.0466195308"><ele>71.30</ele><time>2026-04-20T12:51:46Z</time></trkpt><trkpt lat="59.0848096926" lon="30.0466116518"><ele>71.57</ele><time>2026-04-20T12:51:48Z</time></trkpt><trkpt lat="59.0847853851" lon="30.0465294253"><ele>71.96</ele><time>2026-04-20T12:51:57Z</time></trkpt><trkpt lat="59.0847699624" lon="30.0465130806"><ele>71.04</ele><time>2026-04-20T12:51:59Z</time></trkpt><trkpt lat="59.0846105386" lon="30.0463545788"><ele>71.94</ele><time>2026-04-20T12:52:15Z</time></trkpt><trkpt lat="59.0844562277" lon="30.0463398267"><ele>71.66</ele><time>2026-04-20T12:52:34Z</time></trkpt><trkpt lat="59.0843035094" lon="30.0464558322"><ele>72.16</ele><time>2026-04-20T12:52:55Z</time></trkpt><trkpt lat="59.0841540601" lon="30.0464406610"><ele>71.89</ele><time>2026-04-20T12:53:13Z</time></trkpt><trkpt lat="59.0840005036" lon="30.0465670601"><ele>71.05</ele><time>2026-04-20T12:53:32Z</time></trkpt><trkpt lat="59.0838755295" lon="30.0466530584"><ele>70.43</ele><time>2026-04-20T12:53:49Z</time></trkpt><trkpt lat="59.0838544071" lon="30.0466671400"><ele>71.11</ele><time>2026-04-20T12:53:55Z</time></trkpt><trkpt lat="59.0838104021" lon="30.0467192754"><ele>70.59</ele><time>2026-04-20T12:54:00Z</time></trkpt><trkpt lat="59.0837624576" lon="30.0466684811"><ele>71.04</ele><time>2026-04-20T12:54:24Z</time></trkpt><trkpt lat="59.0838088095" lon="30.0465974025"><ele>70.32</ele><time>2026-04-20T12:54:48Z</time></trkpt><trkpt lat="59.0837767906" lon="30.0466788746"><ele>70.84</ele><time>2026-04-20T12:55:35Z</time></trkpt><trkpt lat="59.0838312730" lon="30.0467181019"><ele>71.40</ele><time>2026-04-20T12:55:49Z</time></trkpt><trkpt lat="59.0838606097" lon="30.0466786232"><ele>71.19</ele><time>2026-04-20T12:56:05Z</time></trkpt><trkpt lat="59.0838197898" lon="30.0468022563"><ele>70.72</ele><time>2026-04-20T12:56:32Z</time></trkpt><trkpt lat="59.0837919619" lon="30.0470857322"><ele>71.56</ele><time>2026-04-20T12:56:51Z</time></trkpt><trkpt lat="59.0837963205" lon="30.0472696312"><ele>70.40</ele><time>2026-04-20T12:57:07Z</time></trkpt><trkpt lat="59.0838170238" lon="30.0473552942"><ele>69.77</ele><time>2026-04-20T12:57:14Z</time></trkpt><trkpt lat="59.0838194545" lon="30.0473961979"><ele>70.27</ele><time>2026-04-20T12:57:16Z</time></trkpt><trkpt lat="59.0839640424" lon="30.0477378443"><ele>71.62</ele><time>2026-04-20T12:57:35Z</time></trkpt><trkpt lat="59.0840560757" lon="30.0478748884"><ele>71.29</ele><time>2026-04-20T12:57:50Z</time></trkpt><trkpt lat="59.0841398109" lon="30.0479758903"><ele>71.30</ele><time>2026-04-20T12:58:15Z</time></trkpt><trkpt lat="59.0841742605" lon="30.0480620563"><ele>70.70</ele><time>2026-04-20T12:58:47Z</time></trkpt><trkpt lat="59.0842287429" lon="30.0480146986"><ele>72.10</ele><time>2026-04-20T12:59:17Z</time></trkpt><trkpt lat="59.0843224525" lon="30.0480503216"><ele>71.25</ele><time>2026-04-20T12:59:38Z</time></trkpt><trkpt lat="59.0843696427" lon="30.0480599608"><ele>71.75</ele><time>2026-04-20T12:59:44Z</time></trkpt><trkpt lat="59.0844134800" lon="30.0480680913"><ele>70.84</ele><time>2026-04-20T12:59:49Z</time></trkpt><trkpt lat="59.0845112968" lon="30.0480582006"><ele>72.23</ele><time>2026-04-20T13:00:07Z</time></trkpt><trkpt lat="59.0845102910" lon="30.0480815861"><ele>71.86</ele><time>2026-04-20T13:00:08Z</time></trkpt><trkpt lat="59.0846445691" lon="30.0481327996"><ele>71.49</ele><time>2026-04-20T13:00:22Z</time></trkpt><trkpt lat="59.0847522765" lon="30.0482493918"><ele>71.10</ele><time>2026-04-20T13:00:36Z</time></trkpt><trkpt lat="59.0848686174" lon="30.0483578537"><ele>71.60</ele><time>2026-04-20T13:00:53Z</time></trkpt><trkpt lat="59.0849397797" lon="30.0485220551"><ele>72.59</ele><time>2026-04-20T13:01:09Z</time></trkpt><trkpt lat="59.0849711280" lon="30.0486388151"><ele>72.43</ele><time>2026-04-20T13:01:23Z</time></trkpt><trkpt lat="59.0849891491" lon="30.0486849155"><ele>71.63</ele><time>2026-04-20T13:01:27Z</time></trkpt><trkpt lat="59.0851495788" lon="30.0487028528"><ele>70.47</ele><time>2026-04-20T13:01:47Z</time></trkpt><trkpt lat="59.0852826834" lon="30.0488183554"><ele>71.59</ele><time>2026-04-20T13:02:08Z</time></trkpt><trkpt lat="59.0853074100" lon="30.0488423277"><ele>72.86</ele><time>2026-04-20T13:02:12Z</time></trkpt><trkpt lat="59.0854180511" lon="30.0489909388"><ele>71.92</ele><time>2026-04-20T13:02:29Z</time></trkpt><trkpt lat="59.0854566917" lon="30.0492952857"><ele>72.18</ele><time>2026-04-20T13:02:44Z</time></trkpt><trkpt lat="59.0855077375" lon="30.0495183282"><ele>71.21</ele><time>2026-04-20T13:03:02Z</time></trkpt><trkpt lat="59.0856478829" lon="30.0496101100"><ele>71.48</ele><time>2026-04-20T13:03:29Z</time></trkpt><trkpt lat="59.0858218912" lon="30.0496327411"><ele>72.36</ele><time>2026-04-20T13:03:48Z</time></trkpt><trkpt lat="59.0858620405" lon="30.0497873873"><ele>71.61</ele><time>2026-04-20T13:04:17Z</time></trkpt><trkpt lat="59.0858405828" lon="30.0498334877"><ele>71.43</ele><time>2026-04-20T13:04:37Z</time></trkpt><trkpt lat="59.0859223064" lon="30.0497060828"><ele>71.78</ele><time>2026-04-20T13:04:55Z</time></trkpt><trkpt lat="59.0860404912" lon="30.0496765785"><ele>72.25</ele><time>2026-04-20T13:05:19Z</time></trkpt><trkpt lat="59.0861010086" lon="30.0497500040"><ele>71.73</ele><time>2026-04-20T13:05:26Z</time></trkpt><trkpt lat="59.0862633660" lon="30.0498095155"><ele>72.22</ele><time>2026-04-20T13:05:42Z</time></trkpt><trkpt lat="59.0862767771" lon="30.0498146284"><ele>72.41</ele><time>2026-04-20T13:05:43Z</time></trkpt><trkpt lat="59.0864119772" lon="30.0497172307"><ele>72.17</ele><time>2026-04-20T13:05:57Z</time></trkpt><trkpt lat="59.0864179283" lon="30.0496938452"><ele>72.54</ele><time>2026-04-20T13:06:00Z</time></trkpt><trkpt lat="59.0864330996" lon="30.0496726390"><ele>72.77</ele><time>2026-04-20T13:06:03Z</time></trkpt><trkpt lat="59.0865055192" lon="30.0497068372"><ele>72.57</ele><time>2026-04-20T13:06:21Z</time></trkpt><trkpt lat="59.0865102131" lon="30.0497057475"><ele>71.67</ele><time>2026-04-20T13:06:23Z</time></trkpt><trkpt lat="59.0866030846" lon="30.0495977048"><ele>72.29</ele><time>2026-04-20T13:06:36Z</time></trkpt><trkpt lat="59.0866211057" lon="30.0495586451"><ele>72.59</ele><time>2026-04-20T13:06:39Z</time></trkpt><trkpt lat="59.0867679566" lon="30.0493236165"><ele>72.47</ele><time>2026-04-20T13:06:54Z</time></trkpt><trkpt lat="59.0868194215" lon="30.0493096188"><ele>72.60</ele><time>2026-04-20T13:07:02Z</time></trkpt><trkpt lat="59.0870137140" lon="30.0493745785"><ele>72.38</ele><time>2026-04-20T13:07:26Z</time></trkpt><trkpt lat="59.0870275442" lon="30.0493894145"><ele>72.80</ele><time>2026-04-20T13:07:29Z</time></trkpt><trkpt lat="59.0870561264" lon="30.0494449865"><ele>72.72</ele><time>2026-04-20T13:07:32Z</time></trkpt><trkpt lat="59.0870798472" lon="30.0494776759"><ele>72.11</ele><time>2026-04-20T13:07:35Z</time></trkpt><trkpt lat="59.0871397778" lon="30.0495694578"><ele>71.21</ele><time>2026-04-20T13:07:44Z</time></trkpt><trkpt lat="59.0873447992" lon="30.0498313084"><ele>71.59</ele><time>2026-04-20T13:08:06Z</time></trkpt><trkpt lat="59.0874572843" lon="30.0497638341"><ele>71.17</ele><time>2026-04-20T13:08:45Z</time></trkpt><trkpt lat="59.0874326415" lon="30.0499847811"><ele>71.55</ele><time>2026-04-20T13:09:02Z</time></trkpt><trkpt lat="59.0874432027" lon="30.0501342304"><ele>71.02</ele><time>2026-04-20T13:09:15Z</time></trkpt><trkpt lat="59.0874366648" lon="30.0502613001"><ele>70.98</ele><time>2026-04-20T13:09:26Z</time></trkpt><trkpt lat="59.0874477290" lon="30.0502735376"><ele>70.94</ele><time>2026-04-20T13:09:28Z</time></trkpt><trkpt lat="59.0874634031" lon="30.0503238291"><ele>70.48</ele><time>2026-04-20T13:09:32Z</time></trkpt><trkpt lat="59.0875038039" lon="30.0504710153"><ele>70.91</ele><time>2026-04-20T13:09:54Z</time></trkpt><trkpt lat="59.0876671672" lon="30.0503341388"><ele>71.21</ele><time>2026-04-20T13:10:13Z</time></trkpt><trkpt lat="59.0877038799" lon="30.0502862781"><ele>71.23</ele><time>2026-04-20T13:10:16Z</time></trkpt><trkpt lat="59.0877596196" lon="30.0501400139"><ele>70.86</ele><time>2026-04-20T13:10:41Z</time></trkpt><trkpt lat="59.0876996052" lon="30.0499039795"><ele>71.47</ele><time>2026-04-20T13:10:58Z</time></trkpt><trkpt lat="59.0876978450" lon="30.0498056598"><ele>71.27</ele><time>2026-04-20T13:11:03Z</time></trkpt><trkpt lat="59.0875150356" lon="30.0497915782"><ele>71.85</ele><time>2026-04-20T13:11:25Z</time></trkpt><trkpt lat="59.0875027142" lon="30.0497050770"><ele>71.80</ele><time>2026-04-20T13:11:46Z</time></trkpt><trkpt lat="59.0874733776" lon="30.0497487467"><ele>72.19</ele><time>2026-04-20T13:12:14Z</time></trkpt><trkpt lat="59.0874754731" lon="30.0497132074"><ele>71.51</ele><time>2026-04-20T13:12:19Z</time></trkpt><trkpt lat="59.0875188075" lon="30.0496179052"><ele>71.36</ele><time>2026-04-20T13:12:43Z</time></trkpt><trkpt lat="59.0875002835" lon="30.0496545341"><ele>71.02</ele><time>2026-04-20T13:12:51Z</time></trkpt><trkpt lat="59.0876345616" lon="30.0495526940"><ele>70.63</ele><time>2026-04-20T13:13:03Z</time></trkpt><trkpt lat="59.0877461247" lon="30.0493911747"><ele>71.76</ele><time>2026-04-20T13:13:13Z</time></trkpt><trkpt lat="59.0877676662" lon="30.0493206829"><ele>72.18</ele><time>2026-04-20T13:13:19Z</time></trkpt><trkpt lat="59.0878318716" lon="30.0492035877"><ele>71.86</ele><time>2026-04-20T13:13:26Z</time></trkpt><trkpt lat="59.0878464561" lon="30.0491492730"><ele>72.02</ele><time>2026-04-20T13:13:32Z</time></trkpt><trkpt lat="59.0880023595" lon="30.0489448383"><ele>71.36</ele><time>2026-04-20T13:13:49Z</time></trkpt><trkpt lat="59.0880290139" lon="30.0489682239"><ele>71.67</ele><time>2026-04-20T13:13:56Z</time></trkpt><trkpt lat="59.0880732704" lon="30.0489460118"><ele>71.82</ele><time>2026-04-20T13:14:00Z</time></trkpt><trkpt lat="59.0881690755" lon="30.0489212852"><ele>71.36</ele><time>2026-04-20T13:14:16Z</time></trkpt><trkpt lat="59.0882235579" lon="30.0488793757"><ele>71.81</ele><time>2026-04-20T13:14:24Z</time></trkpt><trkpt lat="59.0882513020" lon="30.0490025058"><ele>71.28</ele><time>2026-04-20T13:14:34Z</time></trkpt><trkpt lat="59.0883816406" lon="30.0491272286"><ele>70.80</ele><time>2026-04-20T13:14:54Z</time></trkpt><trkpt lat="59.0883885138" lon="30.0491491891"><ele>70.65</ele><time>2026-04-20T13:14:56Z</time></trkpt><trkpt lat="59.0884398948" lon="30.0492831320"><ele>69.33</ele><time>2026-04-20T13:15:11Z</time></trkpt><trkpt lat="59.0885493625" lon="30.0491953734"><ele>69.91</ele><time>2026-04-20T13:15:19Z</time></trkpt><trkpt lat="59.0886146575" lon="30.0491830520"><ele>70.62</ele><time>2026-04-20T13:15:26Z</time></trkpt><trkpt lat="59.0886583272" lon="30.0491908472"><ele>71.14</ele><time>2026-04-20T13:15:42Z</time></trkpt><trkpt lat="59.0887845587" lon="30.0490855705"><ele>70.33</ele><time>2026-04-20T13:16:07Z</time></trkpt><trkpt lat="59.0887872409" lon="30.0490613468"><ele>70.77</ele><time>2026-04-20T13:16:09Z</time></trkpt><trkpt lat="59.0888000652" lon="30.0490357820"><ele>69.52</ele><time>2026-04-20T13:16:26Z</time></trkpt><trkpt lat="59.0887608379" lon="30.0491096266"><ele>69.55</ele><time>2026-04-20T13:16:42Z</time></trkpt><trkpt lat="59.0887007397" lon="30.0490696449"><ele>69.22</ele><time>2026-04-20T13:16:56Z</time></trkpt><trkpt lat="59.0886351932" lon="30.0490726624"><ele>69.70</ele><time>2026-04-20T13:17:10Z</time></trkpt><trkpt lat="59.0886273980" lon="30.0490798708"><ele>69.60</ele><time>2026-04-20T13:17:11Z</time></trkpt><trkpt lat="59.0885114763" lon="30.0490738358"><ele>70.38</ele><time>2026-04-20T13:17:28Z</time></trkpt><trkpt lat="59.0884045232" lon="30.0489675533"><ele>70.48</ele><time>2026-04-20T13:17:45Z</time></trkpt><trkpt lat="59.0883876756" lon="30.0488541462"><ele>71.07</ele><time>2026-04-20T13:17:58Z</time></trkpt><trkpt lat="59.0883786231" lon="30.0488322694"><ele>70.88</ele><time>2026-04-20T13:18:00Z</time></trkpt><trkpt lat="59.0884539764" lon="30.0487328600"><ele>70.96</ele><time>2026-04-20T13:18:19Z</time></trkpt><trkpt lat="59.0885464288" lon="30.0485594384"><ele>70.14</ele><time>2026-04-20T13:18:38Z</time></trkpt><trkpt lat="59.0886332653" lon="30.0483922195"><ele>69.80</ele><time>2026-04-20T13:18:56Z</time></trkpt><trkpt lat="59.0886989795" lon="30.0483039580"><ele>70.60</ele><time>2026-04-20T13:19:06Z</time></trkpt><trkpt lat="59.0888274740" lon="30.0481239147"><ele>69.06</ele><time>2026-04-20T13:19:27Z</time></trkpt><trkpt lat="59.0888420586" lon="30.0480369106"><ele>69.19</ele><time>2026-04-20T13:19:39Z</time></trkpt><trkpt lat="59.0888591576" lon="30.0478699431"><ele>69.42</ele><time>2026-04-20T13:19:51Z</time></trkpt><trkpt lat="59.0888817888" lon="30.0478160474"><ele>69.10</ele><time>2026-04-20T13:19:56Z</time></trkpt><trkpt lat="59.0888889972" lon="30.0477982778"><ele>69.43</ele><time>2026-04-20T13:20:01Z</time></trkpt><trkpt lat="59.0889966208" lon="30.0475380197"><ele>70.29</ele><time>2026-04-20T13:20:23Z</time></trkpt><trkpt lat="59.0890635084" lon="30.0473358482"><ele>70.03</ele><time>2026-04-20T13:20:42Z</time></trkpt><trkpt lat="59.0890373569" lon="30.0472050067"><ele>69.06</ele><time>2026-04-20T13:20:57Z</time></trkpt><trkpt lat="59.0890327469" lon="30.0471079443"><ele>69.39</ele><time>2026-04-20T13:21:15Z</time></trkpt><trkpt lat="59.0890146419" lon="30.0470307469"><ele>69.30</ele><time>2026-04-20T13:21:39Z</time></trkpt><trkpt lat="59.0889460780" lon="30.0470299087"><ele>70.05</ele><time>2026-04-20T13:22:08Z</time></trkpt><trkpt lat="59.0888599958" lon="30.0469392166"><ele>70.08</ele><time>2026-04-20T13:22:24Z</time></trkpt><trkpt lat="59.0888048429" lon="30.0465982407"><ele>71.12</ele><time>2026-04-20T13:22:46Z</time></trkpt><trkpt lat="59.0887038410" lon="30.0463459454"><ele>71.05</ele><time>2026-04-20T13:23:07Z</time></trkpt><trkpt lat="59.0885617677" lon="30.0461657345"><ele>71.71</ele><time>2026-04-20T13:23:27Z</time></trkpt><trkpt lat="59.0884616878" lon="30.0459997728"><ele>72.04</ele><time>2026-04-20T13:23:44Z</time></trkpt><trkpt lat="59.0883879270" lon="30.0458663329"><ele>70.70</ele><time>2026-04-20T13:24:02Z</time></trkpt><trkpt lat="59.0883201174" lon="30.0456099305"><ele>70.81</ele><time>2026-04-20T13:24:22Z</time></trkpt><trkpt lat="59.0883406531" lon="30.0453754887"><ele>70.56</ele><time>2026-04-20T13:24:41Z</time></trkpt><trkpt lat="59.0883516334" lon="30.0450580660"><ele>70.31</ele><time>2026-04-20T13:25:04Z</time></trkpt><trkpt lat="59.0883478615" lon="30.0448102131"><ele>69.67</ele><time>2026-04-20T13:25:24Z</time></trkpt><trkpt lat="59.0883261524" lon="30.0447244663"><ele>68.43</ele><time>2026-04-20T13:25:51Z</time></trkpt><trkpt lat="59.0883267391" lon="30.0446630269"><ele>70.26</ele><time>2026-04-20T13:26:24Z</time></trkpt><trkpt lat="59.0883870050" lon="30.0444275793"><ele>69.09</ele><time>2026-04-20T13:26:42Z</time></trkpt><trkpt lat="59.0883884300" lon="30.0443943869"><ele>67.86</ele><time>2026-04-20T13:26:45Z</time></trkpt><trkpt lat="59.0884683095" lon="30.0441165268"><ele>67.66</ele><time>2026-04-20T13:27:06Z</time></trkpt><trkpt lat="59.0884761885" lon="30.0438930653"><ele>66.98</ele><time>2026-04-20T13:27:21Z</time></trkpt><trkpt lat="59.0884682257" lon="30.0438063126"><ele>68.69</ele><time>2026-04-20T13:27:26Z</time></trkpt><trkpt lat="59.0884236339" lon="30.0434582122"><ele>67.84</ele><time>2026-04-20T13:27:45Z</time></trkpt><trkpt lat="59.0884466842" lon="30.0432145502"><ele>67.80</ele><time>2026-04-20T13:28:05Z</time></trkpt><trkpt lat="59.0884098038" lon="30.0430235267"><ele>66.76</ele><time>2026-04-20T13:28:32Z</time></trkpt><trkpt lat="59.0884431638" lon="30.0429599080"><ele>67.36</ele><time>2026-04-20T13:29:00Z</time></trkpt><trkpt lat="59.0883773658" lon="30.0430217665"><ele>67.34</ele><time>2026-04-20T13:29:23Z</time></trkpt><trkpt lat="59.0882478654" lon="30.0430912524"><ele>67.24</ele><time>2026-04-20T13:29:39Z</time></trkpt><trkpt lat="59.0880948957" lon="30.0431671925"><ele>68.04</ele><time>2026-04-20T13:29:55Z</time></trkpt><trkpt lat="59.0880456939" lon="30.0431865547"><ele>68.56</ele><time>2026-04-20T13:30:03Z</time></trkpt><trkpt lat="59.0879003517" lon="30.0432465691"><ele>68.85</ele><time>2026-04-20T13:30:22Z</time></trkpt><trkpt lat="59.0878964961" lon="30.0433287956"><ele>68.82</ele><time>2026-04-20T13:30:59Z</time></trkpt><trkpt lat="59.0879546665" lon="30.0432742294"><ele>68.61</ele><time>2026-04-20T13:31:35Z</time></trkpt><trkpt lat="59.0880151838" lon="30.0432296377"><ele>66.67</ele><time>2026-04-20T13:31:50Z</time></trkpt><trkpt lat="59.0880874358" lon="30.0431546196"><ele>66.18</ele><time>2026-04-20T13:32:10Z</time></trkpt><trkpt lat="59.0881259087" lon="30.0431415439"><ele>67.28</ele><time>2026-04-20T13:32:17Z</time></trkpt><trkpt lat="59.0881921258" lon="30.0430881511"><ele>65.97</ele><time>2026-04-20T13:32:29Z</time></trkpt><trkpt lat="59.0883261524" lon="30.0430735666"><ele>66.91</ele><time>2026-04-20T13:32:38Z</time></trkpt><trkpt lat="59.0883408207" lon="30.0430615805"><ele>66.35</ele><time>2026-04-20T13:32:39Z</time></trkpt><trkpt lat="59.0886087902" lon="30.0428699702"><ele>65.85</ele><time>2026-04-20T13:33:01Z</time></trkpt><trkpt lat="59.0886680502" lon="30.0428335089"><ele>65.86</ele><time>2026-04-20T13:33:12Z</time></trkpt><trkpt lat="59.0887152404" lon="30.0428449083"><ele>64.19</ele><time>2026-04-20T13:33:17Z</time></trkpt><trkpt lat="59.0887914319" lon="30.0428131409"><ele>64.90</ele><time>2026-04-20T13:33:24Z</time></trkpt><trkpt lat="59.0888590738" lon="30.0427481811"><ele>64.08</ele><time>2026-04-20T13:33:34Z</time></trkpt><trkpt lat="59.0888984688" lon="30.0427466724"><ele>65.15</ele><time>2026-04-20T13:33:39Z</time></trkpt><trkpt lat="59.0889974590" lon="30.0426756777"><ele>66.63</ele><time>2026-04-20T13:33:57Z</time></trkpt><trkpt lat="59.0890293103" lon="30.0425898470"><ele>65.06</ele><time>2026-04-20T13:34:10Z</time></trkpt><trkpt lat="59.0891877282" lon="30.0425533857"><ele>65.21</ele><time>2026-04-20T13:34:27Z</time></trkpt><trkpt lat="59.0893821884" lon="30.0424939580"><ele>65.03</ele><time>2026-04-20T13:34:50Z</time></trkpt><trkpt lat="59.0895614773" lon="30.0424088817"><ele>65.33</ele><time>2026-04-20T13:35:13Z</time></trkpt><trkpt lat="59.0896924026" lon="30.0423742644"><ele>64.82</ele><time>2026-04-20T13:35:31Z</time></trkpt><trkpt lat="59.0898084082" lon="30.0423542317"><ele>64.03</ele><time>2026-04-20T13:35:47Z</time></trkpt><trkpt lat="59.0899008606" lon="30.0423093047"><ele>64.00</ele><time>2026-04-20T13:36:15Z</time></trkpt><trkpt lat="59.0899496432" lon="30.0422991626"><ele>64.12</ele><time>2026-04-20T13:36:36Z</time></trkpt><trkpt lat="59.0899884515" lon="30.0422301795"><ele>64.65</ele><time>2026-04-20T13:36:46Z</time></trkpt><trkpt lat="59.0900679957" lon="30.0422169361"><ele>65.29</ele><time>2026-04-20T13:37:08Z</time></trkpt><trkpt lat="59.0901984181" lon="30.0421455223"><ele>65.10</ele><time>2026-04-20T13:37:26Z</time></trkpt><trkpt lat="59.0902889427" lon="30.0420226436"><ele>65.85</ele><time>2026-04-20T13:37:50Z</time></trkpt><trkpt lat="59.0905849915" lon="30.0418559276"><ele>64.49</ele><time>2026-04-20T13:38:10Z</time></trkpt><trkpt lat="59.0906586684" lon="30.0418101624"><ele>63.09</ele><time>2026-04-20T13:38:24Z</time></trkpt><trkpt lat="59.0906774439" lon="30.0417831726"><ele>63.89</ele><time>2026-04-20T13:38:27Z</time></trkpt><trkpt lat="59.0907892585" lon="30.0417281035"><ele>64.36</ele><time>2026-04-20T13:38:36Z</time></trkpt><trkpt lat="59.0908101294" lon="30.0416944921"><ele>64.58</ele><time>2026-04-20T13:38:39Z</time></trkpt><trkpt lat="59.0908278991" lon="30.0416822545"><ele>64.85</ele><time>2026-04-20T13:38:42Z</time></trkpt><trkpt lat="59.0908818785" lon="30.0416814163"><ele>63.27</ele><time>2026-04-20T13:38:48Z</time></trkpt><trkpt lat="59.0910761710" lon="30.0416168757"><ele>64.10</ele><time>2026-04-20T13:39:03Z</time></trkpt><trkpt lat="59.0910858102" lon="30.0416136067"><ele>63.88</ele><time>2026-04-20T13:39:04Z</time></trkpt><trkpt lat="59.0912184957" lon="30.0417199731"><ele>65.01</ele><time>2026-04-20T13:39:25Z</time></trkpt><trkpt lat="59.0912422165" lon="30.0416918937"><ele>64.86</ele><time>2026-04-20T13:39:34Z</time></trkpt><trkpt lat="59.0912742354" lon="30.0417312887"><ele>62.41</ele><time>2026-04-20T13:39:59Z</time></trkpt><trkpt lat="59.0912764985" lon="30.0417495612"><ele>64.43</ele><time>2026-04-20T13:40:04Z</time></trkpt><trkpt lat="59.0912752412" lon="30.0417082384"><ele>63.15</ele><time>2026-04-20T13:40:31Z</time></trkpt><trkpt lat="59.0912697092" lon="30.0416989345"><ele>64.75</ele><time>2026-04-20T13:40:34Z</time></trkpt><trkpt lat="59.0912403725" lon="30.0417374913"><ele>63.68</ele><time>2026-04-20T13:40:59Z</time></trkpt><trkpt lat="59.0912507661" lon="30.0416633952"><ele>63.46</ele><time>2026-04-20T13:41:24Z</time></trkpt><trkpt lat="59.0912447311" lon="30.0416268501"><ele>64.14</ele><time>2026-04-20T13:41:41Z</time></trkpt><trkpt lat="59.0912275482" lon="30.0416168757"><ele>64.73</ele><time>2026-04-20T13:42:14Z</time></trkpt><trkpt lat="59.0912496764" lon="30.0416871998"><ele>64.66</ele><time>2026-04-20T13:42:52Z</time></trkpt><trkpt lat="59.0912669431" lon="30.0417027902"><ele>65.09</ele><time>2026-04-20T13:43:38Z</time></trkpt><trkpt lat="59.0912505984" lon="30.0416945759"><ele>64.42</ele><time>2026-04-20T13:44:12Z</time></trkpt><trkpt lat="59.0912445635" lon="30.0416238327"><ele>64.30</ele><time>2026-04-20T13:44:40Z</time></trkpt><trkpt lat="59.0912251174" lon="30.0416059792"><ele>63.70</ele><time>2026-04-20T13:45:10Z</time></trkpt><trkpt lat="59.0912232734" lon="30.0416227430"><ele>64.21</ele><time>2026-04-20T13:45:18Z</time></trkpt><trkpt lat="59.0912200045" lon="30.0416115113"><ele>63.80</ele><time>2026-04-20T13:45:48Z</time></trkpt><trkpt lat="59.0912349243" lon="30.0416493136"><ele>64.39</ele><time>2026-04-20T13:46:20Z</time></trkpt><trkpt lat="59.0912511013" lon="30.0416193902"><ele>64.71</ele><time>2026-04-20T13:46:46Z</time></trkpt><trkpt lat="59.0912412107" lon="30.0415955856"><ele>64.47</ele><time>2026-04-20T13:47:16Z</time></trkpt><trkpt lat="59.0912425518" lon="30.0416369084"><ele>64.57</ele><time>2026-04-20T13:47:43Z</time></trkpt><trkpt lat="59.0912574716" lon="30.0416682567"><ele>64.70</ele><time>2026-04-20T13:48:07Z</time></trkpt><trkpt lat="59.0912366007" lon="30.0417053886"><ele>65.10</ele><time>2026-04-20T13:48:23Z</time></trkpt><trkpt lat="59.0912967827" lon="30.0417647325"><ele>64.75</ele><time>2026-04-20T13:48:38Z</time></trkpt><trkpt lat="59.0913476609" lon="30.0418685004"><ele>64.03</ele><time>2026-04-20T13:48:46Z</time></trkpt><trkpt lat="59.0913921688" lon="30.0419252459"><ele>64.33</ele><time>2026-04-20T13:48:53Z</time></trkpt><trkpt lat="59.0915059950" lon="30.0421427563"><ele>63.62</ele><time>2026-04-20T13:49:12Z</time></trkpt><trkpt lat="59.0916131996" lon="30.0424725004"><ele>63.87</ele><time>2026-04-20T13:49:33Z</time></trkpt><trkpt lat="59.0917502437" lon="30.0427470915"><ele>62.61</ele><time>2026-04-20T13:49:52Z</time></trkpt><trkpt lat="59.0917967632" lon="30.0428288989"><ele>61.97</ele><time>2026-04-20T13:50:06Z</time></trkpt><trkpt lat="59.0917929076" lon="30.0428143982"><ele>65.10</ele><time>2026-04-20T13:50:08Z</time></trkpt><trkpt lat="59.0917881299" lon="30.0428204332"><ele>64.18</ele><time>2026-04-20T13:50:12Z</time></trkpt><trkpt lat="59.0918769781" lon="30.0429780968"><ele>63.86</ele><time>2026-04-20T13:50:28Z</time></trkpt><trkpt lat="59.0919465479" lon="30.0432006363"><ele>61.85</ele><time>2026-04-20T13:50:44Z</time></trkpt><trkpt lat="59.0919674188" lon="30.0432506762"><ele>63.89</ele><time>2026-04-20T13:50:48Z</time></trkpt><trkpt lat="59.0920409281" lon="30.0433846191"><ele>63.04</ele><time>2026-04-20T13:51:07Z</time></trkpt><trkpt lat="59.0921431035" lon="30.0436410215"><ele>63.00</ele><time>2026-04-20T13:51:29Z</time></trkpt><trkpt lat="59.0922234021" lon="30.0438722782"><ele>62.63</ele><time>2026-04-20T13:51:47Z</time></trkpt><trkpt lat="59.0922897868" lon="30.0439301971"><ele>63.11</ele><time>2026-04-20T13:52:01Z</time></trkpt><trkpt lat="59.0923408326" lon="30.0440671574"><ele>63.30</ele><time>2026-04-20T13:52:28Z</time></trkpt><trkpt lat="59.0923992544" lon="30.0442595221"><ele>63.22</ele><time>2026-04-20T13:52:41Z</time></trkpt><trkpt lat="59.0924881864" lon="30.0446180161"><ele>63.28</ele><time>2026-04-20T13:53:04Z</time></trkpt><trkpt lat="59.0925174393" lon="30.0447020866"><ele>64.03</ele><time>2026-04-20T13:53:10Z</time></trkpt><trkpt lat="59.0926248953" lon="30.0450010691"><ele>64.14</ele><time>2026-04-20T13:53:28Z</time></trkpt><trkpt lat="59.0926752705" lon="30.0451763347"><ele>63.99</ele><time>2026-04-20T13:53:37Z</time></trkpt><trkpt lat="59.0927299205" lon="30.0453086011"><ele>64.00</ele><time>2026-04-20T13:53:46Z</time></trkpt><trkpt lat="59.0928170085" lon="30.0456719566"><ele>63.95</ele><time>2026-04-20T13:54:05Z</time></trkpt><trkpt lat="59.0928739216" lon="30.0459489785"><ele>62.54</ele><time>2026-04-20T13:54:19Z</time></trkpt><trkpt lat="59.0928823035" lon="30.0459956657"><ele>63.94</ele><time>2026-04-20T13:54:22Z</time></trkpt><trkpt lat="59.0928605106" lon="30.0460480526"><ele>62.92</ele><time>2026-04-20T13:54:48Z</time></trkpt><trkpt lat="59.0928806271" lon="30.0461330451"><ele>62.38</ele><time>2026-04-20T13:55:16Z</time></trkpt><trkpt lat="59.0929881670" lon="30.0465006754"><ele>63.35</ele><time>2026-04-20T13:55:42Z</time></trkpt><trkpt lat="59.0931086149" lon="30.0469738338"><ele>62.27</ele><time>2026-04-20T13:56:10Z</time></trkpt><trkpt lat="59.0932299010" lon="30.0474273786"><ele>63.38</ele><time>2026-04-20T13:56:38Z</time></trkpt><trkpt lat="59.0933127142" lon="30.0476956833"><ele>62.38</ele><time>2026-04-20T13:56:58Z</time></trkpt><trkpt lat="59.0934833698" lon="30.0480094180"><ele>61.89</ele><time>2026-04-20T13:57:21Z</time></trkpt><trkpt lat="59.0935407858" lon="30.0481157005"><ele>62.61</ele><time>2026-04-20T13:57:38Z</time></trkpt><trkpt lat="59.0935827792" lon="30.0481048040"><ele>62.27</ele><time>2026-04-20T13:58:07Z</time></trkpt><trkpt lat="59.0935218427" lon="30.0482104160"><ele>62.73</ele><time>2026-04-20T13:58:32Z</time></trkpt><trkpt lat="59.0935111139" lon="30.0481594540"><ele>63.03</ele><time>2026-04-20T13:59:02Z</time></trkpt><trkpt lat="59.0935928375" lon="30.0482015312"><ele>62.35</ele><time>2026-04-20T13:59:26Z</time></trkpt><trkpt lat="59.0936555341" lon="30.0485167746"><ele>62.22</ele><time>2026-04-20T13:59:43Z</time></trkpt><trkpt lat="59.0937479865" lon="30.0488121528"><ele>62.39</ele><time>2026-04-20T14:00:03Z</time></trkpt><trkpt lat="59.0938172210" lon="30.0490494445"><ele>62.91</ele><time>2026-04-20T14:00:20Z</time></trkpt><trkpt lat="59.0938905627" lon="30.0493505225"><ele>61.91</ele><time>2026-04-20T14:00:37Z</time></trkpt><trkpt lat="59.0939155407" lon="30.0497290492"><ele>61.29</ele><time>2026-04-20T14:00:57Z</time></trkpt><trkpt lat="59.0939417761" lon="30.0500951707"><ele>61.31</ele><time>2026-04-20T14:01:18Z</time></trkpt><trkpt lat="59.0939828474" lon="30.0502080750"><ele>60.87</ele><time>2026-04-20T14:01:30Z</time></trkpt><trkpt lat="59.0940034669" lon="30.0503387488"><ele>61.11</ele><time>2026-04-20T14:01:43Z</time></trkpt><trkpt lat="59.0940266009" lon="30.0504967477"><ele>61.53</ele><time>2026-04-20T14:01:57Z</time></trkpt><trkpt lat="59.0940281935" lon="30.0505506434"><ele>60.61</ele><time>2026-04-20T14:02:32Z</time></trkpt><trkpt lat="59.0940351505" lon="30.0507970713"><ele>61.35</ele><time>2026-04-20T14:02:48Z</time></trkpt><trkpt lat="59.0940531716" lon="30.0510191079"><ele>61.51</ele><time>2026-04-20T14:03:03Z</time></trkpt><trkpt lat="59.0940292832" lon="30.0512940343"><ele>61.56</ele><time>2026-04-20T14:03:17Z</time></trkpt><trkpt lat="59.0940017905" lon="30.0515249558"><ele>60.84</ele><time>2026-04-20T14:03:30Z</time></trkpt><trkpt lat="59.0939697716" lon="30.0517417118"><ele>61.29</ele><time>2026-04-20T14:03:45Z</time></trkpt><trkpt lat="59.0939722862" lon="30.0517725572"><ele>61.29</ele><time>2026-04-20T14:03:47Z</time></trkpt><trkpt lat="59.0939749684" lon="30.0519291312"><ele>60.92</ele><time>2026-04-20T14:03:56Z</time></trkpt><trkpt lat="59.0939860325" lon="30.0520535186"><ele>62.02</ele><time>2026-04-20T14:04:03Z</time></trkpt><trkpt lat="59.0940067358" lon="30.0523235835"><ele>62.20</ele><time>2026-04-20T14:04:20Z</time></trkpt><trkpt lat="59.0940362401" lon="30.0525638089"><ele>63.54</ele><time>2026-04-20T14:04:37Z</time></trkpt><trkpt lat="59.0941193048" lon="30.0528495479"><ele>62.15</ele><time>2026-04-20T14:05:01Z</time></trkpt><trkpt lat="59.0941804089" lon="30.0529971533"><ele>62.83</ele><time>2026-04-20T14:05:20Z</time></trkpt><trkpt lat="59.0941856056" lon="30.0530204549"><ele>62.99</ele><time>2026-04-20T14:05:47Z</time></trkpt><trkpt lat="59.0942340530" lon="30.0531000830"><ele>63.46</ele><time>2026-04-20T14:06:11Z</time></trkpt><trkpt lat="59.0942719392" lon="30.0531922001"><ele>62.09</ele><time>2026-04-20T14:06:17Z</time></trkpt><trkpt lat="59.0943548363" lon="30.0534779392"><ele>61.78</ele><time>2026-04-20T14:06:34Z</time></trkpt><trkpt lat="59.0944638010" lon="30.0537375268"><ele>63.80</ele><time>2026-04-20T14:06:50Z</time></trkpt><trkpt lat="59.0944969933" lon="30.0537947752"><ele>63.33</ele><time>2026-04-20T14:06:54Z</time></trkpt><trkpt lat="59.0946798027" lon="30.0541036483"><ele>62.95</ele><time>2026-04-20T14:07:15Z</time></trkpt><trkpt lat="59.0947429184" lon="30.0543061551"><ele>59.00</ele><time>2026-04-20T14:07:26Z</time></trkpt><trkpt lat="59.0947481152" lon="30.0543256011"><ele>58.99</ele><time>2026-04-20T14:07:27Z</time></trkpt><trkpt lat="59.0947705787" lon="30.0543870404"><ele>62.93</ele><time>2026-04-20T14:07:31Z</time></trkpt><trkpt lat="59.0947775356" lon="30.0544033013"><ele>62.84</ele><time>2026-04-20T14:07:32Z</time></trkpt><trkpt lat="59.0948869195" lon="30.0547201373"><ele>62.78</ele><time>2026-04-20T14:07:52Z</time></trkpt><trkpt lat="59.0949685592" lon="30.0548932236"><ele>63.04</ele><time>2026-04-20T14:08:09Z</time></trkpt><trkpt lat="59.0949711576" lon="30.0549303554"><ele>62.03</ele><time>2026-04-20T14:08:36Z</time></trkpt><trkpt lat="59.0950558148" lon="30.0550783798"><ele>62.87</ele><time>2026-04-20T14:08:52Z</time></trkpt><trkpt lat="59.0951608401" lon="30.0552929565"><ele>63.10</ele><time>2026-04-20T14:09:08Z</time></trkpt><trkpt lat="59.0952510294" lon="30.0554773584"><ele>64.00</ele><time>2026-04-20T14:09:29Z</time></trkpt><trkpt lat="59.0953435656" lon="30.0556413922"><ele>60.92</ele><time>2026-04-20T14:09:48Z</time></trkpt><trkpt lat="59.0954474173" lon="30.0558050908"><ele>61.95</ele><time>2026-04-20T14:10:04Z</time></trkpt><trkpt lat="59.0955324937" lon="30.0559126306"><ele>62.82</ele><time>2026-04-20T14:10:16Z</time></trkpt><trkpt lat="59.0956060030" lon="30.0560179073"><ele>62.85</ele><time>2026-04-20T14:10:24Z</time></trkpt><trkpt lat="59.0956746507" lon="30.0561550353"><ele>63.80</ele><time>2026-04-20T14:10:42Z</time></trkpt><trkpt lat="59.0956986230" lon="30.0562500022"><ele>63.36</ele><time>2026-04-20T14:11:13Z</time></trkpt><trkpt lat="59.0957210865" lon="30.0563132856"><ele>63.11</ele><time>2026-04-20T14:11:17Z</time></trkpt><trkpt lat="59.0958059113" lon="30.0565409381"><ele>62.89</ele><time>2026-04-20T14:11:31Z</time></trkpt><trkpt lat="59.0958653390" lon="30.0567018706"><ele>62.88</ele><time>2026-04-20T14:11:43Z</time></trkpt><trkpt lat="59.0959342383" lon="30.0569446106"><ele>63.10</ele><time>2026-04-20T14:12:00Z</time></trkpt><trkpt lat="59.0960208233" lon="30.0570708420"><ele>62.48</ele><time>2026-04-20T14:12:17Z</time></trkpt><trkpt lat="59.0961421933" lon="30.0572937168"><ele>60.99</ele><time>2026-04-20T14:12:37Z</time></trkpt><trkpt lat="59.0961877070" lon="30.0574866682"><ele>62.58</ele><time>2026-04-20T14:12:57Z</time></trkpt><trkpt lat="59.0961556043" lon="30.0575051084"><ele>63.09</ele><time>2026-04-20T14:13:23Z</time></trkpt><trkpt lat="59.0961789060" lon="30.0575610995"><ele>62.34</ele><time>2026-04-20T14:13:50Z</time></trkpt><trkpt lat="59.0962081589" lon="30.0574720837"><ele>63.43</ele><time>2026-04-20T14:14:23Z</time></trkpt><trkpt lat="59.0961870365" lon="30.0575352833"><ele>63.07</ele><time>2026-04-20T14:14:45Z</time></trkpt><trkpt lat="59.0961825941" lon="30.0575263146"><ele>63.29</ele><time>2026-04-20T14:15:09Z</time></trkpt><trkpt lat="59.0962469671" lon="30.0574056152"><ele>61.82</ele><time>2026-04-20T14:15:29Z</time></trkpt><trkpt lat="59.0962241683" lon="30.0575660449"><ele>63.54</ele><time>2026-04-20T14:15:47Z</time></trkpt><trkpt lat="59.0962151159" lon="30.0575314276"><ele>62.99</ele><time>2026-04-20T14:16:18Z</time></trkpt><trkpt lat="59.0961960051" lon="30.0575553160"><ele>62.11</ele><time>2026-04-20T14:16:43Z</time></trkpt><trkpt lat="59.0962042194" lon="30.0576040149"><ele>63.20</ele><time>2026-04-20T14:17:03Z</time></trkpt><trkpt lat="59.0962530021" lon="30.0576215331"><ele>62.84</ele><time>2026-04-20T14:17:23Z</time></trkpt><trkpt lat="59.0963118430" lon="30.0576045178"><ele>63.22</ele><time>2026-04-20T14:17:45Z</time></trkpt><trkpt lat="59.0963107534" lon="30.0575336907"><ele>62.14</ele><time>2026-04-20T14:18:12Z</time></trkpt><trkpt lat="59.0963220689" lon="30.0573945511"><ele>63.14</ele><time>2026-04-20T14:18:32Z</time></trkpt><trkpt lat="59.0964137670" lon="30.0571851712"><ele>62.84</ele><time>2026-04-20T14:18:51Z</time></trkpt><trkpt lat="59.0965793934" lon="30.0569541659"><ele>63.02</ele><time>2026-04-20T14:19:14Z</time></trkpt><trkpt lat="59.0967466123" lon="30.0567928981"><ele>62.45</ele><time>2026-04-20T14:19:34Z</time></trkpt><trkpt lat="59.0969031025" lon="30.0564794987"><ele>61.02</ele><time>2026-04-20T14:19:55Z</time></trkpt><trkpt lat="59.0969999973" lon="30.0563324802"><ele>62.27</ele><time>2026-04-20T14:20:12Z</time></trkpt><trkpt lat="59.0970926173" lon="30.0562205818"><ele>61.26</ele><time>2026-04-20T14:20:31Z</time></trkpt><trkpt lat="59.0971009154" lon="30.0562359206"><ele>61.58</ele><time>2026-04-20T14:20:59Z</time></trkpt><trkpt lat="59.0972021688" lon="30.0560940150"><ele>62.51</ele><time>2026-04-20T14:21:21Z</time></trkpt><trkpt lat="59.0973215271" lon="30.0559221860"><ele>61.04</ele><time>2026-04-20T14:21:43Z</time></trkpt><trkpt lat="59.0973603353" lon="30.0558689609"><ele>60.40</ele><time>2026-04-20T14:21:47Z</time></trkpt><trkpt lat="59.0974197630" lon="30.0557180028"><ele>60.76</ele><time>2026-04-20T14:22:07Z</time></trkpt><trkpt lat="59.0975854732" lon="30.0554344431"><ele>59.80</ele><time>2026-04-20T14:22:31Z</time></trkpt><trkpt lat="59.0976881515" lon="30.0552125741"><ele>60.78</ele><time>2026-04-20T14:22:52Z</time></trkpt><trkpt lat="59.0978011396" lon="30.0550461933"><ele>58.61</ele><time>2026-04-20T14:23:13Z</time></trkpt><trkpt lat="59.0978031512" lon="30.0550447684"><ele>59.94</ele><time>2026-04-20T14:23:34Z</time></trkpt><trkpt lat="59.0977949370" lon="30.0550342072"><ele>59.47</ele><time>2026-04-20T14:23:38Z</time></trkpt><trkpt lat="59.0978971124" lon="30.0548079796"><ele>59.79</ele><time>2026-04-20T14:24:05Z</time></trkpt><trkpt lat="59.0980546083" lon="30.0546095800"><ele>58.48</ele><time>2026-04-20T14:24:25Z</time></trkpt><trkpt lat="59.0982628148" lon="30.0543700252"><ele>58.45</ele><time>2026-04-20T14:24:48Z</time></trkpt><trkpt lat="59.0983788203" lon="30.0542287901"><ele>58.83</ele><time>2026-04-20T14:25:04Z</time></trkpt><trkpt lat="59.0985478833" lon="30.0540754851"><ele>59.04</ele><time>2026-04-20T14:25:24Z</time></trkpt><trkpt lat="59.0987503063" lon="30.0537839625"><ele>60.10</ele><time>2026-04-20T14:25:47Z</time></trkpt><trkpt lat="59.0988139249" lon="30.0538451504"><ele>59.24</ele><time>2026-04-20T14:26:09Z</time></trkpt><trkpt lat="59.0987910423" lon="30.0537838787"><ele>58.76</ele><time>2026-04-20T14:26:19Z</time></trkpt><trkpt lat="59.0988249052" lon="30.0536443200"><ele>60.06</ele><time>2026-04-20T14:26:44Z</time></trkpt><trkpt lat="59.0988289285" lon="30.0537101179"><ele>60.38</ele><time>2026-04-20T14:27:11Z</time></trkpt><trkpt lat="59.0987878572" lon="30.0536753330"><ele>59.25</ele><time>2026-04-20T14:27:34Z</time></trkpt><trkpt lat="59.0988453571" lon="30.0537347607"><ele>58.88</ele><time>2026-04-20T14:27:50Z</time></trkpt><trkpt lat="59.0988328680" lon="30.0536786858"><ele>58.79</ele><time>2026-04-20T14:28:15Z</time></trkpt><trkpt lat="59.0988489613" lon="30.0535007380"><ele>58.89</ele><time>2026-04-20T14:28:44Z</time></trkpt><trkpt lat="59.0989753604" lon="30.0534457527"><ele>59.40</ele><time>2026-04-20T14:29:03Z</time></trkpt><trkpt lat="59.0990965627" lon="30.0532811321"><ele>59.30</ele><time>2026-04-20T14:29:19Z</time></trkpt><trkpt lat="59.0992424916" lon="30.0530974846"><ele>58.86</ele><time>2026-04-20T14:29:37Z</time></trkpt><trkpt lat="59.0992901847" lon="30.0530263223"><ele>56.80</ele><time>2026-04-20T14:29:42Z</time></trkpt><trkpt lat="59.0993165039" lon="30.0529672299"><ele>59.09</ele><time>2026-04-20T14:29:47Z</time></trkpt><trkpt lat="59.0995120537" lon="30.0527375657"><ele>58.93</ele><time>2026-04-20T14:30:10Z</time></trkpt><trkpt lat="59.0996661969" lon="30.0525121763"><ele>58.75</ele><time>2026-04-20T14:30:30Z</time></trkpt><trkpt lat="59.0996843856" lon="30.0525125954"><ele>59.33</ele><time>2026-04-20T14:30:43Z</time></trkpt><trkpt lat="59.0997076873" lon="30.0524991006"><ele>59.88</ele><time>2026-04-20T14:30:54Z</time></trkpt><trkpt lat="59.0997495130" lon="30.0522639044"><ele>58.39</ele><time>2026-04-20T14:31:17Z</time></trkpt><trkpt lat="59.0998845454" lon="30.0520630740"><ele>58.60</ele><time>2026-04-20T14:31:38Z</time></trkpt><trkpt lat="59.1000517644" lon="30.0518210046"><ele>59.25</ele><time>2026-04-20T14:32:01Z</time></trkpt><trkpt lat="59.1002221685" lon="30.0516169053"><ele>59.29</ele><time>2026-04-20T14:32:21Z</time></trkpt><trkpt lat="59.1003142856" lon="30.0515104551"><ele>57.32</ele><time>2026-04-20T14:32:32Z</time></trkpt><trkpt lat="59.1003504954" lon="30.0514629297"><ele>58.96</ele><time>2026-04-20T14:32:36Z</time></trkpt><trkpt lat="59.1003813408" lon="30.0513716508"><ele>60.06</ele><time>2026-04-20T14:32:44Z</time></trkpt><trkpt lat="59.1004169639" lon="30.0514297374"><ele>59.71</ele><time>2026-04-20T14:33:08Z</time></trkpt><trkpt lat="59.1004278604" lon="30.0513092894"><ele>58.34</ele><time>2026-04-20T14:33:40Z</time></trkpt><trkpt lat="59.1004915629" lon="30.0512040965"><ele>60.19</ele><time>2026-04-20T14:34:07Z</time></trkpt><trkpt lat="59.1006301995" lon="30.0510651246"><ele>59.40</ele><time>2026-04-20T14:34:28Z</time></trkpt><trkpt lat="59.1007198021" lon="30.0509372167"><ele>60.66</ele><time>2026-04-20T14:34:41Z</time></trkpt><trkpt lat="59.1008493863" lon="30.0507035293"><ele>59.93</ele><time>2026-04-20T14:35:02Z</time></trkpt><trkpt lat="59.1010324471" lon="30.0504641421"><ele>59.76</ele><time>2026-04-20T14:35:26Z</time></trkpt><trkpt lat="59.1011949722" lon="30.0502446201"><ele>61.24</ele><time>2026-04-20T14:35:49Z</time></trkpt><trkpt lat="59.1012487002" lon="30.0501743797"><ele>61.28</ele><time>2026-04-20T14:36:10Z</time></trkpt><trkpt lat="59.1012262367" lon="30.0501530059"><ele>60.85</ele><time>2026-04-20T14:36:29Z</time></trkpt><trkpt lat="59.1013135761" lon="30.0499598868"><ele>61.14</ele><time>2026-04-20T14:36:54Z</time></trkpt><trkpt lat="59.1013564076" lon="30.0499169715"><ele>59.24</ele><time>2026-04-20T14:37:06Z</time></trkpt><trkpt lat="59.1013840679" lon="30.0498863775"><ele>61.45</ele><time>2026-04-20T14:37:10Z</time></trkpt><trkpt lat="59.1015426535" lon="30.0496670231"><ele>61.25</ele><time>2026-04-20T14:37:34Z</time></trkpt><trkpt lat="59.1016133130" lon="30.0495731458"><ele>60.74</ele><time>2026-04-20T14:37:51Z</time></trkpt><trkpt lat="59.1016450804" lon="30.0496459845"><ele>59.80</ele><time>2026-04-20T14:38:01Z</time></trkpt><trkpt lat="59.1017630138" lon="30.0496426318"><ele>60.04</ele><time>2026-04-20T14:38:21Z</time></trkpt><trkpt lat="59.1018948611" lon="30.0495125446"><ele>59.88</ele><time>2026-04-20T14:38:41Z</time></trkpt><trkpt lat="59.1019994672" lon="30.0493594073"><ele>59.44</ele><time>2026-04-20T14:38:56Z</time></trkpt><trkpt lat="59.1020658519" lon="30.0493470021"><ele>59.49</ele><time>2026-04-20T14:39:10Z</time></trkpt><trkpt lat="59.1021763254" lon="30.0490404759"><ele>59.25</ele><time>2026-04-20T14:39:35Z</time></trkpt><trkpt lat="59.1021941788" lon="30.0488271564"><ele>60.25</ele><time>2026-04-20T14:39:51Z</time></trkpt><trkpt lat="59.1021971963" lon="30.0488242228"><ele>60.25</ele><time>2026-04-20T14:39:52Z</time></trkpt><trkpt lat="59.1022121161" lon="30.0487825647"><ele>59.48</ele><time>2026-04-20T14:40:03Z</time></trkpt><trkpt lat="59.1022017226" lon="30.0487735122"><ele>60.82</ele><time>2026-04-20T14:40:16Z</time></trkpt><trkpt lat="59.1022286285" lon="30.0487494562"><ele>60.37</ele><time>2026-04-20T14:40:43Z</time></trkpt><trkpt lat="59.1022614017" lon="30.0488207024"><ele>59.96</ele><time>2026-04-20T14:41:05Z</time></trkpt><trkpt lat="59.1023193207" lon="30.0488756876"><ele>59.78</ele><time>2026-04-20T14:41:10Z</time></trkpt><trkpt lat="59.1023323126" lon="30.0489214528"><ele>61.06</ele><time>2026-04-20T14:41:21Z</time></trkpt><trkpt lat="59.1023230925" lon="30.0489299186"><ele>61.43</ele><time>2026-04-20T14:41:51Z</time></trkpt><trkpt lat="59.1023556981" lon="30.0488424115"><ele>61.27</ele><time>2026-04-20T14:42:19Z</time></trkpt><trkpt lat="59.1023647506" lon="30.0487723388"><ele>61.32</ele><time>2026-04-20T14:42:47Z</time></trkpt><trkpt lat="59.1023320612" lon="30.0486680679"><ele>61.84</ele><time>2026-04-20T14:42:58Z</time></trkpt><trkpt lat="59.1023011319" lon="30.0485388190"><ele>62.08</ele><time>2026-04-20T14:43:32Z</time></trkpt><trkpt lat="59.1023821849" lon="30.0485053752"><ele>62.17</ele><time>2026-04-20T14:43:49Z</time></trkpt><trkpt lat="59.1025147028" lon="30.0483436044"><ele>61.73</ele><time>2026-04-20T14:44:10Z</time></trkpt><trkpt lat="59.1026152857" lon="30.0482173730"><ele>61.99</ele><time>2026-04-20T14:44:25Z</time></trkpt><trkpt lat="59.1027540900" lon="30.0480243377"><ele>61.99</ele><time>2026-04-20T14:44:47Z</time></trkpt><trkpt lat="59.1028539184" lon="30.0478246808"><ele>62.40</ele><time>2026-04-20T14:45:02Z</time></trkpt><trkpt lat="59.1029644758" lon="30.0476262812"><ele>62.29</ele><time>2026-04-20T14:45:22Z</time></trkpt><trkpt lat="59.1029244103" lon="30.0476210006"><ele>60.62</ele><time>2026-04-20T14:45:48Z</time></trkpt><trkpt lat="59.1029429343" lon="30.0476251077"><ele>61.97</ele><time>2026-04-20T14:45:53Z</time></trkpt><trkpt lat="59.1029523220" lon="30.0476178154"><ele>62.14</ele><time>2026-04-20T14:46:42Z</time></trkpt><trkpt lat="59.1029032040" lon="30.0473706331"><ele>62.78</ele><time>2026-04-20T14:47:06Z</time></trkpt><trkpt lat="59.1028685030" lon="30.0469618477"><ele>62.19</ele><time>2026-04-20T14:47:28Z</time></trkpt><trkpt lat="59.1027887072" lon="30.0465709995"><ele>62.62</ele><time>2026-04-20T14:47:55Z</time></trkpt><trkpt lat="59.1027296986" lon="30.0462170318"><ele>61.76</ele><time>2026-04-20T14:48:19Z</time></trkpt><trkpt lat="59.1026553512" lon="30.0458821747"><ele>61.27</ele><time>2026-04-20T14:48:39Z</time></trkpt><trkpt lat="59.1026178841" lon="30.0457432028"><ele>62.30</ele><time>2026-04-20T14:49:00Z</time></trkpt><trkpt lat="59.1026418563" lon="30.0457592960"><ele>62.70</ele><time>2026-04-20T14:49:29Z</time></trkpt><trkpt lat="59.1025811713" lon="30.0455146283"><ele>62.39</ele><time>2026-04-20T14:49:54Z</time></trkpt><trkpt lat="59.1025332268" lon="30.0452067610"><ele>62.91</ele><time>2026-04-20T14:50:16Z</time></trkpt><trkpt lat="59.1025139485" lon="30.0450154021"><ele>63.05</ele><time>2026-04-20T14:50:35Z</time></trkpt><trkpt lat="59.1025026329" lon="30.0449102931"><ele>62.31</ele><time>2026-04-20T14:50:45Z</time></trkpt><trkpt lat="59.1024454683" lon="30.0447198562"><ele>62.06</ele><time>2026-04-20T14:51:03Z</time></trkpt><trkpt lat="59.1023860406" lon="30.0444183592"><ele>62.49</ele><time>2026-04-20T14:51:26Z</time></trkpt><trkpt lat="59.1023552790" lon="30.0440623797"><ele>60.64</ele><time>2026-04-20T14:51:42Z</time></trkpt><trkpt lat="59.1023369227" lon="30.0439943187"><ele>63.04</ele><time>2026-04-20T14:51:46Z</time></trkpt><trkpt lat="59.1023042332" lon="30.0439411774"><ele>62.88</ele><time>2026-04-20T14:52:10Z</time></trkpt><trkpt lat="59.1022870503" lon="30.0438023731"><ele>63.05</ele><time>2026-04-20T14:52:41Z</time></trkpt><trkpt lat="59.1022362560" lon="30.0435213279"><ele>62.60</ele><time>2026-04-20T14:52:59Z</time></trkpt><trkpt lat="59.1021547001" lon="30.0431338325"><ele>63.37</ele><time>2026-04-20T14:53:23Z</time></trkpt><trkpt lat="59.1020999663" lon="30.0428024959"><ele>63.28</ele><time>2026-04-20T14:53:44Z</time></trkpt><trkpt lat="59.1020810232" lon="30.0425294135"><ele>63.00</ele><time>2026-04-20T14:54:05Z</time></trkpt><trkpt lat="59.1020459030" lon="30.0422754418"><ele>64.06</ele><time>2026-04-20T14:54:22Z</time></trkpt><trkpt lat="59.1020353418" lon="30.0421083067"><ele>62.92</ele><time>2026-04-20T14:54:32Z</time></trkpt><trkpt lat="59.1019887384" lon="30.0419693347"><ele>64.38</ele><time>2026-04-20T14:54:55Z</time></trkpt><trkpt lat="59.1019581445" lon="30.0419925526"><ele>64.60</ele><time>2026-04-20T14:55:27Z</time></trkpt><trkpt lat="59.1019277181" lon="30.0418018643"><ele>64.79</ele><time>2026-04-20T14:55:57Z</time></trkpt><trkpt lat="59.1018823721" lon="30.0414193142"><ele>65.91</ele><time>2026-04-20T14:56:19Z</time></trkpt><trkpt lat="59.1018238664" lon="30.0410495885"><ele>66.44</ele><time>2026-04-20T14:56:43Z</time></trkpt><trkpt lat="59.1018036660" lon="30.0407817028"><ele>66.15</ele><time>2026-04-20T14:57:00Z</time></trkpt><trkpt lat="59.1017232835" lon="30.0404234603"><ele>65.09</ele><time>2026-04-20T14:57:20Z</time></trkpt><trkpt lat="59.1016929410" lon="30.0401878450"><ele>65.15</ele><time>2026-04-20T14:57:34Z</time></trkpt><trkpt lat="59.1016724892" lon="30.0401538983"><ele>66.38</ele><time>2026-04-20T14:57:37Z</time></trkpt><trkpt lat="59.1016423982" lon="30.0401419960"><ele>66.41</ele><time>2026-04-20T14:58:06Z</time></trkpt><trkpt lat="59.1015894245" lon="30.0399943069"><ele>66.51</ele><time>2026-04-20T14:58:26Z</time></trkpt><trkpt lat="59.1015662067" lon="30.0396972522"><ele>66.98</ele><time>2026-04-20T14:58:47Z</time></trkpt><trkpt lat="59.1015341878" lon="30.0393706933"><ele>66.57</ele><time>2026-04-20T14:59:07Z</time></trkpt><trkpt lat="59.1014636122" lon="30.0390132889"><ele>66.51</ele><time>2026-04-20T14:59:31Z</time></trkpt><trkpt lat="59.1014114767" lon="30.0387106184"><ele>66.29</ele><time>2026-04-20T14:59:48Z</time></trkpt><trkpt lat="59.1013668850" lon="30.0384151563"><ele>65.03</ele><time>2026-04-20T15:00:07Z</time></trkpt><trkpt lat="59.1014011670" lon="30.0383660384"><ele>65.54</ele><time>2026-04-20T15:00:39Z</time></trkpt><trkpt lat="59.1013666335" lon="30.0381870847"><ele>64.74</ele><time>2026-04-20T15:01:09Z</time></trkpt><trkpt lat="59.1012957226" lon="30.0378844142"><ele>65.75</ele><time>2026-04-20T15:01:28Z</time></trkpt><trkpt lat="59.1012191959" lon="30.0375615433"><ele>65.42</ele><time>2026-04-20T15:01:48Z</time></trkpt><trkpt lat="59.1010943893" lon="30.0371540152"><ele>65.56</ele><time>2026-04-20T15:02:13Z</time></trkpt><trkpt lat="59.1010342073" lon="30.0366966147"><ele>64.52</ele><time>2026-04-20T15:02:39Z</time></trkpt><trkpt lat="59.1010029428" lon="30.0364942756"><ele>65.21</ele><time>2026-04-20T15:02:50Z</time></trkpt><trkpt lat="59.1009986680" lon="30.0364169944"><ele>65.13</ele><time>2026-04-20T15:03:14Z</time></trkpt><trkpt lat="59.1009652242" lon="30.0363621768"><ele>65.02</ele><time>2026-04-20T15:03:42Z</time></trkpt><trkpt lat="59.1009276733" lon="30.0360548962"><ele>65.07</ele><time>2026-04-20T15:04:05Z</time></trkpt><trkpt lat="59.1008550022" lon="30.0356448535"><ele>64.36</ele><time>2026-04-20T15:04:28Z</time></trkpt><trkpt lat="59.1008037049" lon="30.0353486370"><ele>64.94</ele><time>2026-04-20T15:04:44Z</time></trkpt><trkpt lat="59.1007417627" lon="30.0349462219"><ele>64.83</ele><time>2026-04-20T15:05:08Z</time></trkpt><trkpt lat="59.1006612126" lon="30.0345493387"><ele>66.26</ele><time>2026-04-20T15:05:34Z</time></trkpt><trkpt lat="59.1006644815" lon="30.0344761647"><ele>65.57</ele><time>2026-04-20T15:05:47Z</time></trkpt><trkpt lat="59.1006741207" lon="30.0344884023"><ele>64.35</ele><time>2026-04-20T15:06:15Z</time></trkpt><trkpt lat="59.1006025393" lon="30.0345535297"><ele>65.63</ele><time>2026-04-20T15:06:45Z</time></trkpt><trkpt lat="59.1006017849" lon="30.0343466643"><ele>65.04</ele><time>2026-04-20T15:07:05Z</time></trkpt><trkpt lat="59.1005243361" lon="30.0339051057"><ele>64.44</ele><time>2026-04-20T15:07:30Z</time></trkpt><trkpt lat="59.1004587896" lon="30.0334516447"><ele>65.03</ele><time>2026-04-20T15:07:54Z</time></trkpt><trkpt lat="59.1004120186" lon="30.0332232378"><ele>65.04</ele><time>2026-04-20T15:08:12Z</time></trkpt><trkpt lat="59.1004069056" lon="30.0331041310"><ele>62.72</ele><time>2026-04-20T15:08:16Z</time></trkpt><trkpt lat="59.1003169678" lon="30.0326952618"><ele>64.69</ele><time>2026-04-20T15:08:40Z</time></trkpt><trkpt lat="59.1003167164" lon="30.0325869676"><ele>64.07</ele><time>2026-04-20T15:08:47Z</time></trkpt><trkpt lat="59.1002862900" lon="30.0325068366"><ele>64.93</ele><time>2026-04-20T15:09:15Z</time></trkpt><trkpt lat="59.1002522595" lon="30.0324484985"><ele>65.01</ele><time>2026-04-20T15:09:41Z</time></trkpt><trkpt lat="59.1002248507" lon="30.0321362726"><ele>64.37</ele><time>2026-04-20T15:10:01Z</time></trkpt><trkpt lat="59.1001917422" lon="30.0318010803"><ele>64.27</ele><time>2026-04-20T15:10:22Z</time></trkpt><trkpt lat="59.1000817716" lon="30.0315263215"><ele>64.29</ele><time>2026-04-20T15:10:42Z</time></trkpt><trkpt lat="59.1000566259" lon="30.0311924703"><ele>64.45</ele><time>2026-04-20T15:11:04Z</time></trkpt><trkpt lat="59.0999754053" lon="30.0308359880"><ele>64.44</ele><time>2026-04-20T15:11:23Z</time></trkpt><trkpt lat="59.0999352559" lon="30.0305460580"><ele>63.86</ele><time>2026-04-20T15:11:42Z</time></trkpt><trkpt lat="59.0998906642" lon="30.0304740574"><ele>62.60</ele><time>2026-04-20T15:11:56Z</time></trkpt><trkpt lat="59.0998528618" lon="30.0304981973"><ele>63.56</ele><time>2026-04-20T15:12:21Z</time></trkpt><trkpt lat="59.0998163167" lon="30.0305318087"><ele>63.60</ele><time>2026-04-20T15:12:50Z</time></trkpt><trkpt lat="59.0998603217" lon="30.0301410444"><ele>65.18</ele><time>2026-04-20T15:13:11Z</time></trkpt><trkpt lat="59.0998108685" lon="30.0297771860"><ele>64.71</ele><time>2026-04-20T15:13:32Z</time></trkpt><trkpt lat="59.0997130517" lon="30.0292703323"><ele>66.09</ele><time>2026-04-20T15:13:57Z</time></trkpt><trkpt lat="59.0996131394" lon="30.0288805738"><ele>65.68</ele><time>2026-04-20T15:14:21Z</time></trkpt><trkpt lat="59.0995923523" lon="30.0287428591"><ele>65.58</ele><time>2026-04-20T15:14:28Z</time></trkpt><trkpt lat="59.0995687153" lon="30.0286302064"><ele>66.06</ele><time>2026-04-20T15:14:34Z</time></trkpt><trkpt lat="59.0995422285" lon="30.0285629835"><ele>65.69</ele><time>2026-04-20T15:15:09Z</time></trkpt><trkpt lat="59.0995288175" lon="30.0283537712"><ele>65.05</ele><time>2026-04-20T15:15:25Z</time></trkpt><trkpt lat="59.0994956251" lon="30.0280039944"><ele>65.24</ele><time>2026-04-20T15:15:51Z</time></trkpt><trkpt lat="59.0994563140" lon="30.0276434887"><ele>64.75</ele><time>2026-04-20T15:16:13Z</time></trkpt><trkpt lat="59.0994317550" lon="30.0275537185"><ele>64.54</ele><time>2026-04-20T15:16:19Z</time></trkpt><trkpt lat="59.0993549768" lon="30.0271764491"><ele>64.06</ele><time>2026-04-20T15:16:40Z</time></trkpt><trkpt lat="59.0993203595" lon="30.0269371457"><ele>63.53</ele><time>2026-04-20T15:16:55Z</time></trkpt><trkpt lat="59.0992315952" lon="30.0265213195"><ele>63.16</ele><time>2026-04-20T15:17:18Z</time></trkpt><trkpt lat="59.0992638655" lon="30.0264712796"><ele>63.73</ele><time>2026-04-20T15:17:39Z</time></trkpt><trkpt lat="59.0991885122" lon="30.0264763087"><ele>63.15</ele><time>2026-04-20T15:18:08Z</time></trkpt><trkpt lat="59.0991569124" lon="30.0262923259"><ele>63.21</ele><time>2026-04-20T15:18:33Z</time></trkpt><trkpt lat="59.0991304256" lon="30.0259301439"><ele>63.96</ele><time>2026-04-20T15:18:58Z</time></trkpt><trkpt lat="59.0991039388" lon="30.0255961251"><ele>63.81</ele><time>2026-04-20T15:19:25Z</time></trkpt><trkpt lat="59.0990497917" lon="30.0253261440"><ele>63.63</ele><time>2026-04-20T15:19:41Z</time></trkpt><trkpt lat="59.0990233049" lon="30.0250048656"><ele>63.40</ele><time>2026-04-20T15:20:02Z</time></trkpt><trkpt lat="59.0989715885" lon="30.0247312803"><ele>63.30</ele><time>2026-04-20T15:20:17Z</time></trkpt><trkpt lat="59.0989466943" lon="30.0246308651"><ele>63.47</ele><time>2026-04-20T15:20:38Z</time></trkpt><trkpt lat="59.0989277512" lon="30.0246343017"><ele>63.97</ele><time>2026-04-20T15:21:02Z</time></trkpt><trkpt lat="59.0989387315" lon="30.0245787296"><ele>62.44</ele><time>2026-04-20T15:21:26Z</time></trkpt><trkpt lat="59.0988537390" lon="30.0242318027"><ele>63.21</ele><time>2026-04-20T15:21:51Z</time></trkpt><trkpt lat="59.0987890307" lon="30.0239318982"><ele>64.16</ele><time>2026-04-20T15:22:15Z</time></trkpt><trkpt lat="59.0987109113" lon="30.0235999748"><ele>63.38</ele><time>2026-04-20T15:22:41Z</time></trkpt><trkpt lat="59.0986945666" lon="30.0234171655"><ele>63.83</ele><time>2026-04-20T15:23:02Z</time></trkpt><trkpt lat="59.0986420121" lon="30.0231162552"><ele>63.74</ele><time>2026-04-20T15:23:24Z</time></trkpt><trkpt lat="59.0986157767" lon="30.0228600204"><ele>64.01</ele><time>2026-04-20T15:23:45Z</time></trkpt><trkpt lat="59.0985755436" lon="30.0224716868"><ele>63.53</ele><time>2026-04-20T15:24:09Z</time></trkpt><trkpt lat="59.0984832589" lon="30.0222679228"><ele>63.95</ele><time>2026-04-20T15:24:33Z</time></trkpt><trkpt lat="59.0985176247" lon="30.0222328026"><ele>64.03</ele><time>2026-04-20T15:25:01Z</time></trkpt><trkpt lat="59.0984816663" lon="30.0220402703"><ele>63.72</ele><time>2026-04-20T15:25:26Z</time></trkpt><trkpt lat="59.0984551795" lon="30.0217489991"><ele>63.68</ele><time>2026-04-20T15:25:44Z</time></trkpt><trkpt lat="59.0983764734" lon="30.0213618390"><ele>62.91</ele><time>2026-04-20T15:26:08Z</time></trkpt><trkpt lat="59.0982784051" lon="30.0208968110"><ele>64.45</ele><time>2026-04-20T15:26:33Z</time></trkpt><trkpt lat="59.0982100926" lon="30.0205426756"><ele>62.86</ele><time>2026-04-20T15:26:55Z</time></trkpt><trkpt lat="59.0981249325" lon="30.0202817470"><ele>63.93</ele><time>2026-04-20T15:27:11Z</time></trkpt><trkpt lat="59.0980828553" lon="30.0200897176"><ele>64.12</ele><time>2026-04-20T15:27:24Z</time></trkpt><trkpt lat="59.0980429575" lon="30.0197779946"><ele>63.28</ele><time>2026-04-20T15:27:44Z</time></trkpt><trkpt lat="59.0980802570" lon="30.0197277032"><ele>64.25</ele><time>2026-04-20T15:28:14Z</time></trkpt><trkpt lat="59.0980453044" lon="30.0195620768"><ele>63.91</ele><time>2026-04-20T15:28:38Z</time></trkpt><trkpt lat="59.0979804285" lon="30.0191952009"><ele>63.79</ele><time>2026-04-20T15:28:59Z</time></trkpt><trkpt lat="59.0979512595" lon="30.0190558098"><ele>63.24</ele><time>2026-04-20T15:29:09Z</time></trkpt><trkpt lat="59.0979329031" lon="30.0188905187"><ele>62.16</ele><time>2026-04-20T15:29:27Z</time></trkpt><trkpt lat="59.0978862997" lon="30.0185732637"><ele>63.39</ele><time>2026-04-20T15:29:50Z</time></trkpt><trkpt lat="59.0978043247" lon="30.0182245765"><ele>63.40</ele><time>2026-04-20T15:30:13Z</time></trkpt><trkpt lat="59.0977883153" lon="30.0181887858"><ele>63.09</ele><time>2026-04-20T15:30:18Z</time></trkpt><trkpt lat="59.0977461543" lon="30.0179260131"><ele>63.02</ele><time>2026-04-20T15:30:37Z</time></trkpt><trkpt lat="59.0976457391" lon="30.0175734702"><ele>63.46</ele><time>2026-04-20T15:30:58Z</time></trkpt><trkpt lat="59.0976213478" lon="30.0171677861"><ele>62.73</ele><time>2026-04-20T15:31:21Z</time></trkpt><trkpt lat="59.0975697152" lon="30.0169499405"><ele>62.86</ele><time>2026-04-20T15:31:36Z</time></trkpt><trkpt lat="59.0974995587" lon="30.0166178495"><ele>63.00</ele><time>2026-04-20T15:31:59Z</time></trkpt><trkpt lat="59.0974892490" lon="30.0165137462"><ele>63.47</ele><time>2026-04-20T15:32:17Z</time></trkpt><trkpt lat="59.0974732395" lon="30.0165291689"><ele>63.24</ele><time>2026-04-20T15:32:41Z</time></trkpt><trkpt lat="59.0974116325" lon="30.0163904484"><ele>63.11</ele><time>2026-04-20T15:33:03Z</time></trkpt><trkpt lat="59.0973905101" lon="30.0160996802"><ele>63.18</ele><time>2026-04-20T15:33:22Z</time></trkpt><trkpt lat="59.0973724891" lon="30.0157303736"><ele>62.76</ele><time>2026-04-20T15:33:46Z</time></trkpt><trkpt lat="59.0973395482" lon="30.0155276991"><ele>62.58</ele><time>2026-04-20T15:34:06Z</time></trkpt><trkpt lat="59.0972854011" lon="30.0152800139"><ele>63.00</ele><time>2026-04-20T15:34:29Z</time></trkpt><trkpt lat="59.0972223692" lon="30.0149252918"><ele>62.80</ele><time>2026-04-20T15:34:51Z</time></trkpt><trkpt lat="59.0971994866" lon="30.0145772751"><ele>63.80</ele><time>2026-04-20T15:35:15Z</time></trkpt><trkpt lat="59.0970767755" lon="30.0143432524"><ele>63.40</ele><time>2026-04-20T15:35:32Z</time></trkpt><trkpt lat="59.0970517974" lon="30.0142373051"><ele>63.29</ele><time>2026-04-20T15:35:50Z</time></trkpt><trkpt lat="59.0970446728" lon="30.0141699146"><ele>63.36</ele><time>2026-04-20T15:36:16Z</time></trkpt><trkpt lat="59.0970615204" lon="30.0141580962"><ele>63.21</ele><time>2026-04-20T15:36:19Z</time></trkpt><trkpt lat="59.0971001610" lon="30.0140022766"><ele>63.09</ele><time>2026-04-20T15:36:38Z</time></trkpt><trkpt lat="59.0970612690" lon="30.0138761289"><ele>63.57</ele><time>2026-04-20T15:36:51Z</time></trkpt><trkpt lat="59.0970143303" lon="30.0136872008"><ele>62.68</ele><time>2026-04-20T15:37:06Z</time></trkpt><trkpt lat="59.0969823953" lon="30.0134653319"><ele>63.67</ele><time>2026-04-20T15:37:21Z</time></trkpt><trkpt lat="59.0969804674" lon="30.0134463049"><ele>63.45</ele><time>2026-04-20T15:37:23Z</time></trkpt><trkpt lat="59.0969452634" lon="30.0132884737"><ele>63.80</ele><time>2026-04-20T15:37:31Z</time></trkpt><trkpt lat="59.0969124064" lon="30.0132070854"><ele>63.27</ele><time>2026-04-20T15:37:40Z</time></trkpt><trkpt lat="59.0968981571" lon="30.0129512697"><ele>64.27</ele><time>2026-04-20T15:38:03Z</time></trkpt><trkpt lat="59.0968722571" lon="30.0127564743"><ele>63.65</ele><time>2026-04-20T15:38:14Z</time></trkpt><trkpt lat="59.0968615282" lon="30.0126783550"><ele>64.54</ele><time>2026-04-20T15:38:22Z</time></trkpt><trkpt lat="59.0968448482" lon="30.0126202684"><ele>64.71</ele><time>2026-04-20T15:38:25Z</time></trkpt><trkpt lat="59.0968000051" lon="30.0123093836"><ele>63.95</ele><time>2026-04-20T15:38:43Z</time></trkpt><trkpt lat="59.0967424214" lon="30.0119111594"><ele>63.98</ele><time>2026-04-20T15:39:09Z</time></trkpt><trkpt lat="59.0967332013" lon="30.0118054636"><ele>64.91</ele><time>2026-04-20T15:39:26Z</time></trkpt><trkpt lat="59.0967142582" lon="30.0118210539"><ele>64.87</ele><time>2026-04-20T15:39:47Z</time></trkpt><trkpt lat="59.0966552496" lon="30.0116764661"><ele>65.13</ele><time>2026-04-20T15:40:09Z</time></trkpt><trkpt lat="59.0966143459" lon="30.0113863684"><ele>64.86</ele><time>2026-04-20T15:40:32Z</time></trkpt><trkpt lat="59.0965824947" lon="30.0111485738"><ele>65.30</ele><time>2026-04-20T15:40:55Z</time></trkpt><trkpt lat="59.0965685807" lon="30.0108795147"><ele>64.82</ele><time>2026-04-20T15:41:16Z</time></trkpt><trkpt lat="59.0965212230" lon="30.0105635170"><ele>64.45</ele><time>2026-04-20T15:41:40Z</time></trkpt><trkpt lat="59.0964792296" lon="30.0103745051"><ele>64.53</ele><time>2026-04-20T15:41:54Z</time></trkpt><trkpt lat="59.0964238252" lon="30.0101110619"><ele>63.85</ele><time>2026-04-20T15:42:11Z</time></trkpt><trkpt lat="59.0963935666" lon="30.0099477824"><ele>64.58</ele><time>2026-04-20T15:42:20Z</time></trkpt><trkpt lat="59.0963394195" lon="30.0096798129"><ele>64.48</ele><time>2026-04-20T15:42:39Z</time></trkpt><trkpt lat="59.0962602105" lon="30.0093970075"><ele>64.37</ele><time>2026-04-20T15:42:52Z</time></trkpt><trkpt lat="59.0961972624" lon="30.0092535093"><ele>64.76</ele><time>2026-04-20T15:43:17Z</time></trkpt><trkpt lat="59.0961986035" lon="30.0091085862"><ele>64.19</ele><time>2026-04-20T15:43:45Z</time></trkpt><trkpt lat="59.0961565264" lon="30.0087937620"><ele>65.44</ele><time>2026-04-20T15:44:07Z</time></trkpt><trkpt lat="59.0961547662" lon="30.0087708794"><ele>64.76</ele><time>2026-04-20T15:44:09Z</time></trkpt><trkpt lat="59.0960762277" lon="30.0084181689"><ele>64.13</ele><time>2026-04-20T15:44:32Z</time></trkpt><trkpt lat="59.0960276127" lon="30.0081424881"><ele>63.79</ele><time>2026-04-20T15:44:49Z</time></trkpt><trkpt lat="59.0959334839" lon="30.0078550726"><ele>64.71</ele><time>2026-04-20T15:45:06Z</time></trkpt><trkpt lat="59.0959169716" lon="30.0075701717"><ele>64.36</ele><time>2026-04-20T15:45:22Z</time></trkpt><trkpt lat="59.0958500002" lon="30.0073312037"><ele>64.91</ele><time>2026-04-20T15:45:38Z</time></trkpt><trkpt lat="59.0958209150" lon="30.0071939081"><ele>64.72</ele><time>2026-04-20T15:45:51Z</time></trkpt><trkpt lat="59.0958026424" lon="30.0072338898"><ele>65.37</ele><time>2026-04-20T15:46:30Z</time></trkpt><trkpt lat="59.0958030615" lon="30.0071395934"><ele>65.02</ele><time>2026-04-20T15:46:44Z</time></trkpt><trkpt lat="59.0958028100" lon="30.0069630705"><ele>65.51</ele><time>2026-04-20T15:46:59Z</time></trkpt><trkpt lat="59.0957180690" lon="30.0065791793"><ele>65.19</ele><time>2026-04-20T15:47:21Z</time></trkpt><trkpt lat="59.0956875589" lon="30.0064343400"><ele>64.73</ele><time>2026-04-20T15:47:31Z</time></trkpt><trkpt lat="59.0956262033" lon="30.0061703939"><ele>65.02</ele><time>2026-04-20T15:47:49Z</time></trkpt><trkpt lat="59.0956222638" lon="30.0060496945"><ele>64.99</ele><time>2026-04-20T15:48:00Z</time></trkpt><trkpt lat="59.0955665242" lon="30.0057331100"><ele>65.30</ele><time>2026-04-20T15:48:23Z</time></trkpt><trkpt lat="59.0955509339" lon="30.0055497140"><ele>64.42</ele><time>2026-04-20T15:48:38Z</time></trkpt><trkpt lat="59.0955310687" lon="30.0053577684"><ele>64.46</ele><time>2026-04-20T15:48:57Z</time></trkpt><trkpt lat="59.0954931825" lon="30.0051500648"><ele>64.58</ele><time>2026-04-20T15:49:11Z</time></trkpt><trkpt lat="59.0954466630" lon="30.0049234182"><ele>64.87</ele><time>2026-04-20T15:49:28Z</time></trkpt><trkpt lat="59.0954084415" lon="30.0047233421"><ele>64.90</ele><time>2026-04-20T15:49:48Z</time></trkpt><trkpt lat="59.0953698847" lon="30.0047064945"><ele>64.89</ele><time>2026-04-20T15:49:55Z</time></trkpt><trkpt lat="59.0953872353" lon="30.0046460610"><ele>64.84</ele><time>2026-04-20T15:50:20Z</time></trkpt><trkpt lat="59.0954436455" lon="30.0045889802"><ele>64.91</ele><time>2026-04-20T15:50:42Z</time></trkpt><trkpt lat="59.0954010654" lon="30.0044516847"><ele>64.86</ele><time>2026-04-20T15:50:55Z</time></trkpt><trkpt lat="59.0953657776" lon="30.0042849686"><ele>64.50</ele><time>2026-04-20T15:51:07Z</time></trkpt><trkpt lat="59.0953216888" lon="30.0040626805"><ele>65.30</ele><time>2026-04-20T15:51:20Z</time></trkpt><trkpt lat="59.0953196771" lon="30.0040343497"><ele>65.11</ele><time>2026-04-20T15:51:22Z</time></trkpt><trkpt lat="59.0953084454" lon="30.0039718207"><ele>65.36</ele><time>2026-04-20T15:51:26Z</time></trkpt><trkpt lat="59.0952843055" lon="30.0037578307"><ele>66.12</ele><time>2026-04-20T15:51:41Z</time></trkpt><trkpt lat="59.0952532925" lon="30.0035815593"><ele>65.04</ele><time>2026-04-20T15:51:55Z</time></trkpt><trkpt lat="59.0952409711" lon="30.0034750253"><ele>65.26</ele><time>2026-04-20T15:52:02Z</time></trkpt><trkpt lat="59.0951539669" lon="30.0031308644"><ele>65.21</ele><time>2026-04-20T15:52:23Z</time></trkpt><trkpt lat="59.0951431543" lon="30.0030533317"><ele>65.25</ele><time>2026-04-20T15:52:31Z</time></trkpt><trkpt lat="59.0950601734" lon="30.0025794189"><ele>65.16</ele><time>2026-04-20T15:52:57Z</time></trkpt><trkpt lat="59.0950441640" lon="30.0025437120"><ele>65.15</ele><time>2026-04-20T15:52:59Z</time></trkpt><trkpt lat="59.0949763544" lon="30.0024403632"><ele>64.78</ele><time>2026-04-20T15:53:22Z</time></trkpt><trkpt lat="59.0950123966" lon="30.0023118686"><ele>65.39</ele><time>2026-04-20T15:53:48Z</time></trkpt><trkpt lat="59.0949928667" lon="30.0021220185"><ele>65.22</ele><time>2026-04-20T15:54:03Z</time></trkpt><trkpt lat="59.0949749295" lon="30.0020570587"><ele>64.88</ele><time>2026-04-20T15:54:07Z</time></trkpt><trkpt lat="59.0949220397" lon="30.0018079486"><ele>64.03</ele><time>2026-04-20T15:54:21Z</time></trkpt><trkpt lat="59.0948945470" lon="30.0015241373"><ele>65.43</ele><time>2026-04-20T15:54:38Z</time></trkpt><trkpt lat="59.0948698204" lon="30.0013040286"><ele>65.82</ele><time>2026-04-20T15:54:52Z</time></trkpt><trkpt lat="59.0948559064" lon="30.0010590255"><ele>65.61</ele><time>2026-04-20T15:55:12Z</time></trkpt><trkpt lat="59.0947606042" lon="30.0006737933"><ele>65.99</ele><time>2026-04-20T15:55:29Z</time></trkpt><trkpt lat="59.0947108995" lon="30.0004061591"><ele>66.22</ele><time>2026-04-20T15:55:45Z</time></trkpt><trkpt lat="59.0946479514" lon="30.0002037361"><ele>66.26</ele><time>2026-04-20T15:56:04Z</time></trkpt><trkpt lat="59.0946209617" lon="30.0001543667"><ele>66.46</ele><time>2026-04-20T15:56:17Z</time></trkpt><trkpt lat="59.0946130827" lon="30.0001374353"><ele>63.50</ele><time>2026-04-20T15:56:28Z</time></trkpt><trkpt lat="59.0946130827" lon="30.0001374353"><ele>69.91</ele><time>2026-04-20T15:56:29Z</time></trkpt><trkpt lat="59.0946145914" lon="30.0001383573"><ele>66.54</ele><time>2026-04-20T15:56:30Z</time></trkpt><trkpt lat="59.0946078021" lon="30.0001207553"><ele>65.88</ele><time>2026-04-20T15:56:51Z</time></trkpt><trkpt lat="59.0945992526" lon="30.0000709668"><ele>66.43</ele><time>2026-04-20T15:56:55Z</time></trkpt><trkpt lat="59.0945901163" lon="29.9997651111"><ele>66.75</ele><time>2026-04-20T15:57:14Z</time></trkpt><trkpt lat="59.0945372265" lon="29.9993697368"><ele>66.33</ele><time>2026-04-20T15:57:38Z</time></trkpt><trkpt lat="59.0944634657" lon="29.9990233127"><ele>66.42</ele><time>2026-04-20T15:57:59Z</time></trkpt><trkpt lat="59.0944182873" lon="29.9988558423"><ele>66.36</ele><time>2026-04-20T15:58:16Z</time></trkpt><trkpt lat="59.0943607874" lon="29.9985112622"><ele>65.18</ele><time>2026-04-20T15:58:38Z</time></trkpt><trkpt lat="59.0942803212" lon="29.9983877968"><ele>66.83</ele><time>2026-04-20T15:58:58Z</time></trkpt><trkpt lat="59.0942758787" lon="29.9983981065"><ele>66.83</ele><time>2026-04-20T15:59:15Z</time></trkpt><trkpt lat="59.0943276789" lon="29.9982001260"><ele>65.93</ele><time>2026-04-20T15:59:40Z</time></trkpt><trkpt lat="59.0942420159" lon="29.9979159795"><ele>67.13</ele><time>2026-04-20T15:59:58Z</time></trkpt><trkpt lat="59.0942017827" lon="29.9976729881"><ele>66.52</ele><time>2026-04-20T16:00:13Z</time></trkpt><trkpt lat="59.0941578615" lon="29.9973297492"><ele>66.58</ele><time>2026-04-20T16:00:36Z</time></trkpt><trkpt lat="59.0941346437" lon="29.9972737581"><ele>66.51</ele><time>2026-04-20T16:00:41Z</time></trkpt><trkpt lat="59.0941436123" lon="29.9971113168"><ele>66.57</ele><time>2026-04-20T16:01:01Z</time></trkpt><trkpt lat="59.0940873697" lon="29.9968716782"><ele>66.49</ele><time>2026-04-20T16:01:13Z</time></trkpt><trkpt lat="59.0939707775" lon="29.9965371564"><ele>65.19</ele><time>2026-04-20T16:01:33Z</time></trkpt><trkpt lat="59.0939763933" lon="29.9965315405"><ele>65.28</ele><time>2026-04-20T16:01:34Z</time></trkpt><trkpt lat="59.0939297900" lon="29.9965856876"><ele>66.85</ele><time>2026-04-20T16:01:49Z</time></trkpt><trkpt lat="59.0939257666" lon="29.9965927284"><ele>66.36</ele><time>2026-04-20T16:02:14Z</time></trkpt><trkpt lat="59.0938699432" lon="29.9964876194"><ele>66.13</ele><time>2026-04-20T16:02:35Z</time></trkpt><trkpt lat="59.0938449651" lon="29.9964802433"><ele>66.02</ele><time>2026-04-20T16:02:39Z</time></trkpt><trkpt lat="59.0937710367" lon="29.9964996055"><ele>66.44</ele><time>2026-04-20T16:02:58Z</time></trkpt><trkpt lat="59.0936914086" lon="29.9967667367"><ele>65.48</ele><time>2026-04-20T16:03:16Z</time></trkpt><trkpt lat="59.0936818533" lon="29.9967983365"><ele>65.14</ele><time>2026-04-20T16:03:18Z</time></trkpt><trkpt lat="59.0936986171" lon="29.9967134278"><ele>66.65</ele><time>2026-04-20T16:03:35Z</time></trkpt><trkpt lat="59.0937499143" lon="29.9965844303"><ele>65.48</ele><time>2026-04-20T16:03:46Z</time></trkpt><trkpt lat="59.0937604755" lon="29.9965671636"><ele>65.76</ele><time>2026-04-20T16:03:48Z</time></trkpt><trkpt lat="59.0938939992" lon="29.9964950792"><ele>65.54</ele><time>2026-04-20T16:04:03Z</time></trkpt><trkpt lat="59.0939300414" lon="29.9965275172"><ele>65.27</ele><time>2026-04-20T16:04:08Z</time></trkpt><trkpt lat="59.0939803328" lon="29.9965469632"><ele>65.88</ele><time>2026-04-20T16:04:16Z</time></trkpt><trkpt lat="59.0940074064" lon="29.9964734539"><ele>66.94</ele><time>2026-04-20T16:04:24Z</time></trkpt><trkpt lat="59.0939531755" lon="29.9960759003"><ele>66.44</ele><time>2026-04-20T16:04:47Z</time></trkpt><trkpt lat="59.0938652493" lon="29.9957480840"><ele>66.35</ele><time>2026-04-20T16:05:06Z</time></trkpt><trkpt lat="59.0938306320" lon="29.9954644404"><ele>66.97</ele><time>2026-04-20T16:05:24Z</time></trkpt><trkpt lat="59.0938007087" lon="29.9952851515"><ele>67.37</ele><time>2026-04-20T16:05:40Z</time></trkpt><trkpt lat="59.0937833581" lon="29.9951356184"><ele>66.36</ele><time>2026-04-20T16:06:03Z</time></trkpt><trkpt lat="59.0937318932" lon="29.9950314313"><ele>67.01</ele><time>2026-04-20T16:06:27Z</time></trkpt><trkpt lat="59.0937323123" lon="29.9949352909"><ele>66.22</ele><time>2026-04-20T16:06:41Z</time></trkpt><trkpt lat="59.0937077533" lon="29.9949215446"><ele>66.19</ele><time>2026-04-20T16:07:02Z</time></trkpt><trkpt lat="59.0937238466" lon="29.9948031083"><ele>67.08</ele><time>2026-04-20T16:07:30Z</time></trkpt><trkpt lat="59.0936743096" lon="29.9945390783"><ele>66.12</ele><time>2026-04-20T16:07:48Z</time></trkpt><trkpt lat="59.0936984494" lon="29.9944370706"><ele>66.16</ele><time>2026-04-20T16:07:53Z</time></trkpt><trkpt lat="59.0937001258" lon="29.9942527525"><ele>66.44</ele><time>2026-04-20T16:08:05Z</time></trkpt><trkpt lat="59.0936566237" lon="29.9940396007"><ele>67.17</ele><time>2026-04-20T16:08:21Z</time></trkpt><trkpt lat="59.0936175641" lon="29.9938989524"><ele>66.28</ele><time>2026-04-20T16:08:32Z</time></trkpt><trkpt lat="59.0936043207" lon="29.9938271195"><ele>65.79</ele><time>2026-04-20T16:08:36Z</time></trkpt><trkpt lat="59.0935924184" lon="29.9937445577"><ele>66.29</ele><time>2026-04-20T16:08:42Z</time></trkpt><trkpt lat="59.0935811866" lon="29.9936694559"><ele>66.71</ele><time>2026-04-20T16:08:45Z</time></trkpt><trkpt lat="59.0935483295" lon="29.9935637601"><ele>66.96</ele><time>2026-04-20T16:08:49Z</time></trkpt><trkpt lat="59.0935101081" lon="29.9934025761"><ele>67.19</ele><time>2026-04-20T16:08:56Z</time></trkpt><trkpt lat="59.0934966132" lon="29.9932340998"><ele>68.05</ele><time>2026-04-20T16:09:07Z</time></trkpt><trkpt lat="59.0934381075" lon="29.9928569142"><ele>66.84</ele><time>2026-04-20T16:09:26Z</time></trkpt><trkpt lat="59.0933635924" lon="29.9924841709"><ele>66.90</ele><time>2026-04-20T16:09:48Z</time></trkpt><trkpt lat="59.0933250356" lon="29.9921672512"><ele>66.84</ele><time>2026-04-20T16:10:08Z</time></trkpt><trkpt lat="59.0932604112" lon="29.9917875510"><ele>67.47</ele><time>2026-04-20T16:10:30Z</time></trkpt><trkpt lat="59.0931692161" lon="29.9913138058"><ele>66.33</ele><time>2026-04-20T16:10:52Z</time></trkpt><trkpt lat="59.0930980537" lon="29.9909558985"><ele>66.55</ele><time>2026-04-20T16:11:13Z</time></trkpt><trkpt lat="59.0930164978" lon="29.9907177687"><ele>66.70</ele><time>2026-04-20T16:11:30Z</time></trkpt><trkpt lat="59.0930035897" lon="29.9904523138"><ele>66.38</ele><time>2026-04-20T16:11:48Z</time></trkpt><trkpt lat="59.0929460060" lon="29.9900613818"><ele>66.66</ele><time>2026-04-20T16:12:10Z</time></trkpt><trkpt lat="59.0929315891" lon="29.9898766447"><ele>66.67</ele><time>2026-04-20T16:12:25Z</time></trkpt><trkpt lat="59.0928335208" lon="29.9895018898"><ele>67.11</ele><time>2026-04-20T16:12:42Z</time></trkpt><trkpt lat="59.0927025955" lon="29.9888883345"><ele>66.86</ele><time>2026-04-20T16:13:05Z</time></trkpt><trkpt lat="59.0925796330" lon="29.9883623701"><ele>65.67</ele><time>2026-04-20T16:13:30Z</time></trkpt><trkpt lat="59.0925183613" lon="29.9881072249"><ele>66.18</ele><time>2026-04-20T16:13:46Z</time></trkpt><trkpt lat="59.0924710874" lon="29.9879498128"><ele>66.15</ele><time>2026-04-20T16:13:56Z</time></trkpt><trkpt lat="59.0924146771" lon="29.9878355674"><ele>65.94</ele><time>2026-04-20T16:14:16Z</time></trkpt><trkpt lat="59.0923967399" lon="29.9877770618"><ele>65.53</ele><time>2026-04-20T16:14:40Z</time></trkpt><trkpt lat="59.0924157668" lon="29.9877537601"><ele>66.44</ele><time>2026-04-20T16:15:02Z</time></trkpt><trkpt lat="59.0924259927" lon="29.9877842702"><ele>65.47</ele><time>2026-04-20T16:15:29Z</time></trkpt><trkpt lat="59.0924177784" lon="29.9877690990"><ele>65.03</ele><time>2026-04-20T16:15:34Z</time></trkpt><trkpt lat="59.0924328659" lon="29.9877913948"><ele>65.03</ele><time>2026-04-20T16:15:51Z</time></trkpt><trkpt lat="59.0924215503" lon="29.9878129363"><ele>64.87</ele><time>2026-04-20T16:16:19Z</time></trkpt><trkpt lat="59.0924009308" lon="29.9878571928"><ele>64.96</ele><time>2026-04-20T16:16:43Z</time></trkpt><trkpt lat="59.0924492944" lon="29.9879627209"><ele>64.41</ele><time>2026-04-20T16:16:57Z</time></trkpt><trkpt lat="59.0925173555" lon="29.9881609529"><ele>64.38</ele><time>2026-04-20T16:17:09Z</time></trkpt><trkpt lat="59.0925870929" lon="29.9884541519"><ele>63.28</ele><time>2026-04-20T16:17:22Z</time></trkpt><trkpt lat="59.0925984923" lon="29.9884959776"><ele>63.30</ele><time>2026-04-20T16:17:24Z</time></trkpt><trkpt lat="59.0927105583" lon="29.9890143145"><ele>63.56</ele><time>2026-04-20T16:17:47Z</time></trkpt><trkpt lat="59.0927569941" lon="29.9892803561"><ele>63.63</ele><time>2026-04-20T16:18:04Z</time></trkpt><trkpt lat="59.0928000771" lon="29.9895003811"><ele>63.39</ele><time>2026-04-20T16:18:17Z</time></trkpt><trkpt lat="59.0928678866" lon="29.9898566119"><ele>63.21</ele><time>2026-04-20T16:18:36Z</time></trkpt><trkpt lat="59.0928766038" lon="29.9899864476"><ele>63.14</ele><time>2026-04-20T16:18:40Z</time></trkpt><trkpt lat="59.0929694753" lon="29.9903764576"><ele>62.53</ele><time>2026-04-20T16:18:58Z</time></trkpt><trkpt lat="59.0929959621" lon="29.9904738553"><ele>62.48</ele><time>2026-04-20T16:19:02Z</time></trkpt><trkpt lat="59.0930651966" lon="29.9909911864"><ele>62.72</ele><time>2026-04-20T16:19:25Z</time></trkpt><trkpt lat="59.0931374487" lon="29.9913130514"><ele>62.36</ele><time>2026-04-20T16:19:40Z</time></trkpt><trkpt lat="59.0932254586" lon="29.9917421211"><ele>62.52</ele><time>2026-04-20T16:20:01Z</time></trkpt><trkpt lat="59.0933219343" lon="29.9921937380"><ele>62.00</ele><time>2026-04-20T16:20:24Z</time></trkpt><trkpt lat="59.0933510195" lon="29.9926403258"><ele>61.95</ele><time>2026-04-20T16:20:41Z</time></trkpt><trkpt lat="59.0933971200" lon="29.9928597640"><ele>62.05</ele><time>2026-04-20T16:20:52Z</time></trkpt><trkpt lat="59.0934562124" lon="29.9933049269"><ele>62.02</ele><time>2026-04-20T16:21:07Z</time></trkpt><trkpt lat="59.0935565438" lon="29.9936604034"><ele>62.47</ele><time>2026-04-20T16:21:22Z</time></trkpt><trkpt lat="59.0936285444" lon="29.9940328952"><ele>61.77</ele><time>2026-04-20T16:21:40Z</time></trkpt><trkpt lat="59.0936307237" lon="29.9942791555"><ele>62.27</ele><time>2026-04-20T16:21:52Z</time></trkpt><trkpt lat="59.0936560370" lon="29.9945181236"><ele>61.64</ele><time>2026-04-20T16:22:05Z</time></trkpt><trkpt lat="59.0937085077" lon="29.9946657289"><ele>60.43</ele><time>2026-04-20T16:22:20Z</time></trkpt><trkpt lat="59.0937484894" lon="29.9948030245"><ele>61.49</ele><time>2026-04-20T16:22:37Z</time></trkpt><trkpt lat="59.0937632415" lon="29.9949447624"><ele>60.70</ele><time>2026-04-20T16:22:47Z</time></trkpt><trkpt lat="59.0937605593" lon="29.9950808845"><ele>60.23</ele><time>2026-04-20T16:22:56Z</time></trkpt><trkpt lat="59.0938012116" lon="29.9952900968"><ele>60.70</ele><time>2026-04-20T16:23:06Z</time></trkpt><trkpt lat="59.0938540176" lon="29.9955656100"><ele>61.36</ele><time>2026-04-20T16:23:19Z</time></trkpt><trkpt lat="59.0938982740" lon="29.9957982916"><ele>61.01</ele><time>2026-04-20T16:23:29Z</time></trkpt><trkpt lat="59.0939314663" lon="29.9960321467"><ele>61.18</ele><time>2026-04-20T16:23:40Z</time></trkpt><trkpt lat="59.0939407703" lon="29.9961050693"><ele>61.22</ele><time>2026-04-20T16:23:43Z</time></trkpt><trkpt lat="59.0940088313" lon="29.9964204803"><ele>60.13</ele><time>2026-04-20T16:23:59Z</time></trkpt><trkpt lat="59.0940668341" lon="29.9966163654"><ele>60.65</ele><time>2026-04-20T16:24:09Z</time></trkpt><trkpt lat="59.0941071510" lon="29.9968980812"><ele>60.15</ele><time>2026-04-20T16:24:21Z</time></trkpt><trkpt lat="59.0941630583" lon="29.9971711636"><ele>60.55</ele><time>2026-04-20T16:24:33Z</time></trkpt><trkpt lat="59.0941859409" lon="29.9973382149"><ele>59.42</ele><time>2026-04-20T16:24:42Z</time></trkpt><trkpt lat="59.0941932332" lon="29.9973763525"><ele>59.79</ele><time>2026-04-20T16:24:44Z</time></trkpt><trkpt lat="59.0942843445" lon="29.9975827150"><ele>60.32</ele><time>2026-04-20T16:24:56Z</time></trkpt><trkpt lat="59.0942951571" lon="29.9976784363"><ele>59.76</ele><time>2026-04-20T16:24:59Z</time></trkpt><trkpt lat="59.0943056345" lon="29.9980592262"><ele>59.25</ele><time>2026-04-20T16:25:09Z</time></trkpt><trkpt lat="59.0943206381" lon="29.9983543530"><ele>61.37</ele><time>2026-04-20T16:25:16Z</time></trkpt><trkpt lat="59.0944138449" lon="29.9986198917"><ele>60.34</ele><time>2026-04-20T16:25:30Z</time></trkpt><trkpt lat="59.0944705065" lon="29.9987907149"><ele>60.34</ele><time>2026-04-20T16:25:37Z</time></trkpt><trkpt lat="59.0945010167" lon="29.9988612905"><ele>60.16</ele><time>2026-04-20T16:25:41Z</time></trkpt><trkpt lat="59.0945933852" lon="29.9992725067"><ele>60.12</ele><time>2026-04-20T16:25:58Z</time></trkpt><trkpt lat="59.0946110711" lon="29.9993954692"><ele>60.39</ele><time>2026-04-20T16:26:02Z</time></trkpt><trkpt lat="59.0946110711" lon="29.9994934537"><ele>60.63</ele><time>2026-04-20T16:26:05Z</time></trkpt><trkpt lat="59.0946217161" lon="29.9995464273"><ele>59.65</ele><time>2026-04-20T16:26:07Z</time></trkpt><trkpt lat="59.0947454330" lon="30.0003052410"><ele>58.23</ele><time>2026-04-20T16:26:33Z</time></trkpt><trkpt lat="59.0948494524" lon="30.0008757971"><ele>58.40</ele><time>2026-04-20T16:26:55Z</time></trkpt><trkpt lat="59.0949323494" lon="30.0014761090"><ele>58.48</ele><time>2026-04-20T16:27:18Z</time></trkpt><trkpt lat="59.0950501990" lon="30.0021512713"><ele>57.00</ele><time>2026-04-20T16:27:43Z</time></trkpt><trkpt lat="59.0951227024" lon="30.0027289521"><ele>56.98</ele><time>2026-04-20T16:28:04Z</time></trkpt><trkpt lat="59.0952280629" lon="30.0032650586"><ele>57.05</ele><time>2026-04-20T16:28:25Z</time></trkpt><trkpt lat="59.0953214373" lon="30.0037879217"><ele>56.62</ele><time>2026-04-20T16:28:46Z</time></trkpt><trkpt lat="59.0953995567" lon="30.0042838790"><ele>55.51</ele><time>2026-04-20T16:29:09Z</time></trkpt><trkpt lat="59.0954842977" lon="30.0045664329"><ele>55.52</ele><time>2026-04-20T16:29:21Z</time></trkpt><trkpt lat="59.0955047496" lon="30.0047966000"><ele>56.41</ele><time>2026-04-20T16:29:30Z</time></trkpt><trkpt lat="59.0955529455" lon="30.0052223168"><ele>55.64</ele><time>2026-04-20T16:29:46Z</time></trkpt><trkpt lat="59.0955798514" lon="30.0054243207"><ele>55.57</ele><time>2026-04-20T16:29:55Z</time></trkpt><trkpt lat="59.0955919214" lon="30.0054886937"><ele>54.78</ele><time>2026-04-20T16:29:58Z</time></trkpt><trkpt lat="59.0956255328" lon="30.0055709202"><ele>54.89</ele><time>2026-04-20T16:30:01Z</time></trkpt><trkpt lat="59.0957219247" lon="30.0061409734"><ele>55.43</ele><time>2026-04-20T16:30:22Z</time></trkpt><trkpt lat="59.0957584698" lon="30.0064443145"><ele>55.13</ele><time>2026-04-20T16:30:33Z</time></trkpt><trkpt lat="59.0957736410" lon="30.0065122917"><ele>55.15</ele><time>2026-04-20T16:30:36Z</time></trkpt><trkpt lat="59.0957850404" lon="30.0065714680"><ele>54.41</ele><time>2026-04-20T16:30:39Z</time></trkpt><trkpt lat="59.0957945120" lon="30.0066074263"><ele>54.28</ele><time>2026-04-20T16:30:42Z</time></trkpt><trkpt lat="59.0958433785" lon="30.0068409462"><ele>55.48</ele><time>2026-04-20T16:30:52Z</time></trkpt><trkpt lat="59.0958733857" lon="30.0071038026"><ele>54.35</ele><time>2026-04-20T16:31:04Z</time></trkpt><trkpt lat="59.0959602222" lon="30.0073979236"><ele>53.51</ele><time>2026-04-20T16:31:14Z</time></trkpt><trkpt lat="59.0960708633" lon="30.0080031808"><ele>53.41</ele><time>2026-04-20T16:31:36Z</time></trkpt><trkpt lat="59.0961918142" lon="30.0086051691"><ele>52.11</ele><time>2026-04-20T16:31:59Z</time></trkpt><trkpt lat="59.0963876992" lon="30.0091184769"><ele>52.61</ele><time>2026-04-20T16:32:19Z</time></trkpt><trkpt lat="59.0964623820" lon="30.0094483048"><ele>53.10</ele><time>2026-04-20T16:32:31Z</time></trkpt><trkpt lat="59.0965539124" lon="30.0100470241"><ele>51.87</ele><time>2026-04-20T16:32:55Z</time></trkpt><trkpt lat="59.0965543315" lon="30.0106407981"><ele>51.93</ele><time>2026-04-20T16:33:17Z</time></trkpt><trkpt lat="59.0965125058" lon="30.0107727293"><ele>51.69</ele><time>2026-04-20T16:33:22Z</time></trkpt><trkpt lat="59.0964279324" lon="30.0109333266"><ele>52.23</ele><time>2026-04-20T16:33:38Z</time></trkpt><trkpt lat="59.0963781439" lon="30.0111074187"><ele>52.20</ele><time>2026-04-20T16:34:08Z</time></trkpt><trkpt lat="59.0962813329" lon="30.0112846121"><ele>51.90</ele><time>2026-04-20T16:34:28Z</time></trkpt><trkpt lat="59.0961382538" lon="30.0114447065"><ele>52.06</ele><time>2026-04-20T16:34:52Z</time></trkpt><trkpt lat="59.0960851125" lon="30.0115652382"><ele>51.88</ele><time>2026-04-20T16:35:14Z</time></trkpt><trkpt lat="59.0960900579" lon="30.0116783939"><ele>51.96</ele><time>2026-04-20T16:35:29Z</time></trkpt><trkpt lat="59.0961267706" lon="30.0117954053"><ele>52.43</ele><time>2026-04-20T16:35:46Z</time></trkpt><trkpt lat="59.0960794128" lon="30.0119902007"><ele>52.01</ele><time>2026-04-20T16:36:08Z</time></trkpt><trkpt lat="59.0959883854" lon="30.0119791366"><ele>51.63</ele><time>2026-04-20T16:36:27Z</time></trkpt><trkpt lat="59.0959605575" lon="30.0119609479"><ele>52.42</ele><time>2026-04-20T16:36:44Z</time></trkpt><trkpt lat="59.0959980246" lon="30.0120109878"><ele>52.21</ele><time>2026-04-20T16:37:01Z</time></trkpt><trkpt lat="59.0959545225" lon="30.0121238921"><ele>52.93</ele><time>2026-04-20T16:37:23Z</time></trkpt><trkpt lat="59.0959322266" lon="30.0122246426"><ele>53.32</ele><time>2026-04-20T16:37:40Z</time></trkpt><trkpt lat="59.0959719568" lon="30.0121244788"><ele>52.57</ele><time>2026-04-20T16:37:58Z</time></trkpt><trkpt lat="59.0960567817" lon="30.0119753648"><ele>53.93</ele><time>2026-04-20T16:38:17Z</time></trkpt><trkpt lat="59.0961668361" lon="30.0118051283"><ele>53.54</ele><time>2026-04-20T16:38:34Z</time></trkpt><trkpt lat="59.0960773174" lon="30.0115780625"><ele>54.37</ele><time>2026-04-20T16:38:54Z</time></trkpt><trkpt lat="59.0959497448" lon="30.0115691777"><ele>53.46</ele><time>2026-04-20T16:39:09Z</time></trkpt><trkpt lat="59.0958264470" lon="30.0116019510"><ele>53.95</ele><time>2026-04-20T16:39:28Z</time></trkpt><trkpt lat="59.0958010498" lon="30.0117477961"><ele>54.02</ele><time>2026-04-20T16:39:43Z</time></trkpt><trkpt lat="59.0957836993" lon="30.0118783861"><ele>54.33</ele><time>2026-04-20T16:40:05Z</time></trkpt><trkpt lat="59.0958208311" lon="30.0116726942"><ele>54.51</ele><time>2026-04-20T16:40:29Z</time></trkpt><trkpt lat="59.0958095994" lon="30.0115281064"><ele>53.52</ele><time>2026-04-20T16:41:02Z</time></trkpt><trkpt lat="59.0958313085" lon="30.0113849435"><ele>54.17</ele><time>2026-04-20T16:41:24Z</time></trkpt><trkpt lat="59.0958426241" lon="30.0112390984"><ele>54.21</ele><time>2026-04-20T16:41:45Z</time></trkpt><trkpt lat="59.0958978608" lon="30.0111189019"><ele>54.42</ele><time>2026-04-20T16:42:10Z</time></trkpt><trkpt lat="59.0959128644" lon="30.0111021381"><ele>53.97</ele><time>2026-04-20T16:42:40Z</time></trkpt><trkpt lat="59.0958962683" lon="30.0111308880"><ele>54.65</ele><time>2026-04-20T16:43:13Z</time></trkpt><trkpt lat="59.0958935022" lon="30.0111302175"><ele>54.22</ele><time>2026-04-20T16:43:39Z</time></trkpt><trkpt lat="59.0959033929" lon="30.0111375935"><ele>55.72</ele><time>2026-04-20T16:44:06Z</time></trkpt><trkpt lat="59.0959027223" lon="30.0111357495"><ele>55.04</ele><time>2026-04-20T16:44:38Z</time></trkpt><trkpt lat="59.0959682688" lon="30.0110943429"><ele>56.05</ele><time>2026-04-20T16:44:58Z</time></trkpt><trkpt lat="59.0960025508" lon="30.0110372622"><ele>54.87</ele><time>2026-04-20T16:45:20Z</time></trkpt><trkpt lat="59.0960576199" lon="30.0109161437"><ele>55.84</ele><time>2026-04-20T16:45:40Z</time></trkpt><trkpt lat="59.0961083304" lon="30.0109974481"><ele>55.26</ele><time>2026-04-20T16:45:59Z</time></trkpt><trkpt lat="59.0961684287" lon="30.0111264456"><ele>55.76</ele><time>2026-04-20T16:46:20Z</time></trkpt><trkpt lat="59.0962679219" lon="30.0110324845"><ele>54.65</ele><time>2026-04-20T16:46:45Z</time></trkpt><trkpt lat="59.0963095799" lon="30.0107811112"><ele>55.46</ele><time>2026-04-20T16:47:05Z</time></trkpt><trkpt lat="59.0963234939" lon="30.0106606632"><ele>55.38</ele><time>2026-04-20T16:47:24Z</time></trkpt><trkpt lat="59.0963084064" lon="30.0105267204"><ele>56.32</ele><time>2026-04-20T16:47:41Z</time></trkpt><trkpt lat="59.0961666685" lon="30.0105066877"><ele>55.52</ele><time>2026-04-20T16:48:00Z</time></trkpt><trkpt lat="59.0960162133" lon="30.0105664507"><ele>55.76</ele><time>2026-04-20T16:48:20Z</time></trkpt><trkpt lat="59.0959035605" lon="30.0106076896"><ele>55.60</ele><time>2026-04-20T16:48:38Z</time></trkpt><trkpt lat="59.0958428755" lon="30.0106354337"><ele>55.74</ele><time>2026-04-20T16:48:55Z</time></trkpt><trkpt lat="59.0958202444" lon="30.0107917562"><ele>56.19</ele><time>2026-04-20T16:49:16Z</time></trkpt><trkpt lat="59.0957915783" lon="30.0109632500"><ele>55.82</ele><time>2026-04-20T16:49:37Z</time></trkpt><trkpt lat="59.0958359186" lon="30.0111275353"><ele>56.76</ele><time>2026-04-20T16:50:01Z</time></trkpt><trkpt lat="59.0958557837" lon="30.0111059099"><ele>55.88</ele><time>2026-04-20T16:50:03Z</time></trkpt><trkpt lat="59.0958995372" lon="30.0110539421"><ele>55.54</ele><time>2026-04-20T16:50:18Z</time></trkpt><trkpt lat="59.0958347451" lon="30.0113001186"><ele>56.48</ele><time>2026-04-20T16:50:39Z</time></trkpt><trkpt lat="59.0958184004" lon="30.0115127675"><ele>55.96</ele><time>2026-04-20T16:50:57Z</time></trkpt><trkpt lat="59.0958081745" lon="30.0117690861"><ele>56.33</ele><time>2026-04-20T16:51:17Z</time></trkpt><trkpt lat="59.0957956854" lon="30.0119751971"><ele>56.62</ele><time>2026-04-20T16:51:36Z</time></trkpt><trkpt lat="59.0958178136" lon="30.0122677255"><ele>55.76</ele><time>2026-04-20T16:51:59Z</time></trkpt><trkpt lat="59.0958422050" lon="30.0124078710"><ele>56.62</ele><time>2026-04-20T16:52:22Z</time></trkpt><trkpt lat="59.0958477370" lon="30.0125883333"><ele>56.23</ele><time>2026-04-20T16:52:46Z</time></trkpt><trkpt lat="59.0958981961" lon="30.0127124693"><ele>56.90</ele><time>2026-04-20T16:53:07Z</time></trkpt><trkpt lat="59.0959796682" lon="30.0127295684"><ele>56.25</ele><time>2026-04-20T16:53:26Z</time></trkpt><trkpt lat="59.0960529260" lon="30.0126566458"><ele>56.47</ele><time>2026-04-20T16:53:50Z</time></trkpt><trkpt lat="59.0961139463" lon="30.0126346014"><ele>56.79</ele><time>2026-04-20T16:54:13Z</time></trkpt><trkpt lat="59.0961663332" lon="30.0125977211"><ele>56.23</ele><time>2026-04-20T16:54:36Z</time></trkpt><trkpt lat="59.0963025391" lon="30.0123698171"><ele>56.96</ele><time>2026-04-20T16:54:58Z</time></trkpt><trkpt lat="59.0962452907" lon="30.0122638699"><ele>57.10</ele><time>2026-04-20T16:55:16Z</time></trkpt><trkpt lat="59.0962464642" lon="30.0121629518"><ele>56.73</ele><time>2026-04-20T16:55:44Z</time></trkpt><trkpt lat="59.0962782316" lon="30.0119726826"><ele>56.31</ele><time>2026-04-20T16:56:01Z</time></trkpt><trkpt lat="59.0963509027" lon="30.0116915535"><ele>57.66</ele><time>2026-04-20T16:56:27Z</time></trkpt><trkpt lat="59.0963053890" lon="30.0115825888"><ele>57.06</ele><time>2026-04-20T16:56:45Z</time></trkpt><trkpt lat="59.0962722804" lon="30.0115729496"><ele>56.90</ele><time>2026-04-20T16:56:54Z</time></trkpt><trkpt lat="59.0962885413" lon="30.0114654936"><ele>58.05</ele><time>2026-04-20T16:57:11Z</time></trkpt><trkpt lat="59.0962937381" lon="30.0114141125"><ele>57.41</ele><time>2026-04-20T16:57:34Z</time></trkpt><trkpt lat="59.0963957459" lon="30.0113687664"><ele>57.43</ele><time>2026-04-20T16:57:53Z</time></trkpt><trkpt lat="59.0963607933" lon="30.0114599615"><ele>57.44</ele><time>2026-04-20T16:58:10Z</time></trkpt><trkpt lat="59.0964358114" lon="30.0118769612"><ele>56.90</ele><time>2026-04-20T16:58:35Z</time></trkpt><trkpt lat="59.0965543315" lon="30.0120339543"><ele>56.71</ele><time>2026-04-20T16:58:57Z</time></trkpt><trkpt lat="59.0965884458" lon="30.0120822340"><ele>57.23</ele><time>2026-04-20T16:59:21Z</time></trkpt><trkpt lat="59.0965144336" lon="30.0123692304"><ele>56.90</ele><time>2026-04-20T16:59:42Z</time></trkpt><trkpt lat="59.0964324586" lon="30.0125630200"><ele>56.92</ele><time>2026-04-20T16:59:59Z</time></trkpt><trkpt lat="59.0964148566" lon="30.0125881657"><ele>56.85</ele><time>2026-04-20T17:00:03Z</time></trkpt><trkpt lat="59.0963156987" lon="30.0127218571"><ele>56.92</ele><time>2026-04-20T17:00:21Z</time></trkpt><trkpt lat="59.0962419380" lon="30.0128607452"><ele>57.82</ele><time>2026-04-20T17:00:42Z</time></trkpt><trkpt lat="59.0961664170" lon="30.0130614080"><ele>57.56</ele><time>2026-04-20T17:01:05Z</time></trkpt><trkpt lat="59.0961066540" lon="30.0131084304"><ele>57.49</ele><time>2026-04-20T17:01:28Z</time></trkpt><trkpt lat="59.0960875433" lon="30.0132760685"><ele>57.49</ele><time>2026-04-20T17:01:49Z</time></trkpt><trkpt lat="59.0960874595" lon="30.0133826863"><ele>57.76</ele><time>2026-04-20T17:02:11Z</time></trkpt><trkpt lat="59.0961089171" lon="30.0132479891"><ele>57.88</ele><time>2026-04-20T17:02:32Z</time></trkpt><trkpt lat="59.0960635711" lon="30.0130780041"><ele>57.80</ele><time>2026-04-20T17:02:53Z</time></trkpt><trkpt lat="59.0959797520" lon="30.0130958576"><ele>58.17</ele><time>2026-04-20T17:03:11Z</time></trkpt><trkpt lat="59.0959296282" lon="30.0130665209"><ele>57.66</ele><time>2026-04-20T17:03:25Z</time></trkpt><trkpt lat="59.0958704520" lon="30.0130354241"><ele>57.10</ele><time>2026-04-20T17:03:41Z</time></trkpt><trkpt lat="59.0958393551" lon="30.0129552931"><ele>57.81</ele><time>2026-04-20T17:03:57Z</time></trkpt><trkpt lat="59.0957817715" lon="30.0128477532"><ele>56.59</ele><time>2026-04-20T17:04:16Z</time></trkpt><trkpt lat="59.0957516804" lon="30.0128252059"><ele>58.32</ele><time>2026-04-20T17:04:24Z</time></trkpt><trkpt lat="59.0956791770" lon="30.0127408840"><ele>57.49</ele><time>2026-04-20T17:04:41Z</time></trkpt><trkpt lat="59.0956408717" lon="30.0126394629"><ele>58.46</ele><time>2026-04-20T17:04:55Z</time></trkpt><trkpt lat="59.0956049971" lon="30.0125442445"><ele>57.99</ele><time>2026-04-20T17:05:09Z</time></trkpt><trkpt lat="59.0955840424" lon="30.0124201085"><ele>58.72</ele><time>2026-04-20T17:05:23Z</time></trkpt><trkpt lat="59.0955389477" lon="30.0123184361"><ele>57.93</ele><time>2026-04-20T17:05:38Z</time></trkpt><trkpt lat="59.0955227707" lon="30.0122519676"><ele>58.14</ele><time>2026-04-20T17:05:51Z</time></trkpt><trkpt lat="59.0955103654" lon="30.0120891910"><ele>58.58</ele><time>2026-04-20T17:06:07Z</time></trkpt><trkpt lat="59.0955353435" lon="30.0120107364"><ele>58.25</ele><time>2026-04-20T17:06:20Z</time></trkpt><trkpt lat="59.0955516882" lon="30.0118822418"><ele>57.89</ele><time>2026-04-20T17:06:34Z</time></trkpt><trkpt lat="59.0955352597" lon="30.0118653942"><ele>58.17</ele><time>2026-04-20T17:06:57Z</time></trkpt><trkpt lat="59.0955552086" lon="30.0117232371"><ele>58.12</ele><time>2026-04-20T17:07:16Z</time></trkpt><trkpt lat="59.0955084376" lon="30.0115925632"><ele>58.65</ele><time>2026-04-20T17:07:30Z</time></trkpt><trkpt lat="59.0954908356" lon="30.0115288608"><ele>58.67</ele><time>2026-04-20T17:07:48Z</time></trkpt><trkpt lat="59.0954632591" lon="30.0114025455"><ele>58.99</ele><time>2026-04-20T17:08:10Z</time></trkpt><trkpt lat="59.0955065098" lon="30.0112406071"><ele>58.20</ele><time>2026-04-20T17:08:28Z</time></trkpt><trkpt lat="59.0955355950" lon="30.0111074187"><ele>58.64</ele><time>2026-04-20T17:08:48Z</time></trkpt><trkpt lat="59.0955597349" lon="30.0110014714"><ele>58.44</ele><time>2026-04-20T17:09:08Z</time></trkpt><trkpt lat="59.0955659375" lon="30.0109210890"><ele>58.58</ele><time>2026-04-20T17:09:31Z</time></trkpt><trkpt lat="59.0955994651" lon="30.0108782575"><ele>58.66</ele><time>2026-04-20T17:09:45Z</time></trkpt><trkpt lat="59.0955946036" lon="30.0107104518"><ele>58.67</ele><time>2026-04-20T17:09:59Z</time></trkpt><trkpt lat="59.0955899097" lon="30.0105401315"><ele>58.00</ele><time>2026-04-20T17:10:15Z</time></trkpt><trkpt lat="59.0955684520" lon="30.0103778578"><ele>58.15</ele><time>2026-04-20T17:10:31Z</time></trkpt><trkpt lat="59.0955784265" lon="30.0102517102"><ele>57.87</ele><time>2026-04-20T17:10:49Z</time></trkpt><trkpt lat="59.0956396982" lon="30.0103235431"><ele>57.59</ele><time>2026-04-20T17:11:04Z</time></trkpt><trkpt lat="59.0957220923" lon="30.0104566477"><ele>57.78</ele><time>2026-04-20T17:11:23Z</time></trkpt><trkpt lat="59.0957421251" lon="30.0104067754"><ele>57.92</ele><time>2026-04-20T17:11:29Z</time></trkpt><trkpt lat="59.0957391914" lon="30.0102025084"><ele>58.01</ele><time>2026-04-20T17:11:46Z</time></trkpt><trkpt lat="59.0957658459" lon="30.0100115687"><ele>55.90</ele><time>2026-04-20T17:12:05Z</time></trkpt><trkpt lat="59.0958810970" lon="30.0100249797"><ele>57.52</ele><time>2026-04-20T17:12:25Z</time></trkpt><trkpt lat="59.0960033890" lon="30.0101124030"><ele>57.59</ele><time>2026-04-20T17:12:44Z</time></trkpt><trkpt lat="59.0960988589" lon="30.0100181065"><ele>57.58</ele><time>2026-04-20T17:13:01Z</time></trkpt><trkpt lat="59.0960726235" lon="30.0098870974"><ele>57.66</ele><time>2026-04-20T17:13:21Z</time></trkpt><trkpt lat="59.0960657503" lon="30.0098235626"><ele>57.31</ele><time>2026-04-20T17:13:46Z</time></trkpt><trkpt lat="59.0960146207" lon="30.0097229797"><ele>57.45</ele><time>2026-04-20T17:14:05Z</time></trkpt><trkpt lat="59.0959620662" lon="30.0096757896"><ele>58.00</ele><time>2026-04-20T17:14:25Z</time></trkpt><trkpt lat="59.0958608128" lon="30.0096567627"><ele>58.20</ele><time>2026-04-20T17:14:43Z</time></trkpt><trkpt lat="59.0957837831" lon="30.0096524879"><ele>58.18</ele><time>2026-04-20T17:15:02Z</time></trkpt><trkpt lat="59.0957237687" lon="30.0096415076"><ele>57.95</ele><time>2026-04-20T17:15:26Z</time></trkpt><trkpt lat="59.0956076793" lon="30.0096974988"><ele>58.14</ele><time>2026-04-20T17:15:44Z</time></trkpt><trkpt lat="59.0955115389" lon="30.0098422542"><ele>58.65</ele><time>2026-04-20T17:16:01Z</time></trkpt><trkpt lat="59.0954765026" lon="30.0100049470"><ele>58.71</ele><time>2026-04-20T17:16:17Z</time></trkpt><trkpt lat="59.0954490937" lon="30.0101129059"><ele>58.05</ele><time>2026-04-20T17:16:36Z</time></trkpt><trkpt lat="59.0953229461" lon="30.0103009120"><ele>59.04</ele><time>2026-04-20T17:17:01Z</time></trkpt><trkpt lat="59.0953164920" lon="30.0104718190"><ele>58.55</ele><time>2026-04-20T17:17:23Z</time></trkpt><trkpt lat="59.0953092836" lon="30.0105585717"><ele>59.00</ele><time>2026-04-20T17:17:46Z</time></trkpt><trkpt lat="59.0953294840" lon="30.0106262136"><ele>59.05</ele><time>2026-04-20T17:18:11Z</time></trkpt><trkpt lat="59.0952986386" lon="30.0107648503"><ele>59.42</ele><time>2026-04-20T17:18:33Z</time></trkpt><trkpt lat="59.0953511093" lon="30.0107317418"><ele>58.68</ele><time>2026-04-20T17:18:56Z</time></trkpt><trkpt lat="59.0953692142" lon="30.0108186621"><ele>59.01</ele><time>2026-04-20T17:19:17Z</time></trkpt><trkpt lat="59.0953731537" lon="30.0109834503"><ele>58.34</ele><time>2026-04-20T17:19:37Z</time></trkpt><trkpt lat="59.0953323338" lon="30.0110676046"><ele>58.79</ele><time>2026-04-20T17:20:02Z</time></trkpt><trkpt lat="59.0953240357" lon="30.0111183152"><ele>57.07</ele><time>2026-04-20T17:20:13Z</time></trkpt><trkpt lat="59.0953197610" lon="30.0111419521"><ele>59.48</ele><time>2026-04-20T17:20:17Z</time></trkpt><trkpt lat="59.0953278914" lon="30.0112559460"><ele>58.80</ele><time>2026-04-20T17:20:36Z</time></trkpt><trkpt lat="59.0952847246" lon="30.0113824289"><ele>59.83</ele><time>2026-04-20T17:20:50Z</time></trkpt><trkpt lat="59.0952579863" lon="30.0114820059"><ele>59.99</ele><time>2026-04-20T17:21:03Z</time></trkpt><trkpt lat="59.0952473413" lon="30.0116048008"><ele>59.65</ele><time>2026-04-20T17:21:19Z</time></trkpt><trkpt lat="59.0952620935" lon="30.0117111672"><ele>59.73</ele><time>2026-04-20T17:21:36Z</time></trkpt><trkpt lat="59.0952889994" lon="30.0119083934"><ele>59.44</ele><time>2026-04-20T17:21:52Z</time></trkpt><trkpt lat="59.0952885803" lon="30.0120425876"><ele>60.05</ele><time>2026-04-20T17:22:07Z</time></trkpt><trkpt lat="59.0953003149" lon="30.0121951383"><ele>59.90</ele><time>2026-04-20T17:22:28Z</time></trkpt><trkpt lat="59.0953172464" lon="30.0123792887"><ele>59.54</ele><time>2026-04-20T17:22:48Z</time></trkpt><trkpt lat="59.0953404643" lon="30.0125458371"><ele>60.15</ele><time>2026-04-20T17:23:05Z</time></trkpt><trkpt lat="59.0953456610" lon="30.0126297399"><ele>60.00</ele><time>2026-04-20T17:23:19Z</time></trkpt><trkpt lat="59.0953656100" lon="30.0126461685"><ele>59.99</ele><time>2026-04-20T17:23:31Z</time></trkpt><trkpt lat="59.0953713097" lon="30.0127303228"><ele>60.43</ele><time>2026-04-20T17:23:44Z</time></trkpt><trkpt lat="59.0954272170" lon="30.0128237810"><ele>59.97</ele><time>2026-04-20T17:23:59Z</time></trkpt><trkpt lat="59.0954967868" lon="30.0128811970"><ele>60.43</ele><time>2026-04-20T17:24:13Z</time></trkpt><trkpt lat="59.0955292247" lon="30.0130029023"><ele>59.99</ele><time>2026-04-20T17:24:28Z</time></trkpt><trkpt lat="59.0955580585" lon="30.0131285470"><ele>61.09</ele><time>2026-04-20T17:24:41Z</time></trkpt><trkpt lat="59.0956308972" lon="30.0132416189"><ele>59.73</ele><time>2026-04-20T17:24:59Z</time></trkpt><trkpt lat="59.0956868883" lon="30.0132702850"><ele>59.77</ele><time>2026-04-20T17:25:14Z</time></trkpt><trkpt lat="59.0957329050" lon="30.0133349933"><ele>59.64</ele><time>2026-04-20T17:25:37Z</time></trkpt><trkpt lat="59.0957817715" lon="30.0135163777"><ele>60.04</ele><time>2026-04-20T17:25:57Z</time></trkpt><trkpt lat="59.0958066657" lon="30.0136272702"><ele>59.80</ele><time>2026-04-20T17:26:17Z</time></trkpt><trkpt lat="59.0957364254" lon="30.0138166174"><ele>59.94</ele><time>2026-04-20T17:26:36Z</time></trkpt><trkpt lat="59.0957396105" lon="30.0140697509"><ele>59.72</ele><time>2026-04-20T17:26:55Z</time></trkpt><trkpt lat="59.0957597271" lon="30.0143554900"><ele>59.64</ele><time>2026-04-20T17:27:17Z</time></trkpt><trkpt lat="59.0958332364" lon="30.0143497065"><ele>60.11</ele><time>2026-04-20T17:27:35Z</time></trkpt><trkpt lat="59.0959035605" lon="30.0142713357"><ele>57.65</ele><time>2026-04-20T17:27:47Z</time></trkpt><trkpt lat="59.0959185641" lon="30.0142541528"><ele>59.29</ele><time>2026-04-20T17:27:54Z</time></trkpt><trkpt lat="59.0959765669" lon="30.0140315294"><ele>59.35</ele><time>2026-04-20T17:28:13Z</time></trkpt><trkpt lat="59.0959442127" lon="30.0139114168"><ele>58.92</ele><time>2026-04-20T17:28:30Z</time></trkpt><trkpt lat="59.0959520917" lon="30.0138968322"><ele>58.86</ele><time>2026-04-20T17:28:50Z</time></trkpt><trkpt lat="59.0960724559" lon="30.0137390010"><ele>58.52</ele><time>2026-04-20T17:29:10Z</time></trkpt><trkpt lat="59.0960672591" lon="30.0134991948"><ele>58.45</ele><time>2026-04-20T17:29:27Z</time></trkpt><trkpt lat="59.0961216576" lon="30.0133861229"><ele>57.98</ele><time>2026-04-20T17:29:45Z</time></trkpt><trkpt lat="59.0961834323" lon="30.0133600552"><ele>58.07</ele><time>2026-04-20T17:30:09Z</time></trkpt><trkpt lat="59.0962434467" lon="30.0133707840"><ele>57.67</ele><time>2026-04-20T17:30:28Z</time></trkpt><trkpt lat="59.0962960850" lon="30.0134043954"><ele>57.30</ele><time>2026-04-20T17:30:45Z</time></trkpt><trkpt lat="59.0963719413" lon="30.0134256855"><ele>57.42</ele><time>2026-04-20T17:31:04Z</time></trkpt><trkpt lat="59.0964464564" lon="30.0133053213"><ele>58.14</ele><time>2026-04-20T17:31:31Z</time></trkpt><trkpt lat="59.0964590292" lon="30.0132999569"><ele>57.29</ele><time>2026-04-20T17:31:36Z</time></trkpt><trkpt lat="59.0965035371" lon="30.0132931676"><ele>58.29</ele><time>2026-04-20T17:31:59Z</time></trkpt><trkpt lat="59.0965138469" lon="30.0133159664"><ele>58.28</ele><time>2026-04-20T17:32:20Z</time></trkpt><trkpt lat="59.0965621267" lon="30.0134503283"><ele>58.56</ele><time>2026-04-20T17:32:42Z</time></trkpt><trkpt lat="59.0965392441" lon="30.0135779846"><ele>57.28</ele><time>2026-04-20T17:33:02Z</time></trkpt><trkpt lat="59.0964963287" lon="30.0137373246"><ele>57.49</ele><time>2026-04-20T17:33:21Z</time></trkpt><trkpt lat="59.0964926407" lon="30.0137520768"><ele>57.49</ele><time>2026-04-20T17:33:22Z</time></trkpt><trkpt lat="59.0964224003" lon="30.0139489677"><ele>56.95</ele><time>2026-04-20T17:33:41Z</time></trkpt><trkpt lat="59.0963649843" lon="30.0139896199"><ele>56.83</ele><time>2026-04-20T17:34:01Z</time></trkpt><trkpt lat="59.0963163693" lon="30.0139993429"><ele>57.77</ele><time>2026-04-20T17:34:21Z</time></trkpt><trkpt lat="59.0962712746" lon="30.0141174439"><ele>57.42</ele><time>2026-04-20T17:34:47Z</time></trkpt><trkpt lat="59.0962040517" lon="30.0141361356"><ele>56.51</ele><time>2026-04-20T17:35:08Z</time></trkpt><trkpt lat="59.0961773135" lon="30.0141224731"><ele>56.53</ele><time>2026-04-20T17:35:14Z</time></trkpt><trkpt lat="59.0960848611" lon="30.0142170209"><ele>57.73</ele><time>2026-04-20T17:35:37Z</time></trkpt><trkpt lat="59.0960355755" lon="30.0144517981"><ele>57.35</ele><time>2026-04-20T17:35:58Z</time></trkpt><trkpt lat="59.0959439613" lon="30.0147014949"><ele>57.68</ele><time>2026-04-20T17:36:25Z</time></trkpt><trkpt lat="59.0958270337" lon="30.0148345158"><ele>57.34</ele><time>2026-04-20T17:36:47Z</time></trkpt><trkpt lat="59.0958096832" lon="30.0148635171"><ele>58.16</ele><time>2026-04-20T17:37:17Z</time></trkpt><trkpt lat="59.0957270376" lon="30.0148905069"><ele>57.62</ele><time>2026-04-20T17:37:48Z</time></trkpt><trkpt lat="59.0956486668" lon="30.0147975516"><ele>57.82</ele><time>2026-04-20T17:38:08Z</time></trkpt><trkpt lat="59.0955578070" lon="30.0146320090"><ele>58.43</ele><time>2026-04-20T17:38:26Z</time></trkpt><trkpt lat="59.0955815278" lon="30.0143743493"><ele>57.56</ele><time>2026-04-20T17:38:48Z</time></trkpt><trkpt lat="59.0955735650" lon="30.0140884425"><ele>57.01</ele><time>2026-04-20T17:39:10Z</time></trkpt><trkpt lat="59.0955941007" lon="30.0138292741"><ele>57.89</ele><time>2026-04-20T17:39:27Z</time></trkpt><trkpt lat="59.0956031531" lon="30.0137763843"><ele>56.40</ele><time>2026-04-20T17:39:36Z</time></trkpt><trkpt lat="59.0955982916" lon="30.0137342233"><ele>57.81</ele><time>2026-04-20T17:39:41Z</time></trkpt><trkpt lat="59.0955782589" lon="30.0135810021"><ele>58.22</ele><time>2026-04-20T17:39:55Z</time></trkpt><trkpt lat="59.0955257043" lon="30.0134566147"><ele>56.64</ele><time>2026-04-20T17:40:07Z</time></trkpt><trkpt lat="59.0954583976" lon="30.0133582111"><ele>57.14</ele><time>2026-04-20T17:40:21Z</time></trkpt><trkpt lat="59.0953870676" lon="30.0132776611"><ele>57.48</ele><time>2026-04-20T17:40:38Z</time></trkpt><trkpt lat="59.0953739081" lon="30.0131371804"><ele>57.46</ele><time>2026-04-20T17:40:55Z</time></trkpt><trkpt lat="59.0952902567" lon="30.0130681135"><ele>57.31</ele><time>2026-04-20T17:41:08Z</time></trkpt><trkpt lat="59.0952330921" lon="30.0129607413"><ele>56.93</ele><time>2026-04-20T17:41:22Z</time></trkpt><trkpt lat="59.0951655339" lon="30.0128104538"><ele>57.53</ele><time>2026-04-20T17:41:40Z</time></trkpt><trkpt lat="59.0951128118" lon="30.0127563067"><ele>57.62</ele><time>2026-04-20T17:41:57Z</time></trkpt><trkpt lat="59.0950799547" lon="30.0126013253"><ele>58.14</ele><time>2026-04-20T17:42:12Z</time></trkpt><trkpt lat="59.0950618498" lon="30.0123646203"><ele>58.39</ele><time>2026-04-20T17:42:28Z</time></trkpt><trkpt lat="59.0950917732" lon="30.0122389756"><ele>57.31</ele><time>2026-04-20T17:42:44Z</time></trkpt><trkpt lat="59.0950807929" lon="30.0121147558"><ele>58.38</ele><time>2026-04-20T17:43:03Z</time></trkpt><trkpt lat="59.0950705670" lon="30.0120316911"><ele>58.72</ele><time>2026-04-20T17:43:11Z</time></trkpt><trkpt lat="59.0951459203" lon="30.0118635502"><ele>57.95</ele><time>2026-04-20T17:43:28Z</time></trkpt><trkpt lat="59.0951265581" lon="30.0118430145"><ele>57.25</ele><time>2026-04-20T17:43:44Z</time></trkpt><trkpt lat="59.0950619336" lon="30.0117734447"><ele>58.00</ele><time>2026-04-20T17:43:57Z</time></trkpt><trkpt lat="59.0950105526" lon="30.0116514042"><ele>58.36</ele><time>2026-04-20T17:44:10Z</time></trkpt><trkpt lat="59.0949883405" lon="30.0114877895"><ele>58.78</ele><time>2026-04-20T17:44:24Z</time></trkpt><trkpt lat="59.0949884243" lon="30.0114196446"><ele>58.48</ele><time>2026-04-20T17:44:45Z</time></trkpt><trkpt lat="59.0950498637" lon="30.0113700237"><ele>58.18</ele><time>2026-04-20T17:45:04Z</time></trkpt><trkpt lat="59.0951496921" lon="30.0112995319"><ele>57.04</ele><time>2026-04-20T17:45:22Z</time></trkpt><trkpt lat="59.0952044260" lon="30.0112151261"><ele>58.01</ele><time>2026-04-20T17:45:40Z</time></trkpt><trkpt lat="59.0952090360" lon="30.0110671856"><ele>58.99</ele><time>2026-04-20T17:46:01Z</time></trkpt><trkpt lat="59.0951784421" lon="30.0109603163"><ele>58.62</ele><time>2026-04-20T17:46:18Z</time></trkpt><trkpt lat="59.0950684715" lon="30.0107482541"><ele>58.07</ele><time>2026-04-20T17:46:41Z</time></trkpt><trkpt lat="59.0950496122" lon="30.0107039139"><ele>58.20</ele><time>2026-04-20T17:46:45Z</time></trkpt><trkpt lat="59.0950882528" lon="30.0104786083"><ele>58.77</ele><time>2026-04-20T17:47:03Z</time></trkpt><trkpt lat="59.0951831359" lon="30.0102529675"><ele>58.32</ele><time>2026-04-20T17:47:27Z</time></trkpt><trkpt lat="59.0951874945" lon="30.0099642109"><ele>58.41</ele><time>2026-04-20T17:47:49Z</time></trkpt><trkpt lat="59.0952677093" lon="30.0098596048"><ele>59.01</ele><time>2026-04-20T17:48:04Z</time></trkpt><trkpt lat="59.0953342617" lon="30.0097017735"><ele>59.25</ele><time>2026-04-20T17:48:20Z</time></trkpt><trkpt lat="59.0953448229" lon="30.0096375681"><ele>58.47</ele><time>2026-04-20T17:48:42Z</time></trkpt><trkpt lat="59.0953948628" lon="30.0096533261"><ele>59.52</ele><time>2026-04-20T17:49:06Z</time></trkpt><trkpt lat="59.0954719763" lon="30.0095078163"><ele>58.88</ele><time>2026-04-20T17:49:27Z</time></trkpt><trkpt lat="59.0955013130" lon="30.0092811696"><ele>58.55</ele><time>2026-04-20T17:49:48Z</time></trkpt><trkpt lat="59.0956390277" lon="30.0091772340"><ele>59.40</ele><time>2026-04-20T17:50:13Z</time></trkpt><trkpt lat="59.0956722200" lon="30.0091051497"><ele>59.18</ele><time>2026-04-20T17:50:37Z</time></trkpt><trkpt lat="59.0957489144" lon="30.0090156309"><ele>59.55</ele><time>2026-04-20T17:50:58Z</time></trkpt><trkpt lat="59.0957976133" lon="30.0088696182"><ele>59.65</ele><time>2026-04-20T17:51:21Z</time></trkpt><trkpt lat="59.0958360862" lon="30.0089614000"><ele>59.06</ele><time>2026-04-20T17:51:34Z</time></trkpt><trkpt lat="59.0958848689" lon="30.0091256015"><ele>60.35</ele><time>2026-04-20T17:51:49Z</time></trkpt><trkpt lat="59.0959955100" lon="30.0091914833"><ele>60.47</ele><time>2026-04-20T17:52:08Z</time></trkpt><trkpt lat="59.0961432829" lon="30.0092705246"><ele>60.14</ele><time>2026-04-20T17:52:29Z</time></trkpt><trkpt lat="59.0962007828" lon="30.0093770586"><ele>60.22</ele><time>2026-04-20T17:52:49Z</time></trkpt><trkpt lat="59.0962758008" lon="30.0095462054"><ele>60.31</ele><time>2026-04-20T17:53:05Z</time></trkpt><trkpt lat="59.0963543393" lon="30.0097757019"><ele>60.02</ele><time>2026-04-20T17:53:24Z</time></trkpt><trkpt lat="59.0963971708" lon="30.0099880155"><ele>59.27</ele><time>2026-04-20T17:53:48Z</time></trkpt><trkpt lat="59.0964140184" lon="30.0099989120"><ele>59.57</ele><time>2026-04-20T17:54:05Z</time></trkpt><trkpt lat="59.0963980090" lon="30.0100362115"><ele>60.14</ele><time>2026-04-20T17:54:34Z</time></trkpt><trkpt lat="59.0963924769" lon="30.0098810624"><ele>60.31</ele><time>2026-04-20T17:54:50Z</time></trkpt><trkpt lat="59.0963667445" lon="30.0097543281"><ele>60.76</ele><time>2026-04-20T17:54:58Z</time></trkpt><trkpt lat="59.0963550098" lon="30.0095276814"><ele>60.81</ele><time>2026-04-20T17:55:12Z</time></trkpt><trkpt lat="59.0963150281" lon="30.0093995221"><ele>60.50</ele><time>2026-04-20T17:55:23Z</time></trkpt><trkpt lat="59.0962302871" lon="30.0090591330"><ele>60.57</ele><time>2026-04-20T17:55:41Z</time></trkpt></trkseg></trk></gpx>